<?xml version="1.0" encoding="UTF-8" standalone="no" ?>
<gpx xmlns="http://www.topografix.com/GPX/1/1" xmlns:xsi="http://www.w3.org/2001/XMLSchema-instance" xsi:schemaLocation="http://www.topografix.com/GPX/1/1 http://www.topografix.com/GPX/1/1/gpx.xsd" version="1.1" creator="VisuGPX - https://www.visugpx.com">
  <metadata>
    <name>grand som - petit som depuis pont des allemands</name>
    <desc><![CDATA[grand som - petit som depuis pont des allemands]]></desc>
  </metadata>
  <trk>
    <name><![CDATA[20190217121639-wP9Xg]]></name>
    <trkseg>
      <trkpt lat="45.35557" lon="5.7878">
        <ele>857</ele>
        <time>2015-02-15T07:48:35Z</time>
      </trkpt>
      <trkpt lat="45.35565" lon="5.78781">
        <ele>857</ele>
        <time>2015-02-15T07:48:42Z</time>
      </trkpt>
      <trkpt lat="45.35568" lon="5.78782">
        <ele>857</ele>
        <time>2015-02-15T07:48:44Z</time>
      </trkpt>
      <trkpt lat="45.35579" lon="5.78784">
        <ele>857</ele>
        <time>2015-02-15T07:48:53Z</time>
      </trkpt>
      <trkpt lat="45.35589" lon="5.78787">
        <ele>857</ele>
        <time>2015-02-15T07:49:00Z</time>
      </trkpt>
      <trkpt lat="45.35595" lon="5.78787">
        <ele>857</ele>
        <time>2015-02-15T07:49:05Z</time>
      </trkpt>
      <trkpt lat="45.35603" lon="5.78788">
        <ele>857</ele>
        <time>2015-02-15T07:49:12Z</time>
      </trkpt>
      <trkpt lat="45.35604" lon="5.78788">
        <ele>857</ele>
        <time>2015-02-15T07:49:13Z</time>
      </trkpt>
      <trkpt lat="45.35609" lon="5.78788">
        <ele>857</ele>
        <time>2015-02-15T07:49:17Z</time>
      </trkpt>
      <trkpt lat="45.35615" lon="5.78788">
        <ele>857</ele>
        <time>2015-02-15T07:49:22Z</time>
      </trkpt>
      <trkpt lat="45.35628" lon="5.78789">
        <ele>878</ele>
        <time>2015-02-15T07:49:32Z</time>
      </trkpt>
      <trkpt lat="45.35629" lon="5.7879">
        <ele>878</ele>
        <time>2015-02-15T07:49:33Z</time>
      </trkpt>
      <trkpt lat="45.35632" lon="5.78789">
        <ele>878</ele>
        <time>2015-02-15T07:49:36Z</time>
      </trkpt>
      <trkpt lat="45.3564" lon="5.78789">
        <ele>878</ele>
        <time>2015-02-15T07:49:43Z</time>
      </trkpt>
      <trkpt lat="45.35648" lon="5.78792">
        <ele>853</ele>
        <time>2015-02-15T07:49:51Z</time>
      </trkpt>
      <trkpt lat="45.35655" lon="5.78795">
        <ele>853</ele>
        <time>2015-02-15T07:49:57Z</time>
      </trkpt>
      <trkpt lat="45.35661" lon="5.78795">
        <ele>853</ele>
        <time>2015-02-15T07:50:03Z</time>
      </trkpt>
      <trkpt lat="45.35664" lon="5.78797">
        <ele>853</ele>
        <time>2015-02-15T07:50:06Z</time>
      </trkpt>
      <trkpt lat="45.3567" lon="5.788">
        <ele>853</ele>
        <time>2015-02-15T07:50:11Z</time>
      </trkpt>
      <trkpt lat="45.35676" lon="5.78802">
        <ele>853</ele>
        <time>2015-02-15T07:50:16Z</time>
      </trkpt>
      <trkpt lat="45.35679" lon="5.78804">
        <ele>853</ele>
        <time>2015-02-15T07:50:19Z</time>
      </trkpt>
      <trkpt lat="45.35688" lon="5.78811">
        <ele>853</ele>
        <time>2015-02-15T07:50:27Z</time>
      </trkpt>
      <trkpt lat="45.35694" lon="5.78817">
        <ele>853</ele>
        <time>2015-02-15T07:50:33Z</time>
      </trkpt>
      <trkpt lat="45.35699" lon="5.78821">
        <ele>836</ele>
        <time>2015-02-15T07:50:38Z</time>
      </trkpt>
      <trkpt lat="45.35707" lon="5.78826">
        <ele>853</ele>
        <time>2015-02-15T07:50:45Z</time>
      </trkpt>
      <trkpt lat="45.3571" lon="5.78828">
        <ele>871</ele>
        <time>2015-02-15T07:50:48Z</time>
      </trkpt>
      <trkpt lat="45.35714" lon="5.7883">
        <ele>871</ele>
        <time>2015-02-15T07:50:51Z</time>
      </trkpt>
      <trkpt lat="45.3572" lon="5.78834">
        <ele>871</ele>
        <time>2015-02-15T07:50:58Z</time>
      </trkpt>
      <trkpt lat="45.35726" lon="5.78837">
        <ele>871</ele>
        <time>2015-02-15T07:51:05Z</time>
      </trkpt>
      <trkpt lat="45.35727" lon="5.78838">
        <ele>871</ele>
        <time>2015-02-15T07:51:06Z</time>
      </trkpt>
      <trkpt lat="45.35732" lon="5.78843">
        <ele>871</ele>
        <time>2015-02-15T07:51:13Z</time>
      </trkpt>
      <trkpt lat="45.3574" lon="5.78848">
        <ele>871</ele>
        <time>2015-02-15T07:51:21Z</time>
      </trkpt>
      <trkpt lat="45.35743" lon="5.7885">
        <ele>871</ele>
        <time>2015-02-15T07:51:24Z</time>
      </trkpt>
      <trkpt lat="45.3575" lon="5.78854">
        <ele>871</ele>
        <time>2015-02-15T07:51:32Z</time>
      </trkpt>
      <trkpt lat="45.35756" lon="5.78856">
        <ele>871</ele>
        <time>2015-02-15T07:51:39Z</time>
      </trkpt>
      <trkpt lat="45.35762" lon="5.78858">
        <ele>871</ele>
        <time>2015-02-15T07:51:46Z</time>
      </trkpt>
      <trkpt lat="45.35767" lon="5.7886">
        <ele>871</ele>
        <time>2015-02-15T07:51:52Z</time>
      </trkpt>
      <trkpt lat="45.35774" lon="5.78865">
        <ele>871</ele>
        <time>2015-02-15T07:51:59Z</time>
      </trkpt>
      <trkpt lat="45.3578" lon="5.78867">
        <ele>871</ele>
        <time>2015-02-15T07:52:06Z</time>
      </trkpt>
      <trkpt lat="45.35787" lon="5.78871">
        <ele>871</ele>
        <time>2015-02-15T07:52:13Z</time>
      </trkpt>
      <trkpt lat="45.35788" lon="5.78871">
        <ele>871</ele>
        <time>2015-02-15T07:52:15Z</time>
      </trkpt>
      <trkpt lat="45.35796" lon="5.78872">
        <ele>894</ele>
        <time>2015-02-15T07:52:22Z</time>
      </trkpt>
      <trkpt lat="45.35798" lon="5.78873">
        <ele>894</ele>
        <time>2015-02-15T07:52:24Z</time>
      </trkpt>
      <trkpt lat="45.35805" lon="5.78877">
        <ele>877</ele>
        <time>2015-02-15T07:52:32Z</time>
      </trkpt>
      <trkpt lat="45.35814" lon="5.78881">
        <ele>877</ele>
        <time>2015-02-15T07:52:39Z</time>
      </trkpt>
      <trkpt lat="45.35819" lon="5.78884">
        <ele>877</ele>
        <time>2015-02-15T07:52:44Z</time>
      </trkpt>
      <trkpt lat="45.35826" lon="5.78888">
        <ele>877</ele>
        <time>2015-02-15T07:52:50Z</time>
      </trkpt>
      <trkpt lat="45.35833" lon="5.7889">
        <ele>877</ele>
        <time>2015-02-15T07:52:57Z</time>
      </trkpt>
      <trkpt lat="45.35834" lon="5.7889">
        <ele>877</ele>
        <time>2015-02-15T07:52:58Z</time>
      </trkpt>
      <trkpt lat="45.35838" lon="5.78893">
        <ele>877</ele>
        <time>2015-02-15T07:53:01Z</time>
      </trkpt>
      <trkpt lat="45.35842" lon="5.78896">
        <ele>877</ele>
        <time>2015-02-15T07:53:04Z</time>
      </trkpt>
      <trkpt lat="45.35847" lon="5.78899">
        <ele>877</ele>
        <time>2015-02-15T07:53:10Z</time>
      </trkpt>
      <trkpt lat="45.3585" lon="5.78899">
        <ele>877</ele>
        <time>2015-02-15T07:53:12Z</time>
      </trkpt>
      <trkpt lat="45.35857" lon="5.78902">
        <ele>877</ele>
        <time>2015-02-15T07:53:20Z</time>
      </trkpt>
      <trkpt lat="45.35859" lon="5.78902">
        <ele>877</ele>
        <time>2015-02-15T07:53:22Z</time>
      </trkpt>
      <trkpt lat="45.35863" lon="5.78903">
        <ele>877</ele>
        <time>2015-02-15T07:53:26Z</time>
      </trkpt>
      <trkpt lat="45.3587" lon="5.78906">
        <ele>877</ele>
        <time>2015-02-15T07:53:34Z</time>
      </trkpt>
      <trkpt lat="45.35875" lon="5.78909">
        <ele>877</ele>
        <time>2015-02-15T07:53:40Z</time>
      </trkpt>
      <trkpt lat="45.3588" lon="5.78911">
        <ele>895</ele>
        <time>2015-02-15T07:53:46Z</time>
      </trkpt>
      <trkpt lat="45.35886" lon="5.78914">
        <ele>861</ele>
        <time>2015-02-15T07:53:52Z</time>
      </trkpt>
      <trkpt lat="45.35892" lon="5.78914">
        <ele>895</ele>
        <time>2015-02-15T07:53:58Z</time>
      </trkpt>
      <trkpt lat="45.35898" lon="5.78915">
        <ele>895</ele>
        <time>2015-02-15T07:54:04Z</time>
      </trkpt>
      <trkpt lat="45.35905" lon="5.78917">
        <ele>895</ele>
        <time>2015-02-15T07:54:10Z</time>
      </trkpt>
      <trkpt lat="45.35908" lon="5.7892">
        <ele>895</ele>
        <time>2015-02-15T07:54:13Z</time>
      </trkpt>
      <trkpt lat="45.35916" lon="5.78924">
        <ele>895</ele>
        <time>2015-02-15T07:54:19Z</time>
      </trkpt>
      <trkpt lat="45.35924" lon="5.78924">
        <ele>895</ele>
        <time>2015-02-15T07:54:27Z</time>
      </trkpt>
      <trkpt lat="45.35926" lon="5.78924">
        <ele>895</ele>
        <time>2015-02-15T07:54:29Z</time>
      </trkpt>
      <trkpt lat="45.35934" lon="5.78923">
        <ele>895</ele>
        <time>2015-02-15T07:54:37Z</time>
      </trkpt>
      <trkpt lat="45.3594" lon="5.78924">
        <ele>895</ele>
        <time>2015-02-15T07:54:44Z</time>
      </trkpt>
      <trkpt lat="45.35943" lon="5.78926">
        <ele>895</ele>
        <time>2015-02-15T07:54:47Z</time>
      </trkpt>
      <trkpt lat="45.35948" lon="5.78932">
        <ele>895</ele>
        <time>2015-02-15T07:54:53Z</time>
      </trkpt>
      <trkpt lat="45.35956" lon="5.78936">
        <ele>895</ele>
        <time>2015-02-15T07:55:01Z</time>
      </trkpt>
      <trkpt lat="45.35959" lon="5.7894">
        <ele>925</ele>
        <time>2015-02-15T07:55:06Z</time>
      </trkpt>
      <trkpt lat="45.35964" lon="5.78944">
        <ele>925</ele>
        <time>2015-02-15T07:55:13Z</time>
      </trkpt>
      <trkpt lat="45.35971" lon="5.78947">
        <ele>925</ele>
        <time>2015-02-15T07:55:21Z</time>
      </trkpt>
      <trkpt lat="45.35976" lon="5.78952">
        <ele>925</ele>
        <time>2015-02-15T07:55:27Z</time>
      </trkpt>
      <trkpt lat="45.35981" lon="5.78955">
        <ele>925</ele>
        <time>2015-02-15T07:55:33Z</time>
      </trkpt>
      <trkpt lat="45.35987" lon="5.78959">
        <ele>906</ele>
        <time>2015-02-15T07:55:39Z</time>
      </trkpt>
      <trkpt lat="45.35992" lon="5.78965">
        <ele>906</ele>
        <time>2015-02-15T07:55:46Z</time>
      </trkpt>
      <trkpt lat="45.35997" lon="5.78971">
        <ele>906</ele>
        <time>2015-02-15T07:55:53Z</time>
      </trkpt>
      <trkpt lat="45.36007" lon="5.78976">
        <ele>906</ele>
        <time>2015-02-15T07:56:03Z</time>
      </trkpt>
      <trkpt lat="45.36014" lon="5.78977">
        <ele>906</ele>
        <time>2015-02-15T07:56:10Z</time>
      </trkpt>
      <trkpt lat="45.36019" lon="5.78982">
        <ele>906</ele>
        <time>2015-02-15T07:56:17Z</time>
      </trkpt>
      <trkpt lat="45.36028" lon="5.78985">
        <ele>906</ele>
        <time>2015-02-15T07:56:26Z</time>
      </trkpt>
      <trkpt lat="45.36036" lon="5.78989">
        <ele>906</ele>
        <time>2015-02-15T07:56:34Z</time>
      </trkpt>
      <trkpt lat="45.36043" lon="5.78994">
        <ele>927</ele>
        <time>2015-02-15T07:56:42Z</time>
      </trkpt>
      <trkpt lat="45.36049" lon="5.78998">
        <ele>927</ele>
        <time>2015-02-15T07:56:49Z</time>
      </trkpt>
      <trkpt lat="45.36054" lon="5.79">
        <ele>927</ele>
        <time>2015-02-15T07:56:54Z</time>
      </trkpt>
      <trkpt lat="45.36058" lon="5.79003">
        <ele>927</ele>
        <time>2015-02-15T07:56:59Z</time>
      </trkpt>
      <trkpt lat="45.36061" lon="5.79003">
        <ele>927</ele>
        <time>2015-02-15T07:57:02Z</time>
      </trkpt>
      <trkpt lat="45.36067" lon="5.7901">
        <ele>927</ele>
        <time>2015-02-15T07:57:10Z</time>
      </trkpt>
      <trkpt lat="45.36073" lon="5.79015">
        <ele>927</ele>
        <time>2015-02-15T07:57:16Z</time>
      </trkpt>
      <trkpt lat="45.36074" lon="5.79016">
        <ele>927</ele>
        <time>2015-02-15T07:57:18Z</time>
      </trkpt>
      <trkpt lat="45.3608" lon="5.79022">
        <ele>927</ele>
        <time>2015-02-15T07:57:24Z</time>
      </trkpt>
      <trkpt lat="45.36085" lon="5.79028">
        <ele>927</ele>
        <time>2015-02-15T07:57:30Z</time>
      </trkpt>
      <trkpt lat="45.3609" lon="5.79031">
        <ele>927</ele>
        <time>2015-02-15T07:57:36Z</time>
      </trkpt>
      <trkpt lat="45.36096" lon="5.79035">
        <ele>927</ele>
        <time>2015-02-15T07:57:43Z</time>
      </trkpt>
      <trkpt lat="45.36099" lon="5.79037">
        <ele>927</ele>
        <time>2015-02-15T07:57:47Z</time>
      </trkpt>
      <trkpt lat="45.36104" lon="5.79039">
        <ele>927</ele>
        <time>2015-02-15T07:57:54Z</time>
      </trkpt>
      <trkpt lat="45.36105" lon="5.79042">
        <ele>914</ele>
        <time>2015-02-15T07:57:56Z</time>
      </trkpt>
      <trkpt lat="45.3611" lon="5.79048">
        <ele>914</ele>
        <time>2015-02-15T07:58:04Z</time>
      </trkpt>
      <trkpt lat="45.36113" lon="5.7905">
        <ele>914</ele>
        <time>2015-02-15T07:58:08Z</time>
      </trkpt>
      <trkpt lat="45.36123" lon="5.79053">
        <ele>914</ele>
        <time>2015-02-15T07:58:15Z</time>
      </trkpt>
      <trkpt lat="45.36127" lon="5.79053">
        <ele>928</ele>
        <time>2015-02-15T07:58:20Z</time>
      </trkpt>
      <trkpt lat="45.36134" lon="5.79053">
        <ele>928</ele>
        <time>2015-02-15T07:58:27Z</time>
      </trkpt>
      <trkpt lat="45.36135" lon="5.79054">
        <ele>928</ele>
        <time>2015-02-15T07:58:28Z</time>
      </trkpt>
      <trkpt lat="45.36139" lon="5.79056">
        <ele>928</ele>
        <time>2015-02-15T07:58:33Z</time>
      </trkpt>
      <trkpt lat="45.36142" lon="5.79057">
        <ele>928</ele>
        <time>2015-02-15T07:58:36Z</time>
      </trkpt>
      <trkpt lat="45.36149" lon="5.79058">
        <ele>928</ele>
        <time>2015-02-15T07:58:42Z</time>
      </trkpt>
      <trkpt lat="45.36156" lon="5.79061">
        <ele>928</ele>
        <time>2015-02-15T07:58:49Z</time>
      </trkpt>
      <trkpt lat="45.36163" lon="5.79061">
        <ele>928</ele>
        <time>2015-02-15T07:58:57Z</time>
      </trkpt>
      <trkpt lat="45.36168" lon="5.7906">
        <ele>928</ele>
        <time>2015-02-15T07:59:02Z</time>
      </trkpt>
      <trkpt lat="45.36171" lon="5.79059">
        <ele>928</ele>
        <time>2015-02-15T07:59:05Z</time>
      </trkpt>
      <trkpt lat="45.36177" lon="5.79061">
        <ele>928</ele>
        <time>2015-02-15T07:59:11Z</time>
      </trkpt>
      <trkpt lat="45.36185" lon="5.79062">
        <ele>928</ele>
        <time>2015-02-15T07:59:18Z</time>
      </trkpt>
      <trkpt lat="45.36189" lon="5.79064">
        <ele>928</ele>
        <time>2015-02-15T07:59:22Z</time>
      </trkpt>
      <trkpt lat="45.36192" lon="5.79066">
        <ele>928</ele>
        <time>2015-02-15T07:59:25Z</time>
      </trkpt>
      <trkpt lat="45.36201" lon="5.79069">
        <ele>928</ele>
        <time>2015-02-15T07:59:33Z</time>
      </trkpt>
      <trkpt lat="45.3621" lon="5.79071">
        <ele>950</ele>
        <time>2015-02-15T07:59:41Z</time>
      </trkpt>
      <trkpt lat="45.36214" lon="5.79072">
        <ele>950</ele>
        <time>2015-02-15T07:59:45Z</time>
      </trkpt>
      <trkpt lat="45.36218" lon="5.79074">
        <ele>950</ele>
        <time>2015-02-15T07:59:49Z</time>
      </trkpt>
      <trkpt lat="45.36221" lon="5.79075">
        <ele>950</ele>
        <time>2015-02-15T07:59:52Z</time>
      </trkpt>
      <trkpt lat="45.36228" lon="5.79077">
        <ele>950</ele>
        <time>2015-02-15T07:59:59Z</time>
      </trkpt>
      <trkpt lat="45.3623" lon="5.79078">
        <ele>950</ele>
        <time>2015-02-15T08:00:01Z</time>
      </trkpt>
      <trkpt lat="45.36237" lon="5.79089">
        <ele>950</ele>
        <time>2015-02-15T08:00:09Z</time>
      </trkpt>
      <trkpt lat="45.36241" lon="5.79097">
        <ele>950</ele>
        <time>2015-02-15T08:00:16Z</time>
      </trkpt>
      <trkpt lat="45.36245" lon="5.79101">
        <ele>950</ele>
        <time>2015-02-15T08:00:20Z</time>
      </trkpt>
      <trkpt lat="45.36252" lon="5.79108">
        <ele>950</ele>
        <time>2015-02-15T08:00:28Z</time>
      </trkpt>
      <trkpt lat="45.36254" lon="5.7911">
        <ele>950</ele>
        <time>2015-02-15T08:00:30Z</time>
      </trkpt>
      <trkpt lat="45.36256" lon="5.79114">
        <ele>950</ele>
        <time>2015-02-15T08:00:33Z</time>
      </trkpt>
      <trkpt lat="45.36258" lon="5.79115">
        <ele>923</ele>
        <time>2015-02-15T08:00:35Z</time>
      </trkpt>
      <trkpt lat="45.36263" lon="5.79121">
        <ele>950</ele>
        <time>2015-02-15T08:00:42Z</time>
      </trkpt>
      <trkpt lat="45.36264" lon="5.79121">
        <ele>950</ele>
        <time>2015-02-15T08:00:44Z</time>
      </trkpt>
      <trkpt lat="45.36271" lon="5.79122">
        <ele>950</ele>
        <time>2015-02-15T08:00:53Z</time>
      </trkpt>
      <trkpt lat="45.36273" lon="5.79124">
        <ele>950</ele>
        <time>2015-02-15T08:00:56Z</time>
      </trkpt>
      <trkpt lat="45.36275" lon="5.79128">
        <ele>932</ele>
        <time>2015-02-15T08:00:59Z</time>
      </trkpt>
      <trkpt lat="45.36281" lon="5.79135">
        <ele>932</ele>
        <time>2015-02-15T08:01:07Z</time>
      </trkpt>
      <trkpt lat="45.36282" lon="5.79136">
        <ele>932</ele>
        <time>2015-02-15T08:01:08Z</time>
      </trkpt>
      <trkpt lat="45.36289" lon="5.79143">
        <ele>932</ele>
        <time>2015-02-15T08:01:17Z</time>
      </trkpt>
      <trkpt lat="45.36292" lon="5.79146">
        <ele>948</ele>
        <time>2015-02-15T08:01:24Z</time>
      </trkpt>
      <trkpt lat="45.36296" lon="5.79152">
        <ele>948</ele>
        <time>2015-02-15T08:01:29Z</time>
      </trkpt>
      <trkpt lat="45.36298" lon="5.79151">
        <ele>948</ele>
        <time>2015-02-15T08:01:33Z</time>
      </trkpt>
      <trkpt lat="45.36305" lon="5.79151">
        <ele>948</ele>
        <time>2015-02-15T08:01:41Z</time>
      </trkpt>
      <trkpt lat="45.3631" lon="5.79152">
        <ele>948</ele>
        <time>2015-02-15T08:01:48Z</time>
      </trkpt>
      <trkpt lat="45.36315" lon="5.79154">
        <ele>948</ele>
        <time>2015-02-15T08:01:55Z</time>
      </trkpt>
      <trkpt lat="45.36316" lon="5.79154">
        <ele>948</ele>
        <time>2015-02-15T08:01:56Z</time>
      </trkpt>
      <trkpt lat="45.36319" lon="5.79151">
        <ele>948</ele>
        <time>2015-02-15T08:01:59Z</time>
      </trkpt>
      <trkpt lat="45.36325" lon="5.79152">
        <ele>948</ele>
        <time>2015-02-15T08:02:07Z</time>
      </trkpt>
      <trkpt lat="45.36325" lon="5.7915">
        <ele>948</ele>
        <time>2015-02-15T08:02:09Z</time>
      </trkpt>
      <trkpt lat="45.3633" lon="5.79151">
        <ele>948</ele>
        <time>2015-02-15T08:02:18Z</time>
      </trkpt>
      <trkpt lat="45.36333" lon="5.79155">
        <ele>948</ele>
        <time>2015-02-15T08:02:26Z</time>
      </trkpt>
      <trkpt lat="45.36338" lon="5.79155">
        <ele>948</ele>
        <time>2015-02-15T08:02:32Z</time>
      </trkpt>
      <trkpt lat="45.36343" lon="5.79157">
        <ele>948</ele>
        <time>2015-02-15T08:02:39Z</time>
      </trkpt>
      <trkpt lat="45.36346" lon="5.79163">
        <ele>948</ele>
        <time>2015-02-15T08:02:46Z</time>
      </trkpt>
      <trkpt lat="45.36351" lon="5.79172">
        <ele>948</ele>
        <time>2015-02-15T08:02:52Z</time>
      </trkpt>
      <trkpt lat="45.36355" lon="5.79175">
        <ele>948</ele>
        <time>2015-02-15T08:02:59Z</time>
      </trkpt>
      <trkpt lat="45.36361" lon="5.79185">
        <ele>948</ele>
        <time>2015-02-15T08:03:07Z</time>
      </trkpt>
      <trkpt lat="45.36362" lon="5.79186">
        <ele>948</ele>
        <time>2015-02-15T08:03:09Z</time>
      </trkpt>
      <trkpt lat="45.36369" lon="5.79193">
        <ele>948</ele>
        <time>2015-02-15T08:03:16Z</time>
      </trkpt>
      <trkpt lat="45.36372" lon="5.79195">
        <ele>948</ele>
        <time>2015-02-15T08:03:21Z</time>
      </trkpt>
      <trkpt lat="45.36376" lon="5.79197">
        <ele>975</ele>
        <time>2015-02-15T08:03:24Z</time>
      </trkpt>
      <trkpt lat="45.36386" lon="5.79199">
        <ele>975</ele>
        <time>2015-02-15T08:03:33Z</time>
      </trkpt>
      <trkpt lat="45.36392" lon="5.79201">
        <ele>948</ele>
        <time>2015-02-15T08:03:40Z</time>
      </trkpt>
      <trkpt lat="45.36399" lon="5.79203">
        <ele>975</ele>
        <time>2015-02-15T08:03:47Z</time>
      </trkpt>
      <trkpt lat="45.364" lon="5.79203">
        <ele>975</ele>
        <time>2015-02-15T08:03:49Z</time>
      </trkpt>
      <trkpt lat="45.36406" lon="5.79205">
        <ele>975</ele>
        <time>2015-02-15T08:03:55Z</time>
      </trkpt>
      <trkpt lat="45.36413" lon="5.79204">
        <ele>975</ele>
        <time>2015-02-15T08:04:02Z</time>
      </trkpt>
      <trkpt lat="45.36417" lon="5.79204">
        <ele>975</ele>
        <time>2015-02-15T08:04:08Z</time>
      </trkpt>
      <trkpt lat="45.36422" lon="5.79208">
        <ele>975</ele>
        <time>2015-02-15T08:04:15Z</time>
      </trkpt>
      <trkpt lat="45.36427" lon="5.79214">
        <ele>964</ele>
        <time>2015-02-15T08:04:22Z</time>
      </trkpt>
      <trkpt lat="45.3643" lon="5.7922">
        <ele>964</ele>
        <time>2015-02-15T08:04:29Z</time>
      </trkpt>
      <trkpt lat="45.36434" lon="5.79223">
        <ele>964</ele>
        <time>2015-02-15T08:04:36Z</time>
      </trkpt>
      <trkpt lat="45.36437" lon="5.79222">
        <ele>964</ele>
        <time>2015-02-15T08:04:39Z</time>
      </trkpt>
      <trkpt lat="45.36443" lon="5.79227">
        <ele>964</ele>
        <time>2015-02-15T08:04:48Z</time>
      </trkpt>
      <trkpt lat="45.36448" lon="5.79232">
        <ele>964</ele>
        <time>2015-02-15T08:04:55Z</time>
      </trkpt>
      <trkpt lat="45.36454" lon="5.79238">
        <ele>964</ele>
        <time>2015-02-15T08:05:03Z</time>
      </trkpt>
      <trkpt lat="45.36455" lon="5.79241">
        <ele>964</ele>
        <time>2015-02-15T08:05:08Z</time>
      </trkpt>
      <trkpt lat="45.3646" lon="5.79246">
        <ele>978</ele>
        <time>2015-02-15T08:05:15Z</time>
      </trkpt>
      <trkpt lat="45.36463" lon="5.7925">
        <ele>978</ele>
        <time>2015-02-15T08:05:18Z</time>
      </trkpt>
      <trkpt lat="45.3647" lon="5.79258">
        <ele>978</ele>
        <time>2015-02-15T08:05:25Z</time>
      </trkpt>
      <trkpt lat="45.36477" lon="5.79269">
        <ele>978</ele>
        <time>2015-02-15T08:05:31Z</time>
      </trkpt>
      <trkpt lat="45.3648" lon="5.7928">
        <ele>978</ele>
        <time>2015-02-15T08:05:39Z</time>
      </trkpt>
      <trkpt lat="45.36482" lon="5.79287">
        <ele>978</ele>
        <time>2015-02-15T08:05:46Z</time>
      </trkpt>
      <trkpt lat="45.36488" lon="5.79292">
        <ele>970</ele>
        <time>2015-02-15T08:05:55Z</time>
      </trkpt>
      <trkpt lat="45.36492" lon="5.79296">
        <ele>970</ele>
        <time>2015-02-15T08:06:02Z</time>
      </trkpt>
      <trkpt lat="45.36495" lon="5.793">
        <ele>970</ele>
        <time>2015-02-15T08:06:09Z</time>
      </trkpt>
      <trkpt lat="45.36495" lon="5.79303">
        <ele>970</ele>
        <time>2015-02-15T08:06:13Z</time>
      </trkpt>
      <trkpt lat="45.36501" lon="5.79307">
        <ele>970</ele>
        <time>2015-02-15T08:06:21Z</time>
      </trkpt>
      <trkpt lat="45.36503" lon="5.79307">
        <ele>970</ele>
        <time>2015-02-15T08:06:23Z</time>
      </trkpt>
      <trkpt lat="45.36505" lon="5.7931">
        <ele>970</ele>
        <time>2015-02-15T08:06:26Z</time>
      </trkpt>
      <trkpt lat="45.36514" lon="5.79316">
        <ele>970</ele>
        <time>2015-02-15T08:06:35Z</time>
      </trkpt>
      <trkpt lat="45.3652" lon="5.79321">
        <ele>970</ele>
        <time>2015-02-15T08:06:41Z</time>
      </trkpt>
      <trkpt lat="45.36525" lon="5.79327">
        <ele>970</ele>
        <time>2015-02-15T08:06:48Z</time>
      </trkpt>
      <trkpt lat="45.36531" lon="5.79332">
        <ele>970</ele>
        <time>2015-02-15T08:06:55Z</time>
      </trkpt>
      <trkpt lat="45.36534" lon="5.79333">
        <ele>970</ele>
        <time>2015-02-15T08:07:00Z</time>
      </trkpt>
      <trkpt lat="45.36537" lon="5.79334">
        <ele>970</ele>
        <time>2015-02-15T08:07:03Z</time>
      </trkpt>
      <trkpt lat="45.36544" lon="5.79335">
        <ele>986</ele>
        <time>2015-02-15T08:07:12Z</time>
      </trkpt>
      <trkpt lat="45.36551" lon="5.79335">
        <ele>986</ele>
        <time>2015-02-15T08:07:19Z</time>
      </trkpt>
      <trkpt lat="45.36557" lon="5.7934">
        <ele>986</ele>
        <time>2015-02-15T08:07:25Z</time>
      </trkpt>
      <trkpt lat="45.36564" lon="5.79344">
        <ele>986</ele>
        <time>2015-02-15T08:07:32Z</time>
      </trkpt>
      <trkpt lat="45.36566" lon="5.79345">
        <ele>986</ele>
        <time>2015-02-15T08:07:34Z</time>
      </trkpt>
      <trkpt lat="45.36569" lon="5.79346">
        <ele>986</ele>
        <time>2015-02-15T08:07:37Z</time>
      </trkpt>
      <trkpt lat="45.36576" lon="5.79348">
        <ele>986</ele>
        <time>2015-02-15T08:07:44Z</time>
      </trkpt>
      <trkpt lat="45.36583" lon="5.79346">
        <ele>986</ele>
        <time>2015-02-15T08:07:50Z</time>
      </trkpt>
      <trkpt lat="45.36587" lon="5.79345">
        <ele>986</ele>
        <time>2015-02-15T08:07:53Z</time>
      </trkpt>
      <trkpt lat="45.36594" lon="5.79344">
        <ele>986</ele>
        <time>2015-02-15T08:07:59Z</time>
      </trkpt>
      <trkpt lat="45.36604" lon="5.79341">
        <ele>986</ele>
        <time>2015-02-15T08:08:07Z</time>
      </trkpt>
      <trkpt lat="45.36613" lon="5.79338">
        <ele>986</ele>
        <time>2015-02-15T08:08:15Z</time>
      </trkpt>
      <trkpt lat="45.36623" lon="5.79336">
        <ele>986</ele>
        <time>2015-02-15T08:08:24Z</time>
      </trkpt>
      <trkpt lat="45.36628" lon="5.79335">
        <ele>1006</ele>
        <time>2015-02-15T08:08:29Z</time>
      </trkpt>
      <trkpt lat="45.36637" lon="5.79334">
        <ele>1006</ele>
        <time>2015-02-15T08:08:38Z</time>
      </trkpt>
      <trkpt lat="45.36644" lon="5.79336">
        <ele>1006</ele>
        <time>2015-02-15T08:08:45Z</time>
      </trkpt>
      <trkpt lat="45.36649" lon="5.79336">
        <ele>1006</ele>
        <time>2015-02-15T08:08:52Z</time>
      </trkpt>
      <trkpt lat="45.36655" lon="5.79335">
        <ele>1006</ele>
        <time>2015-02-15T08:09:00Z</time>
      </trkpt>
      <trkpt lat="45.36656" lon="5.79335">
        <ele>1006</ele>
        <time>2015-02-15T08:09:01Z</time>
      </trkpt>
      <trkpt lat="45.36662" lon="5.79333">
        <ele>1006</ele>
        <time>2015-02-15T08:09:08Z</time>
      </trkpt>
      <trkpt lat="45.3667" lon="5.7933">
        <ele>1006</ele>
        <time>2015-02-15T08:09:17Z</time>
      </trkpt>
      <trkpt lat="45.36673" lon="5.79327">
        <ele>1006</ele>
        <time>2015-02-15T08:09:20Z</time>
      </trkpt>
      <trkpt lat="45.36681" lon="5.79321">
        <ele>1006</ele>
        <time>2015-02-15T08:09:28Z</time>
      </trkpt>
      <trkpt lat="45.36687" lon="5.79321">
        <ele>1006</ele>
        <time>2015-02-15T08:09:33Z</time>
      </trkpt>
      <trkpt lat="45.36693" lon="5.79319">
        <ele>1006</ele>
        <time>2015-02-15T08:09:40Z</time>
      </trkpt>
      <trkpt lat="45.36699" lon="5.7932">
        <ele>1006</ele>
        <time>2015-02-15T08:09:46Z</time>
      </trkpt>
      <trkpt lat="45.36705" lon="5.79321">
        <ele>1006</ele>
        <time>2015-02-15T08:09:53Z</time>
      </trkpt>
      <trkpt lat="45.36714" lon="5.79323">
        <ele>1026</ele>
        <time>2015-02-15T08:10:02Z</time>
      </trkpt>
      <trkpt lat="45.36718" lon="5.79324">
        <ele>1026</ele>
        <time>2015-02-15T08:10:08Z</time>
      </trkpt>
      <trkpt lat="45.36723" lon="5.79324">
        <ele>1026</ele>
        <time>2015-02-15T08:10:15Z</time>
      </trkpt>
      <trkpt lat="45.36728" lon="5.79325">
        <ele>1026</ele>
        <time>2015-02-15T08:10:22Z</time>
      </trkpt>
      <trkpt lat="45.36734" lon="5.79323">
        <ele>1026</ele>
        <time>2015-02-15T08:10:30Z</time>
      </trkpt>
      <trkpt lat="45.36739" lon="5.79323">
        <ele>1026</ele>
        <time>2015-02-15T08:10:36Z</time>
      </trkpt>
      <trkpt lat="45.36746" lon="5.79327">
        <ele>1026</ele>
        <time>2015-02-15T08:10:43Z</time>
      </trkpt>
      <trkpt lat="45.36752" lon="5.79329">
        <ele>1026</ele>
        <time>2015-02-15T08:10:52Z</time>
      </trkpt>
      <trkpt lat="45.36757" lon="5.79332">
        <ele>1026</ele>
        <time>2015-02-15T08:10:58Z</time>
      </trkpt>
      <trkpt lat="45.36763" lon="5.79332">
        <ele>1026</ele>
        <time>2015-02-15T08:11:04Z</time>
      </trkpt>
      <trkpt lat="45.36768" lon="5.79333">
        <ele>1026</ele>
        <time>2015-02-15T08:11:11Z</time>
      </trkpt>
      <trkpt lat="45.36773" lon="5.79334">
        <ele>1026</ele>
        <time>2015-02-15T08:11:18Z</time>
      </trkpt>
      <trkpt lat="45.3678" lon="5.79339">
        <ele>1026</ele>
        <time>2015-02-15T08:11:25Z</time>
      </trkpt>
      <trkpt lat="45.36785" lon="5.79341">
        <ele>1026</ele>
        <time>2015-02-15T08:11:32Z</time>
      </trkpt>
      <trkpt lat="45.36788" lon="5.79344">
        <ele>1026</ele>
        <time>2015-02-15T08:11:38Z</time>
      </trkpt>
      <trkpt lat="45.36793" lon="5.79347">
        <ele>1030</ele>
        <time>2015-02-15T08:11:45Z</time>
      </trkpt>
      <trkpt lat="45.36796" lon="5.79349">
        <ele>1030</ele>
        <time>2015-02-15T08:11:48Z</time>
      </trkpt>
      <trkpt lat="45.36802" lon="5.79355">
        <ele>1030</ele>
        <time>2015-02-15T08:11:56Z</time>
      </trkpt>
      <trkpt lat="45.36807" lon="5.7936">
        <ele>1030</ele>
        <time>2015-02-15T08:12:03Z</time>
      </trkpt>
      <trkpt lat="45.36811" lon="5.79363">
        <ele>1030</ele>
        <time>2015-02-15T08:12:07Z</time>
      </trkpt>
      <trkpt lat="45.36814" lon="5.79364">
        <ele>1030</ele>
        <time>2015-02-15T08:12:10Z</time>
      </trkpt>
      <trkpt lat="45.36821" lon="5.79367">
        <ele>1030</ele>
        <time>2015-02-15T08:12:17Z</time>
      </trkpt>
      <trkpt lat="45.36826" lon="5.79371">
        <ele>1030</ele>
        <time>2015-02-15T08:12:23Z</time>
      </trkpt>
      <trkpt lat="45.36834" lon="5.79373">
        <ele>1030</ele>
        <time>2015-02-15T08:12:31Z</time>
      </trkpt>
      <trkpt lat="45.36835" lon="5.79373">
        <ele>1030</ele>
        <time>2015-02-15T08:12:32Z</time>
      </trkpt>
      <trkpt lat="45.36841" lon="5.79375">
        <ele>1030</ele>
        <time>2015-02-15T08:12:39Z</time>
      </trkpt>
      <trkpt lat="45.36843" lon="5.79375">
        <ele>1049</ele>
        <time>2015-02-15T08:12:40Z</time>
      </trkpt>
      <trkpt lat="45.36848" lon="5.79376">
        <ele>1049</ele>
        <time>2015-02-15T08:12:44Z</time>
      </trkpt>
      <trkpt lat="45.36851" lon="5.79376">
        <ele>1049</ele>
        <time>2015-02-15T08:12:46Z</time>
      </trkpt>
      <trkpt lat="45.36858" lon="5.79376">
        <ele>1049</ele>
        <time>2015-02-15T08:12:53Z</time>
      </trkpt>
      <trkpt lat="45.36864" lon="5.79379">
        <ele>1049</ele>
        <time>2015-02-15T08:13:01Z</time>
      </trkpt>
      <trkpt lat="45.36868" lon="5.79378">
        <ele>1049</ele>
        <time>2015-02-15T08:13:09Z</time>
      </trkpt>
      <trkpt lat="45.36875" lon="5.79376">
        <ele>1049</ele>
        <time>2015-02-15T08:13:15Z</time>
      </trkpt>
      <trkpt lat="45.36881" lon="5.79374">
        <ele>1043</ele>
        <time>2015-02-15T08:13:21Z</time>
      </trkpt>
      <trkpt lat="45.36888" lon="5.79375">
        <ele>1043</ele>
        <time>2015-02-15T08:13:29Z</time>
      </trkpt>
      <trkpt lat="45.36897" lon="5.79376">
        <ele>1059</ele>
        <time>2015-02-15T08:13:37Z</time>
      </trkpt>
      <trkpt lat="45.36902" lon="5.79376">
        <ele>1059</ele>
        <time>2015-02-15T08:13:42Z</time>
      </trkpt>
      <trkpt lat="45.36907" lon="5.79375">
        <ele>1059</ele>
        <time>2015-02-15T08:13:48Z</time>
      </trkpt>
      <trkpt lat="45.36915" lon="5.79376">
        <ele>1059</ele>
        <time>2015-02-15T08:13:56Z</time>
      </trkpt>
      <trkpt lat="45.36924" lon="5.79374">
        <ele>1043</ele>
        <time>2015-02-15T08:14:05Z</time>
      </trkpt>
      <trkpt lat="45.36928" lon="5.79374">
        <ele>1043</ele>
        <time>2015-02-15T08:14:08Z</time>
      </trkpt>
      <trkpt lat="45.36934" lon="5.79374">
        <ele>1043</ele>
        <time>2015-02-15T08:14:14Z</time>
      </trkpt>
      <trkpt lat="45.3694" lon="5.79374">
        <ele>1043</ele>
        <time>2015-02-15T08:14:22Z</time>
      </trkpt>
      <trkpt lat="45.36946" lon="5.79373">
        <ele>1043</ele>
        <time>2015-02-15T08:14:30Z</time>
      </trkpt>
      <trkpt lat="45.36953" lon="5.79371">
        <ele>1043</ele>
        <time>2015-02-15T08:14:37Z</time>
      </trkpt>
      <trkpt lat="45.36954" lon="5.79371">
        <ele>1043</ele>
        <time>2015-02-15T08:14:38Z</time>
      </trkpt>
      <trkpt lat="45.36956" lon="5.79372">
        <ele>1043</ele>
        <time>2015-02-15T08:14:40Z</time>
      </trkpt>
      <trkpt lat="45.36963" lon="5.7937">
        <ele>1063</ele>
        <time>2015-02-15T08:14:48Z</time>
      </trkpt>
      <trkpt lat="45.3697" lon="5.79366">
        <ele>1063</ele>
        <time>2015-02-15T08:14:55Z</time>
      </trkpt>
      <trkpt lat="45.36978" lon="5.7936">
        <ele>1063</ele>
        <time>2015-02-15T08:15:03Z</time>
      </trkpt>
      <trkpt lat="45.3698" lon="5.79358">
        <ele>1063</ele>
        <time>2015-02-15T08:15:05Z</time>
      </trkpt>
      <trkpt lat="45.36986" lon="5.79352">
        <ele>1063</ele>
        <time>2015-02-15T08:15:12Z</time>
      </trkpt>
      <trkpt lat="45.36994" lon="5.79348">
        <ele>1063</ele>
        <time>2015-02-15T08:15:20Z</time>
      </trkpt>
      <trkpt lat="45.37001" lon="5.79346">
        <ele>1063</ele>
        <time>2015-02-15T08:15:27Z</time>
      </trkpt>
      <trkpt lat="45.37004" lon="5.79342">
        <ele>1063</ele>
        <time>2015-02-15T08:15:33Z</time>
      </trkpt>
      <trkpt lat="45.37007" lon="5.79342">
        <ele>1063</ele>
        <time>2015-02-15T08:15:36Z</time>
      </trkpt>
      <trkpt lat="45.37012" lon="5.7934">
        <ele>1063</ele>
        <time>2015-02-15T08:15:43Z</time>
      </trkpt>
      <trkpt lat="45.37017" lon="5.79338">
        <ele>1063</ele>
        <time>2015-02-15T08:15:49Z</time>
      </trkpt>
      <trkpt lat="45.37025" lon="5.79338">
        <ele>1063</ele>
        <time>2015-02-15T08:15:56Z</time>
      </trkpt>
      <trkpt lat="45.37032" lon="5.79338">
        <ele>1063</ele>
        <time>2015-02-15T08:16:03Z</time>
      </trkpt>
      <trkpt lat="45.37038" lon="5.79337">
        <ele>1063</ele>
        <time>2015-02-15T08:16:10Z</time>
      </trkpt>
      <trkpt lat="45.37044" lon="5.79332">
        <ele>1089</ele>
        <time>2015-02-15T08:16:18Z</time>
      </trkpt>
      <trkpt lat="45.3705" lon="5.79328">
        <ele>1089</ele>
        <time>2015-02-15T08:16:25Z</time>
      </trkpt>
      <trkpt lat="45.37054" lon="5.79326">
        <ele>1089</ele>
        <time>2015-02-15T08:16:31Z</time>
      </trkpt>
      <trkpt lat="45.37061" lon="5.79322">
        <ele>1089</ele>
        <time>2015-02-15T08:16:39Z</time>
      </trkpt>
      <trkpt lat="45.37062" lon="5.7932">
        <ele>1089</ele>
        <time>2015-02-15T08:16:42Z</time>
      </trkpt>
      <trkpt lat="45.37067" lon="5.79312">
        <ele>1089</ele>
        <time>2015-02-15T08:16:51Z</time>
      </trkpt>
      <trkpt lat="45.37073" lon="5.79304">
        <ele>1089</ele>
        <time>2015-02-15T08:16:59Z</time>
      </trkpt>
      <trkpt lat="45.3708" lon="5.79299">
        <ele>1089</ele>
        <time>2015-02-15T08:17:07Z</time>
      </trkpt>
      <trkpt lat="45.37087" lon="5.79299">
        <ele>1089</ele>
        <time>2015-02-15T08:17:14Z</time>
      </trkpt>
      <trkpt lat="45.37087" lon="5.79299">
        <ele>1089</ele>
        <time>2015-02-15T08:17:15Z</time>
      </trkpt>
      <trkpt lat="45.3709" lon="5.79298">
        <ele>1089</ele>
        <time>2015-02-15T08:17:18Z</time>
      </trkpt>
      <trkpt lat="45.37097" lon="5.79298">
        <ele>1089</ele>
        <time>2015-02-15T08:17:26Z</time>
      </trkpt>
      <trkpt lat="45.371" lon="5.79298">
        <ele>1089</ele>
        <time>2015-02-15T08:17:29Z</time>
      </trkpt>
      <trkpt lat="45.37107" lon="5.79297">
        <ele>1089</ele>
        <time>2015-02-15T08:17:36Z</time>
      </trkpt>
      <trkpt lat="45.37113" lon="5.79296">
        <ele>1089</ele>
        <time>2015-02-15T08:17:43Z</time>
      </trkpt>
      <trkpt lat="45.3712" lon="5.79293">
        <ele>1089</ele>
        <time>2015-02-15T08:17:49Z</time>
      </trkpt>
      <trkpt lat="45.37128" lon="5.7929">
        <ele>1111</ele>
        <time>2015-02-15T08:17:57Z</time>
      </trkpt>
      <trkpt lat="45.3713" lon="5.79289">
        <ele>1111</ele>
        <time>2015-02-15T08:18:00Z</time>
      </trkpt>
      <trkpt lat="45.37132" lon="5.79288">
        <ele>1111</ele>
        <time>2015-02-15T08:18:02Z</time>
      </trkpt>
      <trkpt lat="45.37141" lon="5.7929">
        <ele>1111</ele>
        <time>2015-02-15T08:18:11Z</time>
      </trkpt>
      <trkpt lat="45.37146" lon="5.79294">
        <ele>1105</ele>
        <time>2015-02-15T08:18:18Z</time>
      </trkpt>
      <trkpt lat="45.37153" lon="5.79298">
        <ele>1105</ele>
        <time>2015-02-15T08:18:25Z</time>
      </trkpt>
      <trkpt lat="45.37154" lon="5.79298">
        <ele>1105</ele>
        <time>2015-02-15T08:18:26Z</time>
      </trkpt>
      <trkpt lat="45.37161" lon="5.79299">
        <ele>1105</ele>
        <time>2015-02-15T08:18:34Z</time>
      </trkpt>
      <trkpt lat="45.37168" lon="5.79298">
        <ele>1105</ele>
        <time>2015-02-15T08:18:42Z</time>
      </trkpt>
      <trkpt lat="45.37175" lon="5.793">
        <ele>1105</ele>
        <time>2015-02-15T08:18:50Z</time>
      </trkpt>
      <trkpt lat="45.37185" lon="5.79303">
        <ele>1105</ele>
        <time>2015-02-15T08:18:59Z</time>
      </trkpt>
      <trkpt lat="45.37188" lon="5.79302">
        <ele>1105</ele>
        <time>2015-02-15T08:19:02Z</time>
      </trkpt>
      <trkpt lat="45.37194" lon="5.79302">
        <ele>1105</ele>
        <time>2015-02-15T08:19:09Z</time>
      </trkpt>
      <trkpt lat="45.372" lon="5.79303">
        <ele>1105</ele>
        <time>2015-02-15T08:19:16Z</time>
      </trkpt>
      <trkpt lat="45.37202" lon="5.79303">
        <ele>1105</ele>
        <time>2015-02-15T08:19:19Z</time>
      </trkpt>
      <trkpt lat="45.37209" lon="5.79305">
        <ele>1114</ele>
        <time>2015-02-15T08:19:27Z</time>
      </trkpt>
      <trkpt lat="45.37214" lon="5.79308">
        <ele>1114</ele>
        <time>2015-02-15T08:19:33Z</time>
      </trkpt>
      <trkpt lat="45.37217" lon="5.7931">
        <ele>1114</ele>
        <time>2015-02-15T08:19:36Z</time>
      </trkpt>
      <trkpt lat="45.37221" lon="5.79315">
        <ele>1114</ele>
        <time>2015-02-15T08:19:42Z</time>
      </trkpt>
      <trkpt lat="45.37227" lon="5.79316">
        <ele>1114</ele>
        <time>2015-02-15T08:19:49Z</time>
      </trkpt>
      <trkpt lat="45.37231" lon="5.7932">
        <ele>1114</ele>
        <time>2015-02-15T08:19:56Z</time>
      </trkpt>
      <trkpt lat="45.37237" lon="5.79321">
        <ele>1097</ele>
        <time>2015-02-15T08:20:03Z</time>
      </trkpt>
      <trkpt lat="45.37241" lon="5.79325">
        <ele>1114</ele>
        <time>2015-02-15T08:20:09Z</time>
      </trkpt>
      <trkpt lat="45.37246" lon="5.79328">
        <ele>1114</ele>
        <time>2015-02-15T08:20:16Z</time>
      </trkpt>
      <trkpt lat="45.37253" lon="5.79329">
        <ele>1114</ele>
        <time>2015-02-15T08:20:24Z</time>
      </trkpt>
      <trkpt lat="45.37257" lon="5.79328">
        <ele>1114</ele>
        <time>2015-02-15T08:20:27Z</time>
      </trkpt>
      <trkpt lat="45.3726" lon="5.79337">
        <ele>1114</ele>
        <time>2015-02-15T08:20:34Z</time>
      </trkpt>
      <trkpt lat="45.37263" lon="5.79347">
        <ele>1114</ele>
        <time>2015-02-15T08:20:41Z</time>
      </trkpt>
      <trkpt lat="45.37267" lon="5.79353">
        <ele>1114</ele>
        <time>2015-02-15T08:20:48Z</time>
      </trkpt>
      <trkpt lat="45.37268" lon="5.79357">
        <ele>1114</ele>
        <time>2015-02-15T08:20:51Z</time>
      </trkpt>
      <trkpt lat="45.37273" lon="5.79366">
        <ele>1114</ele>
        <time>2015-02-15T08:21:00Z</time>
      </trkpt>
      <trkpt lat="45.37278" lon="5.79372">
        <ele>1114</ele>
        <time>2015-02-15T08:21:07Z</time>
      </trkpt>
      <trkpt lat="45.37282" lon="5.79379">
        <ele>1129</ele>
        <time>2015-02-15T08:21:14Z</time>
      </trkpt>
      <trkpt lat="45.37288" lon="5.79386">
        <ele>1129</ele>
        <time>2015-02-15T08:21:21Z</time>
      </trkpt>
      <trkpt lat="45.37291" lon="5.79393">
        <ele>1129</ele>
        <time>2015-02-15T08:21:28Z</time>
      </trkpt>
      <trkpt lat="45.37297" lon="5.79399">
        <ele>1140</ele>
        <time>2015-02-15T08:21:35Z</time>
      </trkpt>
      <trkpt lat="45.37301" lon="5.79405">
        <ele>1140</ele>
        <time>2015-02-15T08:21:42Z</time>
      </trkpt>
      <trkpt lat="45.37305" lon="5.79411">
        <ele>1140</ele>
        <time>2015-02-15T08:21:47Z</time>
      </trkpt>
      <trkpt lat="45.3731" lon="5.79418">
        <ele>1140</ele>
        <time>2015-02-15T08:21:54Z</time>
      </trkpt>
      <trkpt lat="45.37314" lon="5.79426">
        <ele>1140</ele>
        <time>2015-02-15T08:22:02Z</time>
      </trkpt>
      <trkpt lat="45.37318" lon="5.79433">
        <ele>1140</ele>
        <time>2015-02-15T08:22:09Z</time>
      </trkpt>
      <trkpt lat="45.37322" lon="5.79441">
        <ele>1140</ele>
        <time>2015-02-15T08:22:16Z</time>
      </trkpt>
      <trkpt lat="45.37326" lon="5.79446">
        <ele>1140</ele>
        <time>2015-02-15T08:22:23Z</time>
      </trkpt>
      <trkpt lat="45.3733" lon="5.79449">
        <ele>1140</ele>
        <time>2015-02-15T08:22:28Z</time>
      </trkpt>
      <trkpt lat="45.37336" lon="5.79453">
        <ele>1140</ele>
        <time>2015-02-15T08:22:36Z</time>
      </trkpt>
      <trkpt lat="45.37342" lon="5.79458">
        <ele>1122</ele>
        <time>2015-02-15T08:22:43Z</time>
      </trkpt>
      <trkpt lat="45.3735" lon="5.79462">
        <ele>1149</ele>
        <time>2015-02-15T08:22:52Z</time>
      </trkpt>
      <trkpt lat="45.37356" lon="5.79465">
        <ele>1149</ele>
        <time>2015-02-15T08:22:59Z</time>
      </trkpt>
      <trkpt lat="45.37361" lon="5.79466">
        <ele>1149</ele>
        <time>2015-02-15T08:23:04Z</time>
      </trkpt>
      <trkpt lat="45.37365" lon="5.79468">
        <ele>1149</ele>
        <time>2015-02-15T08:23:08Z</time>
      </trkpt>
      <trkpt lat="45.37372" lon="5.79474">
        <ele>1149</ele>
        <time>2015-02-15T08:23:15Z</time>
      </trkpt>
      <trkpt lat="45.37374" lon="5.79475">
        <ele>1149</ele>
        <time>2015-02-15T08:23:18Z</time>
      </trkpt>
      <trkpt lat="45.37374" lon="5.79475">
        <ele>1149</ele>
        <time>2015-02-15T08:23:19Z</time>
      </trkpt>
      <trkpt lat="45.37377" lon="5.79476">
        <ele>1153</ele>
        <time>2015-02-15T08:23:22Z</time>
      </trkpt>
      <trkpt lat="45.37383" lon="5.7948">
        <ele>1153</ele>
        <time>2015-02-15T08:23:29Z</time>
      </trkpt>
      <trkpt lat="45.37385" lon="5.79481">
        <ele>1153</ele>
        <time>2015-02-15T08:23:31Z</time>
      </trkpt>
      <trkpt lat="45.37393" lon="5.79486">
        <ele>1153</ele>
        <time>2015-02-15T08:23:40Z</time>
      </trkpt>
      <trkpt lat="45.37396" lon="5.79488">
        <ele>1153</ele>
        <time>2015-02-15T08:23:44Z</time>
      </trkpt>
      <trkpt lat="45.37399" lon="5.7949">
        <ele>1153</ele>
        <time>2015-02-15T08:23:47Z</time>
      </trkpt>
      <trkpt lat="45.37405" lon="5.79494">
        <ele>1153</ele>
        <time>2015-02-15T08:23:53Z</time>
      </trkpt>
      <trkpt lat="45.37406" lon="5.79495">
        <ele>1153</ele>
        <time>2015-02-15T08:23:54Z</time>
      </trkpt>
      <trkpt lat="45.37414" lon="5.79499">
        <ele>1153</ele>
        <time>2015-02-15T08:24:02Z</time>
      </trkpt>
      <trkpt lat="45.37417" lon="5.795">
        <ele>1153</ele>
        <time>2015-02-15T08:24:06Z</time>
      </trkpt>
      <trkpt lat="45.37421" lon="5.79501">
        <ele>1153</ele>
        <time>2015-02-15T08:24:09Z</time>
      </trkpt>
      <trkpt lat="45.37428" lon="5.79503">
        <ele>1153</ele>
        <time>2015-02-15T08:24:16Z</time>
      </trkpt>
      <trkpt lat="45.37434" lon="5.79505">
        <ele>1153</ele>
        <time>2015-02-15T08:24:22Z</time>
      </trkpt>
      <trkpt lat="45.37436" lon="5.79506">
        <ele>1153</ele>
        <time>2015-02-15T08:24:24Z</time>
      </trkpt>
      <trkpt lat="45.37438" lon="5.79508">
        <ele>1153</ele>
        <time>2015-02-15T08:24:27Z</time>
      </trkpt>
      <trkpt lat="45.37445" lon="5.79515">
        <ele>1153</ele>
        <time>2015-02-15T08:24:35Z</time>
      </trkpt>
      <trkpt lat="45.37452" lon="5.79522">
        <ele>1153</ele>
        <time>2015-02-15T08:24:41Z</time>
      </trkpt>
      <trkpt lat="45.37457" lon="5.79525">
        <ele>1153</ele>
        <time>2015-02-15T08:24:46Z</time>
      </trkpt>
      <trkpt lat="45.37463" lon="5.79529">
        <ele>1163</ele>
        <time>2015-02-15T08:24:53Z</time>
      </trkpt>
      <trkpt lat="45.37469" lon="5.79532">
        <ele>1163</ele>
        <time>2015-02-15T08:24:59Z</time>
      </trkpt>
      <trkpt lat="45.37475" lon="5.79536">
        <ele>1163</ele>
        <time>2015-02-15T08:25:07Z</time>
      </trkpt>
      <trkpt lat="45.37476" lon="5.79537">
        <ele>1163</ele>
        <time>2015-02-15T08:25:09Z</time>
      </trkpt>
      <trkpt lat="45.37483" lon="5.79543">
        <ele>1164</ele>
        <time>2015-02-15T08:25:16Z</time>
      </trkpt>
      <trkpt lat="45.3749" lon="5.79548">
        <ele>1164</ele>
        <time>2015-02-15T08:25:23Z</time>
      </trkpt>
      <trkpt lat="45.37495" lon="5.79551">
        <ele>1164</ele>
        <time>2015-02-15T08:25:28Z</time>
      </trkpt>
      <trkpt lat="45.37497" lon="5.79552">
        <ele>1164</ele>
        <time>2015-02-15T08:25:31Z</time>
      </trkpt>
      <trkpt lat="45.37501" lon="5.79554">
        <ele>1164</ele>
        <time>2015-02-15T08:25:35Z</time>
      </trkpt>
      <trkpt lat="45.37509" lon="5.79558">
        <ele>1164</ele>
        <time>2015-02-15T08:25:42Z</time>
      </trkpt>
      <trkpt lat="45.37516" lon="5.79564">
        <ele>1164</ele>
        <time>2015-02-15T08:25:49Z</time>
      </trkpt>
      <trkpt lat="45.37522" lon="5.79567">
        <ele>1164</ele>
        <time>2015-02-15T08:25:56Z</time>
      </trkpt>
      <trkpt lat="45.37525" lon="5.79569">
        <ele>1164</ele>
        <time>2015-02-15T08:26:00Z</time>
      </trkpt>
      <trkpt lat="45.3753" lon="5.79572">
        <ele>1164</ele>
        <time>2015-02-15T08:26:07Z</time>
      </trkpt>
      <trkpt lat="45.37534" lon="5.7958">
        <ele>1164</ele>
        <time>2015-02-15T08:26:14Z</time>
      </trkpt>
      <trkpt lat="45.37536" lon="5.79586">
        <ele>1164</ele>
        <time>2015-02-15T08:26:21Z</time>
      </trkpt>
      <trkpt lat="45.37536" lon="5.79586">
        <ele>1164</ele>
        <time>2015-02-15T08:26:29Z</time>
      </trkpt>
      <trkpt lat="45.37538" lon="5.79593">
        <ele>1164</ele>
        <time>2015-02-15T08:26:37Z</time>
      </trkpt>
      <trkpt lat="45.37539" lon="5.79598">
        <ele>1164</ele>
        <time>2015-02-15T08:26:44Z</time>
      </trkpt>
      <trkpt lat="45.37539" lon="5.796">
        <ele>1164</ele>
        <time>2015-02-15T08:26:49Z</time>
      </trkpt>
      <trkpt lat="45.3754" lon="5.7961">
        <ele>1164</ele>
        <time>2015-02-15T08:26:59Z</time>
      </trkpt>
      <trkpt lat="45.37543" lon="5.79615">
        <ele>1171</ele>
        <time>2015-02-15T08:27:05Z</time>
      </trkpt>
      <trkpt lat="45.37544" lon="5.79621">
        <ele>1171</ele>
        <time>2015-02-15T08:27:12Z</time>
      </trkpt>
      <trkpt lat="45.37546" lon="5.79629">
        <ele>1181</ele>
        <time>2015-02-15T08:27:20Z</time>
      </trkpt>
      <trkpt lat="45.37549" lon="5.79636">
        <ele>1181</ele>
        <time>2015-02-15T08:27:28Z</time>
      </trkpt>
      <trkpt lat="45.3755" lon="5.79643">
        <ele>1181</ele>
        <time>2015-02-15T08:27:35Z</time>
      </trkpt>
      <trkpt lat="45.37552" lon="5.79645">
        <ele>1181</ele>
        <time>2015-02-15T08:27:37Z</time>
      </trkpt>
      <trkpt lat="45.37554" lon="5.79649">
        <ele>1181</ele>
        <time>2015-02-15T08:27:41Z</time>
      </trkpt>
      <trkpt lat="45.37555" lon="5.79658">
        <ele>1181</ele>
        <time>2015-02-15T08:27:51Z</time>
      </trkpt>
      <trkpt lat="45.37555" lon="5.79665">
        <ele>1181</ele>
        <time>2015-02-15T08:27:59Z</time>
      </trkpt>
      <trkpt lat="45.37554" lon="5.79669">
        <ele>1181</ele>
        <time>2015-02-15T08:28:05Z</time>
      </trkpt>
      <trkpt lat="45.37557" lon="5.79676">
        <ele>1181</ele>
        <time>2015-02-15T08:28:13Z</time>
      </trkpt>
      <trkpt lat="45.37559" lon="5.79687">
        <ele>1181</ele>
        <time>2015-02-15T08:28:23Z</time>
      </trkpt>
      <trkpt lat="45.37561" lon="5.79692">
        <ele>1181</ele>
        <time>2015-02-15T08:28:30Z</time>
      </trkpt>
      <trkpt lat="45.37563" lon="5.79697">
        <ele>1181</ele>
        <time>2015-02-15T08:28:38Z</time>
      </trkpt>
      <trkpt lat="45.37567" lon="5.79702">
        <ele>1181</ele>
        <time>2015-02-15T08:28:46Z</time>
      </trkpt>
      <trkpt lat="45.37573" lon="5.79709">
        <ele>1200</ele>
        <time>2015-02-15T08:28:55Z</time>
      </trkpt>
      <trkpt lat="45.37578" lon="5.79716">
        <ele>1200</ele>
        <time>2015-02-15T08:29:03Z</time>
      </trkpt>
      <trkpt lat="45.37579" lon="5.79717">
        <ele>1200</ele>
        <time>2015-02-15T08:29:04Z</time>
      </trkpt>
      <trkpt lat="45.37584" lon="5.79722">
        <ele>1200</ele>
        <time>2015-02-15T08:29:13Z</time>
      </trkpt>
      <trkpt lat="45.37589" lon="5.79725">
        <ele>1200</ele>
        <time>2015-02-15T08:29:20Z</time>
      </trkpt>
      <trkpt lat="45.37595" lon="5.79733">
        <ele>1200</ele>
        <time>2015-02-15T08:29:29Z</time>
      </trkpt>
      <trkpt lat="45.37601" lon="5.79739">
        <ele>1200</ele>
        <time>2015-02-15T08:29:38Z</time>
      </trkpt>
      <trkpt lat="45.37605" lon="5.79747">
        <ele>1200</ele>
        <time>2015-02-15T08:29:46Z</time>
      </trkpt>
      <trkpt lat="45.37611" lon="5.79757">
        <ele>1200</ele>
        <time>2015-02-15T08:29:57Z</time>
      </trkpt>
      <trkpt lat="45.37614" lon="5.79763">
        <ele>1200</ele>
        <time>2015-02-15T08:30:04Z</time>
      </trkpt>
      <trkpt lat="45.37617" lon="5.79768">
        <ele>1200</ele>
        <time>2015-02-15T08:30:11Z</time>
      </trkpt>
      <trkpt lat="45.37615" lon="5.79774">
        <ele>1200</ele>
        <time>2015-02-15T08:30:18Z</time>
      </trkpt>
      <trkpt lat="45.37613" lon="5.7978">
        <ele>1200</ele>
        <time>2015-02-15T08:30:25Z</time>
      </trkpt>
      <trkpt lat="45.37612" lon="5.79786">
        <ele>1200</ele>
        <time>2015-02-15T08:30:32Z</time>
      </trkpt>
      <trkpt lat="45.37613" lon="5.79792">
        <ele>1200</ele>
        <time>2015-02-15T08:30:38Z</time>
      </trkpt>
      <trkpt lat="45.37615" lon="5.79796">
        <ele>1227</ele>
        <time>2015-02-15T08:30:44Z</time>
      </trkpt>
      <trkpt lat="45.37618" lon="5.79803">
        <ele>1227</ele>
        <time>2015-02-15T08:30:51Z</time>
      </trkpt>
      <trkpt lat="45.37619" lon="5.79806">
        <ele>1227</ele>
        <time>2015-02-15T08:30:56Z</time>
      </trkpt>
      <trkpt lat="45.37623" lon="5.79814">
        <ele>1227</ele>
        <time>2015-02-15T08:31:02Z</time>
      </trkpt>
      <trkpt lat="45.37627" lon="5.79822">
        <ele>1214</ele>
        <time>2015-02-15T08:31:10Z</time>
      </trkpt>
      <trkpt lat="45.3763" lon="5.79829">
        <ele>1214</ele>
        <time>2015-02-15T08:31:19Z</time>
      </trkpt>
      <trkpt lat="45.37635" lon="5.7984">
        <ele>1214</ele>
        <time>2015-02-15T08:31:27Z</time>
      </trkpt>
      <trkpt lat="45.37637" lon="5.79847">
        <ele>1214</ele>
        <time>2015-02-15T08:31:34Z</time>
      </trkpt>
      <trkpt lat="45.37643" lon="5.79855">
        <ele>1214</ele>
        <time>2015-02-15T08:31:42Z</time>
      </trkpt>
      <trkpt lat="45.37648" lon="5.7986">
        <ele>1214</ele>
        <time>2015-02-15T08:31:49Z</time>
      </trkpt>
      <trkpt lat="45.37653" lon="5.79865">
        <ele>1214</ele>
        <time>2015-02-15T08:31:55Z</time>
      </trkpt>
      <trkpt lat="45.3766" lon="5.79869">
        <ele>1214</ele>
        <time>2015-02-15T08:32:02Z</time>
      </trkpt>
      <trkpt lat="45.37667" lon="5.79871">
        <ele>1214</ele>
        <time>2015-02-15T08:32:10Z</time>
      </trkpt>
      <trkpt lat="45.37675" lon="5.79874">
        <ele>1214</ele>
        <time>2015-02-15T08:32:17Z</time>
      </trkpt>
      <trkpt lat="45.37679" lon="5.79877">
        <ele>1237</ele>
        <time>2015-02-15T08:32:23Z</time>
      </trkpt>
      <trkpt lat="45.37686" lon="5.79884">
        <ele>1209</ele>
        <time>2015-02-15T08:32:32Z</time>
      </trkpt>
      <trkpt lat="45.37691" lon="5.7989">
        <ele>1237</ele>
        <time>2015-02-15T08:32:41Z</time>
      </trkpt>
      <trkpt lat="45.37692" lon="5.79891">
        <ele>1237</ele>
        <time>2015-02-15T08:32:42Z</time>
      </trkpt>
      <trkpt lat="45.37695" lon="5.79893">
        <ele>1237</ele>
        <time>2015-02-15T08:32:45Z</time>
      </trkpt>
      <trkpt lat="45.37702" lon="5.799">
        <ele>1237</ele>
        <time>2015-02-15T08:32:54Z</time>
      </trkpt>
      <trkpt lat="45.37705" lon="5.79908">
        <ele>1237</ele>
        <time>2015-02-15T08:33:01Z</time>
      </trkpt>
      <trkpt lat="45.37706" lon="5.79908">
        <ele>1237</ele>
        <time>2015-02-15T08:33:05Z</time>
      </trkpt>
      <trkpt lat="45.37709" lon="5.79911">
        <ele>1234</ele>
        <time>2015-02-15T08:33:10Z</time>
      </trkpt>
      <trkpt lat="45.37716" lon="5.79916">
        <ele>1234</ele>
        <time>2015-02-15T08:33:19Z</time>
      </trkpt>
      <trkpt lat="45.37722" lon="5.79923">
        <ele>1234</ele>
        <time>2015-02-15T08:33:26Z</time>
      </trkpt>
      <trkpt lat="45.37727" lon="5.7993">
        <ele>1234</ele>
        <time>2015-02-15T08:33:32Z</time>
      </trkpt>
      <trkpt lat="45.37729" lon="5.79922">
        <ele>1234</ele>
        <time>2015-02-15T08:33:39Z</time>
      </trkpt>
      <trkpt lat="45.37734" lon="5.79926">
        <ele>1234</ele>
        <time>2015-02-15T08:33:46Z</time>
      </trkpt>
      <trkpt lat="45.37741" lon="5.79931">
        <ele>1234</ele>
        <time>2015-02-15T08:33:55Z</time>
      </trkpt>
      <trkpt lat="45.37749" lon="5.79931">
        <ele>1234</ele>
        <time>2015-02-15T08:34:03Z</time>
      </trkpt>
      <trkpt lat="45.37757" lon="5.79932">
        <ele>1234</ele>
        <time>2015-02-15T08:34:12Z</time>
      </trkpt>
      <trkpt lat="45.37762" lon="5.79933">
        <ele>1234</ele>
        <time>2015-02-15T08:34:19Z</time>
      </trkpt>
      <trkpt lat="45.37773" lon="5.79937">
        <ele>1234</ele>
        <time>2015-02-15T08:34:29Z</time>
      </trkpt>
      <trkpt lat="45.37782" lon="5.79942">
        <ele>1234</ele>
        <time>2015-02-15T08:34:38Z</time>
      </trkpt>
      <trkpt lat="45.37788" lon="5.79944">
        <ele>1234</ele>
        <time>2015-02-15T08:34:46Z</time>
      </trkpt>
      <trkpt lat="45.37789" lon="5.79944">
        <ele>1234</ele>
        <time>2015-02-15T08:34:47Z</time>
      </trkpt>
      <trkpt lat="45.3779" lon="5.79945">
        <ele>1234</ele>
        <time>2015-02-15T08:34:50Z</time>
      </trkpt>
      <trkpt lat="45.37796" lon="5.79948">
        <ele>1232</ele>
        <time>2015-02-15T08:34:58Z</time>
      </trkpt>
      <trkpt lat="45.37799" lon="5.7995">
        <ele>1232</ele>
        <time>2015-02-15T08:35:00Z</time>
      </trkpt>
      <trkpt lat="45.37805" lon="5.79952">
        <ele>1232</ele>
        <time>2015-02-15T08:35:05Z</time>
      </trkpt>
      <trkpt lat="45.37809" lon="5.79955">
        <ele>1232</ele>
        <time>2015-02-15T08:35:10Z</time>
      </trkpt>
      <trkpt lat="45.37817" lon="5.79957">
        <ele>1232</ele>
        <time>2015-02-15T08:35:19Z</time>
      </trkpt>
      <trkpt lat="45.37823" lon="5.79958">
        <ele>1232</ele>
        <time>2015-02-15T08:35:27Z</time>
      </trkpt>
      <trkpt lat="45.37828" lon="5.79955">
        <ele>1232</ele>
        <time>2015-02-15T08:35:35Z</time>
      </trkpt>
      <trkpt lat="45.37838" lon="5.7996">
        <ele>1262</ele>
        <time>2015-02-15T08:35:44Z</time>
      </trkpt>
      <trkpt lat="45.37847" lon="5.79961">
        <ele>1262</ele>
        <time>2015-02-15T08:35:52Z</time>
      </trkpt>
      <trkpt lat="45.37852" lon="5.79962">
        <ele>1262</ele>
        <time>2015-02-15T08:35:57Z</time>
      </trkpt>
      <trkpt lat="45.3786" lon="5.79966">
        <ele>1262</ele>
        <time>2015-02-15T08:36:06Z</time>
      </trkpt>
      <trkpt lat="45.37863" lon="5.79971">
        <ele>1262</ele>
        <time>2015-02-15T08:36:11Z</time>
      </trkpt>
      <trkpt lat="45.37869" lon="5.7998">
        <ele>1262</ele>
        <time>2015-02-15T08:36:20Z</time>
      </trkpt>
      <trkpt lat="45.37873" lon="5.79987">
        <ele>1262</ele>
        <time>2015-02-15T08:36:27Z</time>
      </trkpt>
      <trkpt lat="45.37878" lon="5.79993">
        <ele>1258</ele>
        <time>2015-02-15T08:36:35Z</time>
      </trkpt>
      <trkpt lat="45.37883" lon="5.79998">
        <ele>1258</ele>
        <time>2015-02-15T08:36:42Z</time>
      </trkpt>
      <trkpt lat="45.37889" lon="5.80004">
        <ele>1258</ele>
        <time>2015-02-15T08:36:50Z</time>
      </trkpt>
      <trkpt lat="45.37896" lon="5.80008">
        <ele>1258</ele>
        <time>2015-02-15T08:36:59Z</time>
      </trkpt>
      <trkpt lat="45.37904" lon="5.80013">
        <ele>1258</ele>
        <time>2015-02-15T08:37:07Z</time>
      </trkpt>
      <trkpt lat="45.37913" lon="5.80018">
        <ele>1258</ele>
        <time>2015-02-15T08:37:16Z</time>
      </trkpt>
      <trkpt lat="45.37918" lon="5.80025">
        <ele>1258</ele>
        <time>2015-02-15T08:37:25Z</time>
      </trkpt>
      <trkpt lat="45.37921" lon="5.80029">
        <ele>1258</ele>
        <time>2015-02-15T08:37:30Z</time>
      </trkpt>
      <trkpt lat="45.37926" lon="5.80033">
        <ele>1258</ele>
        <time>2015-02-15T08:37:37Z</time>
      </trkpt>
      <trkpt lat="45.37933" lon="5.80037">
        <ele>1258</ele>
        <time>2015-02-15T08:37:45Z</time>
      </trkpt>
      <trkpt lat="45.37942" lon="5.8004">
        <ele>1258</ele>
        <time>2015-02-15T08:37:53Z</time>
      </trkpt>
      <trkpt lat="45.37948" lon="5.80048">
        <ele>1280</ele>
        <time>2015-02-15T08:38:02Z</time>
      </trkpt>
      <trkpt lat="45.37951" lon="5.80052">
        <ele>1280</ele>
        <time>2015-02-15T08:38:09Z</time>
      </trkpt>
      <trkpt lat="45.37951" lon="5.80056">
        <ele>1280</ele>
        <time>2015-02-15T08:38:13Z</time>
      </trkpt>
      <trkpt lat="45.37949" lon="5.80059">
        <ele>1280</ele>
        <time>2015-02-15T08:38:19Z</time>
      </trkpt>
      <trkpt lat="45.37948" lon="5.80059">
        <ele>1280</ele>
        <time>2015-02-15T08:38:21Z</time>
      </trkpt>
      <trkpt lat="45.37944" lon="5.80058">
        <ele>1280</ele>
        <time>2015-02-15T08:38:29Z</time>
      </trkpt>
      <trkpt lat="45.3794" lon="5.80058">
        <ele>1280</ele>
        <time>2015-02-15T08:38:35Z</time>
      </trkpt>
      <trkpt lat="45.37935" lon="5.80061">
        <ele>1280</ele>
        <time>2015-02-15T08:38:42Z</time>
      </trkpt>
      <trkpt lat="45.37932" lon="5.80064">
        <ele>1280</ele>
        <time>2015-02-15T08:38:48Z</time>
      </trkpt>
      <trkpt lat="45.37933" lon="5.80068">
        <ele>1280</ele>
        <time>2015-02-15T08:38:55Z</time>
      </trkpt>
      <trkpt lat="45.3793" lon="5.80074">
        <ele>1280</ele>
        <time>2015-02-15T08:39:03Z</time>
      </trkpt>
      <trkpt lat="45.37929" lon="5.80078">
        <ele>1280</ele>
        <time>2015-02-15T08:39:11Z</time>
      </trkpt>
      <trkpt lat="45.37928" lon="5.80086">
        <ele>1280</ele>
        <time>2015-02-15T08:39:20Z</time>
      </trkpt>
      <trkpt lat="45.37928" lon="5.80094">
        <ele>1280</ele>
        <time>2015-02-15T08:39:28Z</time>
      </trkpt>
      <trkpt lat="45.3793" lon="5.80104">
        <ele>1280</ele>
        <time>2015-02-15T08:39:36Z</time>
      </trkpt>
      <trkpt lat="45.37931" lon="5.80112">
        <ele>1280</ele>
        <time>2015-02-15T08:39:44Z</time>
      </trkpt>
      <trkpt lat="45.37932" lon="5.80119">
        <ele>1280</ele>
        <time>2015-02-15T08:39:52Z</time>
      </trkpt>
      <trkpt lat="45.37932" lon="5.80124">
        <ele>1280</ele>
        <time>2015-02-15T08:39:58Z</time>
      </trkpt>
      <trkpt lat="45.37931" lon="5.80132">
        <ele>1304</ele>
        <time>2015-02-15T08:40:06Z</time>
      </trkpt>
      <trkpt lat="45.37931" lon="5.80134">
        <ele>1304</ele>
        <time>2015-02-15T08:40:08Z</time>
      </trkpt>
      <trkpt lat="45.37932" lon="5.80141">
        <ele>1304</ele>
        <time>2015-02-15T08:40:15Z</time>
      </trkpt>
      <trkpt lat="45.37933" lon="5.80148">
        <ele>1304</ele>
        <time>2015-02-15T08:40:22Z</time>
      </trkpt>
      <trkpt lat="45.37933" lon="5.80155">
        <ele>1304</ele>
        <time>2015-02-15T08:40:29Z</time>
      </trkpt>
      <trkpt lat="45.37933" lon="5.80164">
        <ele>1304</ele>
        <time>2015-02-15T08:40:37Z</time>
      </trkpt>
      <trkpt lat="45.37933" lon="5.80169">
        <ele>1304</ele>
        <time>2015-02-15T08:40:44Z</time>
      </trkpt>
      <trkpt lat="45.37934" lon="5.80176">
        <ele>1304</ele>
        <time>2015-02-15T08:40:51Z</time>
      </trkpt>
      <trkpt lat="45.37936" lon="5.80187">
        <ele>1304</ele>
        <time>2015-02-15T08:41:01Z</time>
      </trkpt>
      <trkpt lat="45.37938" lon="5.80194">
        <ele>1304</ele>
        <time>2015-02-15T08:41:09Z</time>
      </trkpt>
      <trkpt lat="45.3794" lon="5.80204">
        <ele>1304</ele>
        <time>2015-02-15T08:41:18Z</time>
      </trkpt>
      <trkpt lat="45.37942" lon="5.80212">
        <ele>1327</ele>
        <time>2015-02-15T08:41:26Z</time>
      </trkpt>
      <trkpt lat="45.37944" lon="5.80218">
        <ele>1327</ele>
        <time>2015-02-15T08:41:33Z</time>
      </trkpt>
      <trkpt lat="45.37945" lon="5.80224">
        <ele>1327</ele>
        <time>2015-02-15T08:41:40Z</time>
      </trkpt>
      <trkpt lat="45.37946" lon="5.80231">
        <ele>1327</ele>
        <time>2015-02-15T08:41:48Z</time>
      </trkpt>
      <trkpt lat="45.37948" lon="5.80235">
        <ele>1327</ele>
        <time>2015-02-15T08:41:55Z</time>
      </trkpt>
      <trkpt lat="45.37947" lon="5.80232">
        <ele>1327</ele>
        <time>2015-02-15T08:42:05Z</time>
      </trkpt>
      <trkpt lat="45.37945" lon="5.80231">
        <ele>1327</ele>
        <time>2015-02-15T08:42:17Z</time>
      </trkpt>
      <trkpt lat="45.37946" lon="5.8023">
        <ele>1327</ele>
        <time>2015-02-15T08:42:27Z</time>
      </trkpt>
      <trkpt lat="45.3795" lon="5.8023">
        <ele>1327</ele>
        <time>2015-02-15T08:42:41Z</time>
      </trkpt>
      <trkpt lat="45.37952" lon="5.80219">
        <ele>1327</ele>
        <time>2015-02-15T08:42:52Z</time>
      </trkpt>
      <trkpt lat="45.37952" lon="5.80221">
        <ele>1327</ele>
        <time>2015-02-15T08:43:04Z</time>
      </trkpt>
      <trkpt lat="45.37951" lon="5.8023">
        <ele>1327</ele>
        <time>2015-02-15T08:43:11Z</time>
      </trkpt>
      <trkpt lat="45.3795" lon="5.80238">
        <ele>1327</ele>
        <time>2015-02-15T08:43:17Z</time>
      </trkpt>
      <trkpt lat="45.3795" lon="5.80245">
        <ele>1327</ele>
        <time>2015-02-15T08:43:23Z</time>
      </trkpt>
      <trkpt lat="45.37948" lon="5.80251">
        <ele>1327</ele>
        <time>2015-02-15T08:43:30Z</time>
      </trkpt>
      <trkpt lat="45.3795" lon="5.8026">
        <ele>1327</ele>
        <time>2015-02-15T08:43:38Z</time>
      </trkpt>
      <trkpt lat="45.37951" lon="5.8027">
        <ele>1327</ele>
        <time>2015-02-15T08:43:46Z</time>
      </trkpt>
      <trkpt lat="45.37953" lon="5.80277">
        <ele>1327</ele>
        <time>2015-02-15T08:43:55Z</time>
      </trkpt>
      <trkpt lat="45.37957" lon="5.80284">
        <ele>1327</ele>
        <time>2015-02-15T08:44:04Z</time>
      </trkpt>
      <trkpt lat="45.37959" lon="5.80291">
        <ele>1304</ele>
        <time>2015-02-15T08:44:14Z</time>
      </trkpt>
      <trkpt lat="45.37961" lon="5.80297">
        <ele>1325</ele>
        <time>2015-02-15T08:44:22Z</time>
      </trkpt>
      <trkpt lat="45.37963" lon="5.80305">
        <ele>1325</ele>
        <time>2015-02-15T08:44:30Z</time>
      </trkpt>
      <trkpt lat="45.37964" lon="5.80313">
        <ele>1325</ele>
        <time>2015-02-15T08:44:37Z</time>
      </trkpt>
      <trkpt lat="45.37966" lon="5.8032">
        <ele>1325</ele>
        <time>2015-02-15T08:44:45Z</time>
      </trkpt>
      <trkpt lat="45.37968" lon="5.80328">
        <ele>1325</ele>
        <time>2015-02-15T08:44:53Z</time>
      </trkpt>
      <trkpt lat="45.37971" lon="5.80337">
        <ele>1325</ele>
        <time>2015-02-15T08:45:01Z</time>
      </trkpt>
      <trkpt lat="45.37971" lon="5.80345">
        <ele>1325</ele>
        <time>2015-02-15T08:45:09Z</time>
      </trkpt>
      <trkpt lat="45.37972" lon="5.8035">
        <ele>1325</ele>
        <time>2015-02-15T08:45:17Z</time>
      </trkpt>
      <trkpt lat="45.37976" lon="5.80355">
        <ele>1325</ele>
        <time>2015-02-15T08:45:26Z</time>
      </trkpt>
      <trkpt lat="45.37977" lon="5.80363">
        <ele>1325</ele>
        <time>2015-02-15T08:45:33Z</time>
      </trkpt>
      <trkpt lat="45.37979" lon="5.80366">
        <ele>1325</ele>
        <time>2015-02-15T08:45:41Z</time>
      </trkpt>
      <trkpt lat="45.3798" lon="5.80367">
        <ele>1325</ele>
        <time>2015-02-15T08:45:43Z</time>
      </trkpt>
      <trkpt lat="45.37987" lon="5.80378">
        <ele>1361</ele>
        <time>2015-02-15T08:45:52Z</time>
      </trkpt>
      <trkpt lat="45.37991" lon="5.80379">
        <ele>1361</ele>
        <time>2015-02-15T08:46:00Z</time>
      </trkpt>
      <trkpt lat="45.37995" lon="5.80383">
        <ele>1361</ele>
        <time>2015-02-15T08:46:08Z</time>
      </trkpt>
      <trkpt lat="45.37996" lon="5.80383">
        <ele>1361</ele>
        <time>2015-02-15T08:46:10Z</time>
      </trkpt>
      <trkpt lat="45.38002" lon="5.80391">
        <ele>1361</ele>
        <time>2015-02-15T08:46:19Z</time>
      </trkpt>
      <trkpt lat="45.38008" lon="5.80399">
        <ele>1361</ele>
        <time>2015-02-15T08:46:29Z</time>
      </trkpt>
      <trkpt lat="45.38012" lon="5.80402">
        <ele>1361</ele>
        <time>2015-02-15T08:46:37Z</time>
      </trkpt>
      <trkpt lat="45.38018" lon="5.80409">
        <ele>1361</ele>
        <time>2015-02-15T08:46:47Z</time>
      </trkpt>
      <trkpt lat="45.38021" lon="5.80413">
        <ele>1361</ele>
        <time>2015-02-15T08:46:54Z</time>
      </trkpt>
      <trkpt lat="45.38022" lon="5.80414">
        <ele>1361</ele>
        <time>2015-02-15T08:46:55Z</time>
      </trkpt>
      <trkpt lat="45.38026" lon="5.80419">
        <ele>1361</ele>
        <time>2015-02-15T08:47:03Z</time>
      </trkpt>
      <trkpt lat="45.38027" lon="5.80423">
        <ele>1361</ele>
        <time>2015-02-15T08:47:09Z</time>
      </trkpt>
      <trkpt lat="45.38028" lon="5.80428">
        <ele>1361</ele>
        <time>2015-02-15T08:47:17Z</time>
      </trkpt>
      <trkpt lat="45.3803" lon="5.80434">
        <ele>1361</ele>
        <time>2015-02-15T08:47:25Z</time>
      </trkpt>
      <trkpt lat="45.3803" lon="5.80435">
        <ele>1361</ele>
        <time>2015-02-15T08:47:26Z</time>
      </trkpt>
      <trkpt lat="45.38034" lon="5.80443">
        <ele>1361</ele>
        <time>2015-02-15T08:47:34Z</time>
      </trkpt>
      <trkpt lat="45.3804" lon="5.80449">
        <ele>1361</ele>
        <time>2015-02-15T08:47:43Z</time>
      </trkpt>
      <trkpt lat="45.38042" lon="5.80454">
        <ele>1358</ele>
        <time>2015-02-15T08:47:49Z</time>
      </trkpt>
      <trkpt lat="45.38043" lon="5.80455">
        <ele>1358</ele>
        <time>2015-02-15T08:47:51Z</time>
      </trkpt>
      <trkpt lat="45.38048" lon="5.8046">
        <ele>1388</ele>
        <time>2015-02-15T08:47:59Z</time>
      </trkpt>
      <trkpt lat="45.38052" lon="5.80464">
        <ele>1388</ele>
        <time>2015-02-15T08:48:06Z</time>
      </trkpt>
      <trkpt lat="45.38057" lon="5.80468">
        <ele>1388</ele>
        <time>2015-02-15T08:48:14Z</time>
      </trkpt>
      <trkpt lat="45.38059" lon="5.80473">
        <ele>1388</ele>
        <time>2015-02-15T08:48:20Z</time>
      </trkpt>
      <trkpt lat="45.38062" lon="5.80474">
        <ele>1388</ele>
        <time>2015-02-15T08:48:27Z</time>
      </trkpt>
      <trkpt lat="45.38068" lon="5.80472">
        <ele>1388</ele>
        <time>2015-02-15T08:48:36Z</time>
      </trkpt>
      <trkpt lat="45.38071" lon="5.80472">
        <ele>1388</ele>
        <time>2015-02-15T08:48:44Z</time>
      </trkpt>
      <trkpt lat="45.38073" lon="5.80471">
        <ele>1388</ele>
        <time>2015-02-15T08:48:51Z</time>
      </trkpt>
      <trkpt lat="45.38079" lon="5.8047">
        <ele>1388</ele>
        <time>2015-02-15T08:48:58Z</time>
      </trkpt>
      <trkpt lat="45.38085" lon="5.80461">
        <ele>1388</ele>
        <time>2015-02-15T08:49:06Z</time>
      </trkpt>
      <trkpt lat="45.38092" lon="5.80459">
        <ele>1388</ele>
        <time>2015-02-15T08:49:15Z</time>
      </trkpt>
      <trkpt lat="45.38099" lon="5.80458">
        <ele>1358</ele>
        <time>2015-02-15T08:49:24Z</time>
      </trkpt>
      <trkpt lat="45.38105" lon="5.80462">
        <ele>1388</ele>
        <time>2015-02-15T08:49:34Z</time>
      </trkpt>
      <trkpt lat="45.38109" lon="5.80465">
        <ele>1388</ele>
        <time>2015-02-15T08:49:42Z</time>
      </trkpt>
      <trkpt lat="45.38114" lon="5.80467">
        <ele>1388</ele>
        <time>2015-02-15T08:49:50Z</time>
      </trkpt>
      <trkpt lat="45.38119" lon="5.80467">
        <ele>1388</ele>
        <time>2015-02-15T08:49:58Z</time>
      </trkpt>
      <trkpt lat="45.38126" lon="5.80465">
        <ele>1425</ele>
        <time>2015-02-15T08:50:05Z</time>
      </trkpt>
      <trkpt lat="45.38129" lon="5.80463">
        <ele>1425</ele>
        <time>2015-02-15T08:50:10Z</time>
      </trkpt>
      <trkpt lat="45.38132" lon="5.80463">
        <ele>1425</ele>
        <time>2015-02-15T08:50:19Z</time>
      </trkpt>
      <trkpt lat="45.38129" lon="5.80466">
        <ele>1425</ele>
        <time>2015-02-15T08:50:26Z</time>
      </trkpt>
      <trkpt lat="45.38128" lon="5.80467">
        <ele>1425</ele>
        <time>2015-02-15T08:50:28Z</time>
      </trkpt>
      <trkpt lat="45.38121" lon="5.80473">
        <ele>1388</ele>
        <time>2015-02-15T08:50:37Z</time>
      </trkpt>
      <trkpt lat="45.38119" lon="5.80475">
        <ele>1388</ele>
        <time>2015-02-15T08:50:40Z</time>
      </trkpt>
      <trkpt lat="45.38114" lon="5.80483">
        <ele>1388</ele>
        <time>2015-02-15T08:50:49Z</time>
      </trkpt>
      <trkpt lat="45.38112" lon="5.80487">
        <ele>1388</ele>
        <time>2015-02-15T08:50:54Z</time>
      </trkpt>
      <trkpt lat="45.38108" lon="5.80495">
        <ele>1388</ele>
        <time>2015-02-15T08:51:01Z</time>
      </trkpt>
      <trkpt lat="45.38104" lon="5.80506">
        <ele>1388</ele>
        <time>2015-02-15T08:51:10Z</time>
      </trkpt>
      <trkpt lat="45.381" lon="5.80516">
        <ele>1388</ele>
        <time>2015-02-15T08:51:18Z</time>
      </trkpt>
      <trkpt lat="45.38097" lon="5.80524">
        <ele>1388</ele>
        <time>2015-02-15T08:51:24Z</time>
      </trkpt>
      <trkpt lat="45.38095" lon="5.80532">
        <ele>1388</ele>
        <time>2015-02-15T08:51:32Z</time>
      </trkpt>
      <trkpt lat="45.38092" lon="5.80543">
        <ele>1417</ele>
        <time>2015-02-15T08:51:41Z</time>
      </trkpt>
      <trkpt lat="45.38092" lon="5.80544">
        <ele>1417</ele>
        <time>2015-02-15T08:51:42Z</time>
      </trkpt>
      <trkpt lat="45.38088" lon="5.80554">
        <ele>1417</ele>
        <time>2015-02-15T08:51:51Z</time>
      </trkpt>
      <trkpt lat="45.38085" lon="5.8056">
        <ele>1417</ele>
        <time>2015-02-15T08:52:00Z</time>
      </trkpt>
      <trkpt lat="45.38082" lon="5.80566">
        <ele>1417</ele>
        <time>2015-02-15T08:52:07Z</time>
      </trkpt>
      <trkpt lat="45.38079" lon="5.80571">
        <ele>1417</ele>
        <time>2015-02-15T08:52:14Z</time>
      </trkpt>
      <trkpt lat="45.38075" lon="5.80576">
        <ele>1417</ele>
        <time>2015-02-15T08:52:21Z</time>
      </trkpt>
      <trkpt lat="45.3807" lon="5.80582">
        <ele>1417</ele>
        <time>2015-02-15T08:52:31Z</time>
      </trkpt>
      <trkpt lat="45.38068" lon="5.80592">
        <ele>1417</ele>
        <time>2015-02-15T08:52:40Z</time>
      </trkpt>
      <trkpt lat="45.38067" lon="5.80598">
        <ele>1417</ele>
        <time>2015-02-15T08:52:46Z</time>
      </trkpt>
      <trkpt lat="45.38066" lon="5.80602">
        <ele>1417</ele>
        <time>2015-02-15T08:52:52Z</time>
      </trkpt>
      <trkpt lat="45.38068" lon="5.80605">
        <ele>1417</ele>
        <time>2015-02-15T08:52:59Z</time>
      </trkpt>
      <trkpt lat="45.38071" lon="5.8061">
        <ele>1417</ele>
        <time>2015-02-15T08:53:07Z</time>
      </trkpt>
      <trkpt lat="45.38077" lon="5.80612">
        <ele>1417</ele>
        <time>2015-02-15T08:53:17Z</time>
      </trkpt>
      <trkpt lat="45.3808" lon="5.80611">
        <ele>1417</ele>
        <time>2015-02-15T08:53:24Z</time>
      </trkpt>
      <trkpt lat="45.38085" lon="5.80611">
        <ele>1417</ele>
        <time>2015-02-15T08:53:31Z</time>
      </trkpt>
      <trkpt lat="45.38091" lon="5.80612">
        <ele>1420</ele>
        <time>2015-02-15T08:53:40Z</time>
      </trkpt>
      <trkpt lat="45.38096" lon="5.80608">
        <ele>1417</ele>
        <time>2015-02-15T08:53:48Z</time>
      </trkpt>
      <trkpt lat="45.38099" lon="5.80606">
        <ele>1417</ele>
        <time>2015-02-15T08:53:56Z</time>
      </trkpt>
      <trkpt lat="45.38103" lon="5.80602">
        <ele>1417</ele>
        <time>2015-02-15T08:54:04Z</time>
      </trkpt>
      <trkpt lat="45.38108" lon="5.80604">
        <ele>1417</ele>
        <time>2015-02-15T08:54:11Z</time>
      </trkpt>
      <trkpt lat="45.38109" lon="5.80608">
        <ele>1417</ele>
        <time>2015-02-15T08:54:20Z</time>
      </trkpt>
      <trkpt lat="45.38109" lon="5.80613">
        <ele>1417</ele>
        <time>2015-02-15T08:54:25Z</time>
      </trkpt>
      <trkpt lat="45.38109" lon="5.8062">
        <ele>1417</ele>
        <time>2015-02-15T08:54:33Z</time>
      </trkpt>
      <trkpt lat="45.38111" lon="5.80623">
        <ele>1417</ele>
        <time>2015-02-15T08:54:39Z</time>
      </trkpt>
      <trkpt lat="45.38112" lon="5.80623">
        <ele>1417</ele>
        <time>2015-02-15T08:54:47Z</time>
      </trkpt>
      <trkpt lat="45.38114" lon="5.80621">
        <ele>1417</ele>
        <time>2015-02-15T08:54:56Z</time>
      </trkpt>
      <trkpt lat="45.38117" lon="5.80616">
        <ele>1417</ele>
        <time>2015-02-15T08:55:03Z</time>
      </trkpt>
      <trkpt lat="45.3812" lon="5.80613">
        <ele>1417</ele>
        <time>2015-02-15T08:55:12Z</time>
      </trkpt>
      <trkpt lat="45.38125" lon="5.80611">
        <ele>1417</ele>
        <time>2015-02-15T08:55:19Z</time>
      </trkpt>
      <trkpt lat="45.38127" lon="5.80613">
        <ele>1457</ele>
        <time>2015-02-15T08:55:26Z</time>
      </trkpt>
      <trkpt lat="45.38129" lon="5.80619">
        <ele>1457</ele>
        <time>2015-02-15T08:55:34Z</time>
      </trkpt>
      <trkpt lat="45.38129" lon="5.80624">
        <ele>1457</ele>
        <time>2015-02-15T08:55:41Z</time>
      </trkpt>
      <trkpt lat="45.3813" lon="5.80631">
        <ele>1445</ele>
        <time>2015-02-15T08:55:51Z</time>
      </trkpt>
      <trkpt lat="45.38129" lon="5.80636">
        <ele>1482</ele>
        <time>2015-02-15T08:55:57Z</time>
      </trkpt>
      <trkpt lat="45.38128" lon="5.80646">
        <ele>1482</ele>
        <time>2015-02-15T08:56:07Z</time>
      </trkpt>
      <trkpt lat="45.38128" lon="5.80655">
        <ele>1482</ele>
        <time>2015-02-15T08:56:16Z</time>
      </trkpt>
      <trkpt lat="45.38129" lon="5.8066">
        <ele>1482</ele>
        <time>2015-02-15T08:56:23Z</time>
      </trkpt>
      <trkpt lat="45.38128" lon="5.80668">
        <ele>1482</ele>
        <time>2015-02-15T08:56:32Z</time>
      </trkpt>
      <trkpt lat="45.38127" lon="5.80674">
        <ele>1482</ele>
        <time>2015-02-15T08:56:40Z</time>
      </trkpt>
      <trkpt lat="45.38126" lon="5.80681">
        <ele>1482</ele>
        <time>2015-02-15T08:56:46Z</time>
      </trkpt>
      <trkpt lat="45.38126" lon="5.80687">
        <ele>1482</ele>
        <time>2015-02-15T08:56:53Z</time>
      </trkpt>
      <trkpt lat="45.38127" lon="5.80692">
        <ele>1482</ele>
        <time>2015-02-15T08:57:00Z</time>
      </trkpt>
      <trkpt lat="45.38129" lon="5.80697">
        <ele>1482</ele>
        <time>2015-02-15T08:57:06Z</time>
      </trkpt>
      <trkpt lat="45.38133" lon="5.80704">
        <ele>1482</ele>
        <time>2015-02-15T08:57:14Z</time>
      </trkpt>
      <trkpt lat="45.38134" lon="5.80705">
        <ele>1482</ele>
        <time>2015-02-15T08:57:16Z</time>
      </trkpt>
      <trkpt lat="45.38137" lon="5.80712">
        <ele>1486</ele>
        <time>2015-02-15T08:57:24Z</time>
      </trkpt>
      <trkpt lat="45.3814" lon="5.80718">
        <ele>1486</ele>
        <time>2015-02-15T08:57:31Z</time>
      </trkpt>
      <trkpt lat="45.38144" lon="5.80724">
        <ele>1486</ele>
        <time>2015-02-15T08:57:39Z</time>
      </trkpt>
      <trkpt lat="45.38146" lon="5.80734">
        <ele>1486</ele>
        <time>2015-02-15T08:57:47Z</time>
      </trkpt>
      <trkpt lat="45.38149" lon="5.80741">
        <ele>1486</ele>
        <time>2015-02-15T08:57:55Z</time>
      </trkpt>
      <trkpt lat="45.3815" lon="5.80747">
        <ele>1486</ele>
        <time>2015-02-15T08:58:04Z</time>
      </trkpt>
      <trkpt lat="45.38153" lon="5.80748">
        <ele>1486</ele>
        <time>2015-02-15T08:58:11Z</time>
      </trkpt>
      <trkpt lat="45.38153" lon="5.80747">
        <ele>1486</ele>
        <time>2015-02-15T08:58:20Z</time>
      </trkpt>
      <trkpt lat="45.38156" lon="5.80748">
        <ele>1486</ele>
        <time>2015-02-15T08:58:32Z</time>
      </trkpt>
      <trkpt lat="45.38159" lon="5.80753">
        <ele>1486</ele>
        <time>2015-02-15T08:58:39Z</time>
      </trkpt>
      <trkpt lat="45.38162" lon="5.80762">
        <ele>1486</ele>
        <time>2015-02-15T08:58:49Z</time>
      </trkpt>
      <trkpt lat="45.38164" lon="5.80768">
        <ele>1486</ele>
        <time>2015-02-15T08:58:56Z</time>
      </trkpt>
      <trkpt lat="45.38168" lon="5.80774">
        <ele>1486</ele>
        <time>2015-02-15T08:59:05Z</time>
      </trkpt>
      <trkpt lat="45.38168" lon="5.8078">
        <ele>1486</ele>
        <time>2015-02-15T08:59:12Z</time>
      </trkpt>
      <trkpt lat="45.3817" lon="5.80788">
        <ele>1486</ele>
        <time>2015-02-15T08:59:20Z</time>
      </trkpt>
      <trkpt lat="45.38173" lon="5.80793">
        <ele>1501</ele>
        <time>2015-02-15T08:59:27Z</time>
      </trkpt>
      <trkpt lat="45.38177" lon="5.80801">
        <ele>1501</ele>
        <time>2015-02-15T08:59:35Z</time>
      </trkpt>
      <trkpt lat="45.3818" lon="5.8081">
        <ele>1501</ele>
        <time>2015-02-15T08:59:43Z</time>
      </trkpt>
      <trkpt lat="45.38184" lon="5.80816">
        <ele>1501</ele>
        <time>2015-02-15T08:59:50Z</time>
      </trkpt>
      <trkpt lat="45.38184" lon="5.80817">
        <ele>1501</ele>
        <time>2015-02-15T08:59:51Z</time>
      </trkpt>
      <trkpt lat="45.38188" lon="5.80823">
        <ele>1501</ele>
        <time>2015-02-15T08:59:59Z</time>
      </trkpt>
      <trkpt lat="45.3819" lon="5.80826">
        <ele>1501</ele>
        <time>2015-02-15T09:00:05Z</time>
      </trkpt>
      <trkpt lat="45.38192" lon="5.80824">
        <ele>1501</ele>
        <time>2015-02-15T09:00:11Z</time>
      </trkpt>
      <trkpt lat="45.38193" lon="5.80827">
        <ele>1501</ele>
        <time>2015-02-15T09:00:14Z</time>
      </trkpt>
      <trkpt lat="45.38192" lon="5.80834">
        <ele>1501</ele>
        <time>2015-02-15T09:00:22Z</time>
      </trkpt>
      <trkpt lat="45.38192" lon="5.80842">
        <ele>1501</ele>
        <time>2015-02-15T09:00:28Z</time>
      </trkpt>
      <trkpt lat="45.38191" lon="5.80851">
        <ele>1501</ele>
        <time>2015-02-15T09:00:36Z</time>
      </trkpt>
      <trkpt lat="45.38191" lon="5.80863">
        <ele>1501</ele>
        <time>2015-02-15T09:00:44Z</time>
      </trkpt>
      <trkpt lat="45.3819" lon="5.80864">
        <ele>1501</ele>
        <time>2015-02-15T09:00:45Z</time>
      </trkpt>
      <trkpt lat="45.38188" lon="5.80875">
        <ele>1501</ele>
        <time>2015-02-15T09:00:54Z</time>
      </trkpt>
      <trkpt lat="45.38186" lon="5.80879">
        <ele>1521</ele>
        <time>2015-02-15T09:01:00Z</time>
      </trkpt>
      <trkpt lat="45.38183" lon="5.80883">
        <ele>1521</ele>
        <time>2015-02-15T09:01:07Z</time>
      </trkpt>
      <trkpt lat="45.38179" lon="5.80892">
        <ele>1521</ele>
        <time>2015-02-15T09:01:16Z</time>
      </trkpt>
      <trkpt lat="45.38181" lon="5.80898">
        <ele>1521</ele>
        <time>2015-02-15T09:01:22Z</time>
      </trkpt>
      <trkpt lat="45.38184" lon="5.809">
        <ele>1521</ele>
        <time>2015-02-15T09:01:30Z</time>
      </trkpt>
      <trkpt lat="45.38183" lon="5.80904">
        <ele>1521</ele>
        <time>2015-02-15T09:01:37Z</time>
      </trkpt>
      <trkpt lat="45.38183" lon="5.80907">
        <ele>1521</ele>
        <time>2015-02-15T09:01:44Z</time>
      </trkpt>
      <trkpt lat="45.38183" lon="5.80909">
        <ele>1521</ele>
        <time>2015-02-15T09:01:51Z</time>
      </trkpt>
      <trkpt lat="45.38184" lon="5.80911">
        <ele>1521</ele>
        <time>2015-02-15T09:01:57Z</time>
      </trkpt>
      <trkpt lat="45.38183" lon="5.80915">
        <ele>1521</ele>
        <time>2015-02-15T09:02:04Z</time>
      </trkpt>
      <trkpt lat="45.38184" lon="5.80915">
        <ele>1521</ele>
        <time>2015-02-15T09:02:10Z</time>
      </trkpt>
      <trkpt lat="45.38189" lon="5.80917">
        <ele>1521</ele>
        <time>2015-02-15T09:02:16Z</time>
      </trkpt>
      <trkpt lat="45.3819" lon="5.80921">
        <ele>1521</ele>
        <time>2015-02-15T09:02:22Z</time>
      </trkpt>
      <trkpt lat="45.38187" lon="5.80926">
        <ele>1521</ele>
        <time>2015-02-15T09:02:31Z</time>
      </trkpt>
      <trkpt lat="45.38187" lon="5.80929">
        <ele>1521</ele>
        <time>2015-02-15T09:02:39Z</time>
      </trkpt>
      <trkpt lat="45.38187" lon="5.8093">
        <ele>1521</ele>
        <time>2015-02-15T09:02:40Z</time>
      </trkpt>
      <trkpt lat="45.38182" lon="5.80937">
        <ele>1521</ele>
        <time>2015-02-15T09:02:48Z</time>
      </trkpt>
      <trkpt lat="45.38178" lon="5.80941">
        <ele>1521</ele>
        <time>2015-02-15T09:02:55Z</time>
      </trkpt>
      <trkpt lat="45.38172" lon="5.80947">
        <ele>1521</ele>
        <time>2015-02-15T09:03:03Z</time>
      </trkpt>
      <trkpt lat="45.38168" lon="5.80955">
        <ele>1521</ele>
        <time>2015-02-15T09:03:12Z</time>
      </trkpt>
      <trkpt lat="45.38164" lon="5.80962">
        <ele>1544</ele>
        <time>2015-02-15T09:03:21Z</time>
      </trkpt>
      <trkpt lat="45.38159" lon="5.80966">
        <ele>1544</ele>
        <time>2015-02-15T09:03:31Z</time>
      </trkpt>
      <trkpt lat="45.38155" lon="5.80967">
        <ele>1544</ele>
        <time>2015-02-15T09:03:36Z</time>
      </trkpt>
      <trkpt lat="45.38151" lon="5.80969">
        <ele>1544</ele>
        <time>2015-02-15T09:03:45Z</time>
      </trkpt>
      <trkpt lat="45.38151" lon="5.8097">
        <ele>1544</ele>
        <time>2015-02-15T09:03:50Z</time>
      </trkpt>
      <trkpt lat="45.38151" lon="5.80975">
        <ele>1544</ele>
        <time>2015-02-15T09:03:58Z</time>
      </trkpt>
      <trkpt lat="45.38153" lon="5.80981">
        <ele>1544</ele>
        <time>2015-02-15T09:04:06Z</time>
      </trkpt>
      <trkpt lat="45.38157" lon="5.80983">
        <ele>1544</ele>
        <time>2015-02-15T09:04:14Z</time>
      </trkpt>
      <trkpt lat="45.38162" lon="5.80989">
        <ele>1544</ele>
        <time>2015-02-15T09:04:23Z</time>
      </trkpt>
      <trkpt lat="45.38162" lon="5.8099">
        <ele>1544</ele>
        <time>2015-02-15T09:04:25Z</time>
      </trkpt>
      <trkpt lat="45.38161" lon="5.80991">
        <ele>1544</ele>
        <time>2015-02-15T09:04:30Z</time>
      </trkpt>
      <trkpt lat="45.38158" lon="5.80991">
        <ele>1544</ele>
        <time>2015-02-15T09:04:40Z</time>
      </trkpt>
      <trkpt lat="45.38157" lon="5.80994">
        <ele>1544</ele>
        <time>2015-02-15T09:04:49Z</time>
      </trkpt>
      <trkpt lat="45.38158" lon="5.81">
        <ele>1544</ele>
        <time>2015-02-15T09:04:59Z</time>
      </trkpt>
      <trkpt lat="45.38161" lon="5.81003">
        <ele>1544</ele>
        <time>2015-02-15T09:05:07Z</time>
      </trkpt>
      <trkpt lat="45.38164" lon="5.81007">
        <ele>1544</ele>
        <time>2015-02-15T09:05:15Z</time>
      </trkpt>
      <trkpt lat="45.38166" lon="5.81009">
        <ele>1544</ele>
        <time>2015-02-15T09:05:23Z</time>
      </trkpt>
      <trkpt lat="45.38165" lon="5.81011">
        <ele>1544</ele>
        <time>2015-02-15T09:05:30Z</time>
      </trkpt>
      <trkpt lat="45.38161" lon="5.81014">
        <ele>1544</ele>
        <time>2015-02-15T09:05:36Z</time>
      </trkpt>
      <trkpt lat="45.38158" lon="5.81014">
        <ele>1544</ele>
        <time>2015-02-15T09:05:42Z</time>
      </trkpt>
      <trkpt lat="45.38157" lon="5.81016">
        <ele>1544</ele>
        <time>2015-02-15T09:05:50Z</time>
      </trkpt>
      <trkpt lat="45.38158" lon="5.81017">
        <ele>1544</ele>
        <time>2015-02-15T09:05:58Z</time>
      </trkpt>
      <trkpt lat="45.38159" lon="5.81019">
        <ele>1544</ele>
        <time>2015-02-15T09:06:05Z</time>
      </trkpt>
      <trkpt lat="45.38159" lon="5.8102">
        <ele>1544</ele>
        <time>2015-02-15T09:06:12Z</time>
      </trkpt>
      <trkpt lat="45.38156" lon="5.81022">
        <ele>1544</ele>
        <time>2015-02-15T09:06:18Z</time>
      </trkpt>
      <trkpt lat="45.38154" lon="5.81024">
        <ele>1544</ele>
        <time>2015-02-15T09:06:26Z</time>
      </trkpt>
      <trkpt lat="45.38152" lon="5.81027">
        <ele>1544</ele>
        <time>2015-02-15T09:06:32Z</time>
      </trkpt>
      <trkpt lat="45.38151" lon="5.81029">
        <ele>1544</ele>
        <time>2015-02-15T09:06:37Z</time>
      </trkpt>
      <trkpt lat="45.38153" lon="5.81033">
        <ele>1544</ele>
        <time>2015-02-15T09:06:46Z</time>
      </trkpt>
      <trkpt lat="45.38156" lon="5.81039">
        <ele>1544</ele>
        <time>2015-02-15T09:06:54Z</time>
      </trkpt>
      <trkpt lat="45.38158" lon="5.81042">
        <ele>1590</ele>
        <time>2015-02-15T09:07:02Z</time>
      </trkpt>
      <trkpt lat="45.38157" lon="5.81041">
        <ele>1544</ele>
        <time>2015-02-15T09:07:09Z</time>
      </trkpt>
      <trkpt lat="45.38157" lon="5.81043">
        <ele>1590</ele>
        <time>2015-02-15T09:07:16Z</time>
      </trkpt>
      <trkpt lat="45.38156" lon="5.81045">
        <ele>1590</ele>
        <time>2015-02-15T09:07:25Z</time>
      </trkpt>
      <trkpt lat="45.38154" lon="5.81044">
        <ele>1590</ele>
        <time>2015-02-15T09:07:32Z</time>
      </trkpt>
      <trkpt lat="45.3815" lon="5.81048">
        <ele>1590</ele>
        <time>2015-02-15T09:07:40Z</time>
      </trkpt>
      <trkpt lat="45.38147" lon="5.8105">
        <ele>1590</ele>
        <time>2015-02-15T09:07:49Z</time>
      </trkpt>
      <trkpt lat="45.38143" lon="5.8105">
        <ele>1590</ele>
        <time>2015-02-15T09:07:59Z</time>
      </trkpt>
      <trkpt lat="45.38138" lon="5.81052">
        <ele>1590</ele>
        <time>2015-02-15T09:08:07Z</time>
      </trkpt>
      <trkpt lat="45.38132" lon="5.81053">
        <ele>1590</ele>
        <time>2015-02-15T09:08:16Z</time>
      </trkpt>
      <trkpt lat="45.38129" lon="5.81055">
        <ele>1590</ele>
        <time>2015-02-15T09:08:24Z</time>
      </trkpt>
      <trkpt lat="45.38129" lon="5.8106">
        <ele>1590</ele>
        <time>2015-02-15T09:08:31Z</time>
      </trkpt>
      <trkpt lat="45.3813" lon="5.81065">
        <ele>1590</ele>
        <time>2015-02-15T09:08:40Z</time>
      </trkpt>
      <trkpt lat="45.38131" lon="5.8107">
        <ele>1590</ele>
        <time>2015-02-15T09:08:51Z</time>
      </trkpt>
      <trkpt lat="45.38131" lon="5.81078">
        <ele>1590</ele>
        <time>2015-02-15T09:09:01Z</time>
      </trkpt>
      <trkpt lat="45.38134" lon="5.81089">
        <ele>1590</ele>
        <time>2015-02-15T09:09:14Z</time>
      </trkpt>
      <trkpt lat="45.38136" lon="5.81094">
        <ele>1590</ele>
        <time>2015-02-15T09:09:19Z</time>
      </trkpt>
      <trkpt lat="45.38139" lon="5.811">
        <ele>1590</ele>
        <time>2015-02-15T09:09:26Z</time>
      </trkpt>
      <trkpt lat="45.38144" lon="5.81104">
        <ele>1590</ele>
        <time>2015-02-15T09:09:34Z</time>
      </trkpt>
      <trkpt lat="45.38149" lon="5.81104">
        <ele>1590</ele>
        <time>2015-02-15T09:09:43Z</time>
      </trkpt>
      <trkpt lat="45.38153" lon="5.81104">
        <ele>1590</ele>
        <time>2015-02-15T09:09:50Z</time>
      </trkpt>
      <trkpt lat="45.38156" lon="5.81106">
        <ele>1590</ele>
        <time>2015-02-15T09:09:58Z</time>
      </trkpt>
      <trkpt lat="45.38159" lon="5.81105">
        <ele>1590</ele>
        <time>2015-02-15T09:10:07Z</time>
      </trkpt>
      <trkpt lat="45.3816" lon="5.81107">
        <ele>1590</ele>
        <time>2015-02-15T09:10:15Z</time>
      </trkpt>
      <trkpt lat="45.38158" lon="5.81111">
        <ele>1590</ele>
        <time>2015-02-15T09:10:22Z</time>
      </trkpt>
      <trkpt lat="45.38156" lon="5.81112">
        <ele>1590</ele>
        <time>2015-02-15T09:10:30Z</time>
      </trkpt>
      <trkpt lat="45.38155" lon="5.81115">
        <ele>1590</ele>
        <time>2015-02-15T09:10:36Z</time>
      </trkpt>
      <trkpt lat="45.38156" lon="5.81118">
        <ele>1590</ele>
        <time>2015-02-15T09:10:44Z</time>
      </trkpt>
      <trkpt lat="45.3816" lon="5.81119">
        <ele>1590</ele>
        <time>2015-02-15T09:10:53Z</time>
      </trkpt>
      <trkpt lat="45.38163" lon="5.81119">
        <ele>1590</ele>
        <time>2015-02-15T09:11:00Z</time>
      </trkpt>
      <trkpt lat="45.38169" lon="5.81118">
        <ele>1590</ele>
        <time>2015-02-15T09:11:08Z</time>
      </trkpt>
      <trkpt lat="45.38172" lon="5.81116">
        <ele>1590</ele>
        <time>2015-02-15T09:11:17Z</time>
      </trkpt>
      <trkpt lat="45.38174" lon="5.81114">
        <ele>1590</ele>
        <time>2015-02-15T09:11:24Z</time>
      </trkpt>
      <trkpt lat="45.38175" lon="5.81111">
        <ele>1590</ele>
        <time>2015-02-15T09:11:31Z</time>
      </trkpt>
      <trkpt lat="45.3818" lon="5.81108">
        <ele>1590</ele>
        <time>2015-02-15T09:11:40Z</time>
      </trkpt>
      <trkpt lat="45.38187" lon="5.81106">
        <ele>1594</ele>
        <time>2015-02-15T09:11:51Z</time>
      </trkpt>
      <trkpt lat="45.3819" lon="5.81106">
        <ele>1590</ele>
        <time>2015-02-15T09:12:00Z</time>
      </trkpt>
      <trkpt lat="45.38192" lon="5.81107">
        <ele>1590</ele>
        <time>2015-02-15T09:12:05Z</time>
      </trkpt>
      <trkpt lat="45.38196" lon="5.81107">
        <ele>1590</ele>
        <time>2015-02-15T09:12:13Z</time>
      </trkpt>
      <trkpt lat="45.38199" lon="5.81108">
        <ele>1590</ele>
        <time>2015-02-15T09:12:20Z</time>
      </trkpt>
      <trkpt lat="45.38199" lon="5.81107">
        <ele>1590</ele>
        <time>2015-02-15T09:12:29Z</time>
      </trkpt>
      <trkpt lat="45.382" lon="5.81106">
        <ele>1590</ele>
        <time>2015-02-15T09:12:40Z</time>
      </trkpt>
      <trkpt lat="45.38201" lon="5.81107">
        <ele>1590</ele>
        <time>2015-02-15T09:12:46Z</time>
      </trkpt>
      <trkpt lat="45.382" lon="5.81107">
        <ele>1590</ele>
        <time>2015-02-15T09:12:54Z</time>
      </trkpt>
      <trkpt lat="45.382" lon="5.8111">
        <ele>1590</ele>
        <time>2015-02-15T09:13:02Z</time>
      </trkpt>
      <trkpt lat="45.38197" lon="5.81115">
        <ele>1590</ele>
        <time>2015-02-15T09:13:12Z</time>
      </trkpt>
      <trkpt lat="45.38195" lon="5.81119">
        <ele>1590</ele>
        <time>2015-02-15T09:13:20Z</time>
      </trkpt>
      <trkpt lat="45.38193" lon="5.81123">
        <ele>1590</ele>
        <time>2015-02-15T09:13:29Z</time>
      </trkpt>
      <trkpt lat="45.38191" lon="5.81128">
        <ele>1622</ele>
        <time>2015-02-15T09:13:38Z</time>
      </trkpt>
      <trkpt lat="45.38189" lon="5.81131">
        <ele>1622</ele>
        <time>2015-02-15T09:13:45Z</time>
      </trkpt>
      <trkpt lat="45.38187" lon="5.81132">
        <ele>1622</ele>
        <time>2015-02-15T09:13:50Z</time>
      </trkpt>
      <trkpt lat="45.38182" lon="5.81136">
        <ele>1622</ele>
        <time>2015-02-15T09:13:58Z</time>
      </trkpt>
      <trkpt lat="45.38179" lon="5.81137">
        <ele>1622</ele>
        <time>2015-02-15T09:14:06Z</time>
      </trkpt>
      <trkpt lat="45.38177" lon="5.81142">
        <ele>1622</ele>
        <time>2015-02-15T09:14:13Z</time>
      </trkpt>
      <trkpt lat="45.38176" lon="5.81144">
        <ele>1622</ele>
        <time>2015-02-15T09:14:22Z</time>
      </trkpt>
      <trkpt lat="45.38175" lon="5.81147">
        <ele>1622</ele>
        <time>2015-02-15T09:14:30Z</time>
      </trkpt>
      <trkpt lat="45.38174" lon="5.81154">
        <ele>1622</ele>
        <time>2015-02-15T09:14:38Z</time>
      </trkpt>
      <trkpt lat="45.38173" lon="5.81161">
        <ele>1622</ele>
        <time>2015-02-15T09:14:46Z</time>
      </trkpt>
      <trkpt lat="45.38172" lon="5.81168">
        <ele>1622</ele>
        <time>2015-02-15T09:14:54Z</time>
      </trkpt>
      <trkpt lat="45.38174" lon="5.81172">
        <ele>1622</ele>
        <time>2015-02-15T09:15:02Z</time>
      </trkpt>
      <trkpt lat="45.38174" lon="5.81176">
        <ele>1622</ele>
        <time>2015-02-15T09:15:08Z</time>
      </trkpt>
      <trkpt lat="45.38176" lon="5.81182">
        <ele>1622</ele>
        <time>2015-02-15T09:15:14Z</time>
      </trkpt>
      <trkpt lat="45.38178" lon="5.81182">
        <ele>1622</ele>
        <time>2015-02-15T09:15:20Z</time>
      </trkpt>
      <trkpt lat="45.38182" lon="5.81187">
        <ele>1622</ele>
        <time>2015-02-15T09:15:29Z</time>
      </trkpt>
      <trkpt lat="45.38183" lon="5.81187">
        <ele>1622</ele>
        <time>2015-02-15T09:15:36Z</time>
      </trkpt>
      <trkpt lat="45.38185" lon="5.8119">
        <ele>1622</ele>
        <time>2015-02-15T09:15:43Z</time>
      </trkpt>
      <trkpt lat="45.38188" lon="5.81196">
        <ele>1622</ele>
        <time>2015-02-15T09:15:52Z</time>
      </trkpt>
      <trkpt lat="45.38192" lon="5.81202">
        <ele>1622</ele>
        <time>2015-02-15T09:16:00Z</time>
      </trkpt>
      <trkpt lat="45.38193" lon="5.81206">
        <ele>1622</ele>
        <time>2015-02-15T09:16:06Z</time>
      </trkpt>
      <trkpt lat="45.38195" lon="5.81208">
        <ele>1622</ele>
        <time>2015-02-15T09:16:17Z</time>
      </trkpt>
      <trkpt lat="45.38198" lon="5.81215">
        <ele>1630.53</ele>
        <time>2015-02-15T09:16:24Z</time>
      </trkpt>
      <trkpt lat="45.38201" lon="5.81221">
        <ele>1632.46</ele>
        <time>2015-02-15T09:16:31Z</time>
      </trkpt>
      <trkpt lat="45.38206" lon="5.81227">
        <ele>1633.9</ele>
        <time>2015-02-15T09:16:40Z</time>
      </trkpt>
      <trkpt lat="45.38209" lon="5.81235">
        <ele>1661</ele>
        <time>2015-02-15T09:16:49Z</time>
      </trkpt>
      <trkpt lat="45.38212" lon="5.81242">
        <ele>1661</ele>
        <time>2015-02-15T09:16:57Z</time>
      </trkpt>
      <trkpt lat="45.38215" lon="5.81248">
        <ele>1661</ele>
        <time>2015-02-15T09:17:04Z</time>
      </trkpt>
      <trkpt lat="45.38219" lon="5.81253">
        <ele>1661</ele>
        <time>2015-02-15T09:17:11Z</time>
      </trkpt>
      <trkpt lat="45.38225" lon="5.81258">
        <ele>1661</ele>
        <time>2015-02-15T09:17:19Z</time>
      </trkpt>
      <trkpt lat="45.38227" lon="5.81259">
        <ele>1661</ele>
        <time>2015-02-15T09:17:26Z</time>
      </trkpt>
      <trkpt lat="45.38231" lon="5.81266">
        <ele>1661</ele>
        <time>2015-02-15T09:17:35Z</time>
      </trkpt>
      <trkpt lat="45.38233" lon="5.8127">
        <ele>1661</ele>
        <time>2015-02-15T09:17:41Z</time>
      </trkpt>
      <trkpt lat="45.38234" lon="5.8127">
        <ele>1661</ele>
        <time>2015-02-15T09:17:52Z</time>
      </trkpt>
      <trkpt lat="45.38237" lon="5.81269">
        <ele>1661</ele>
        <time>2015-02-15T09:17:58Z</time>
      </trkpt>
      <trkpt lat="45.38241" lon="5.81275">
        <ele>1661</ele>
        <time>2015-02-15T09:18:05Z</time>
      </trkpt>
      <trkpt lat="45.38244" lon="5.81278">
        <ele>1661</ele>
        <time>2015-02-15T09:18:09Z</time>
      </trkpt>
      <trkpt lat="45.38252" lon="5.81285">
        <ele>1661</ele>
        <time>2015-02-15T09:18:18Z</time>
      </trkpt>
      <trkpt lat="45.38259" lon="5.81292">
        <ele>1665</ele>
        <time>2015-02-15T09:18:26Z</time>
      </trkpt>
      <trkpt lat="45.38266" lon="5.81297">
        <ele>1665</ele>
        <time>2015-02-15T09:18:32Z</time>
      </trkpt>
      <trkpt lat="45.38269" lon="5.81299">
        <ele>1665</ele>
        <time>2015-02-15T09:18:36Z</time>
      </trkpt>
      <trkpt lat="45.38273" lon="5.81302">
        <ele>1665</ele>
        <time>2015-02-15T09:18:40Z</time>
      </trkpt>
      <trkpt lat="45.38282" lon="5.81307">
        <ele>1665</ele>
        <time>2015-02-15T09:18:48Z</time>
      </trkpt>
      <trkpt lat="45.38288" lon="5.81311">
        <ele>1665</ele>
        <time>2015-02-15T09:18:55Z</time>
      </trkpt>
      <trkpt lat="45.38295" lon="5.81315">
        <ele>1653</ele>
        <time>2015-02-15T09:19:02Z</time>
      </trkpt>
      <trkpt lat="45.38301" lon="5.81318">
        <ele>1653</ele>
        <time>2015-02-15T09:19:07Z</time>
      </trkpt>
      <trkpt lat="45.38306" lon="5.81321">
        <ele>1653</ele>
        <time>2015-02-15T09:19:14Z</time>
      </trkpt>
      <trkpt lat="45.38315" lon="5.81327">
        <ele>1653</ele>
        <time>2015-02-15T09:19:24Z</time>
      </trkpt>
      <trkpt lat="45.38323" lon="5.81333">
        <ele>1653</ele>
        <time>2015-02-15T09:19:32Z</time>
      </trkpt>
      <trkpt lat="45.38328" lon="5.81337">
        <ele>1653</ele>
        <time>2015-02-15T09:19:39Z</time>
      </trkpt>
      <trkpt lat="45.38332" lon="5.81339">
        <ele>1653</ele>
        <time>2015-02-15T09:19:45Z</time>
      </trkpt>
      <trkpt lat="45.38337" lon="5.81343">
        <ele>1653</ele>
        <time>2015-02-15T09:19:52Z</time>
      </trkpt>
      <trkpt lat="45.38339" lon="5.81345">
        <ele>1653</ele>
        <time>2015-02-15T09:19:58Z</time>
      </trkpt>
      <trkpt lat="45.38343" lon="5.81347">
        <ele>1653</ele>
        <time>2015-02-15T09:20:03Z</time>
      </trkpt>
      <trkpt lat="45.3835" lon="5.81351">
        <ele>1653</ele>
        <time>2015-02-15T09:20:10Z</time>
      </trkpt>
      <trkpt lat="45.38357" lon="5.81355">
        <ele>1653</ele>
        <time>2015-02-15T09:20:17Z</time>
      </trkpt>
      <trkpt lat="45.38364" lon="5.8136">
        <ele>1653</ele>
        <time>2015-02-15T09:20:24Z</time>
      </trkpt>
      <trkpt lat="45.38367" lon="5.81362">
        <ele>1653</ele>
        <time>2015-02-15T09:20:27Z</time>
      </trkpt>
      <trkpt lat="45.38376" lon="5.81368">
        <ele>1658</ele>
        <time>2015-02-15T09:20:36Z</time>
      </trkpt>
      <trkpt lat="45.38378" lon="5.81369">
        <ele>1658</ele>
        <time>2015-02-15T09:20:38Z</time>
      </trkpt>
      <trkpt lat="45.38383" lon="5.81372">
        <ele>1658</ele>
        <time>2015-02-15T09:20:43Z</time>
      </trkpt>
      <trkpt lat="45.38391" lon="5.81377">
        <ele>1651</ele>
        <time>2015-02-15T09:20:51Z</time>
      </trkpt>
      <trkpt lat="45.38397" lon="5.81381">
        <ele>1651</ele>
        <time>2015-02-15T09:20:57Z</time>
      </trkpt>
      <trkpt lat="45.38405" lon="5.81386">
        <ele>1651</ele>
        <time>2015-02-15T09:21:04Z</time>
      </trkpt>
      <trkpt lat="45.38407" lon="5.81387">
        <ele>1651</ele>
        <time>2015-02-15T09:21:07Z</time>
      </trkpt>
      <trkpt lat="45.38415" lon="5.81393">
        <ele>1651</ele>
        <time>2015-02-15T09:21:16Z</time>
      </trkpt>
      <trkpt lat="45.38424" lon="5.81398">
        <ele>1651</ele>
        <time>2015-02-15T09:21:25Z</time>
      </trkpt>
      <trkpt lat="45.38433" lon="5.81403">
        <ele>1651</ele>
        <time>2015-02-15T09:21:33Z</time>
      </trkpt>
      <trkpt lat="45.38438" lon="5.81406">
        <ele>1651</ele>
        <time>2015-02-15T09:21:39Z</time>
      </trkpt>
      <trkpt lat="45.38443" lon="5.81411">
        <ele>1651</ele>
        <time>2015-02-15T09:21:47Z</time>
      </trkpt>
      <trkpt lat="45.38443" lon="5.81412">
        <ele>1651</ele>
        <time>2015-02-15T09:21:59Z</time>
      </trkpt>
      <trkpt lat="45.38444" lon="5.81413">
        <ele>1651</ele>
        <time>2015-02-15T09:22:02Z</time>
      </trkpt>
      <trkpt lat="45.38443" lon="5.81421">
        <ele>1651</ele>
        <time>2015-02-15T09:22:09Z</time>
      </trkpt>
      <trkpt lat="45.38442" lon="5.81429">
        <ele>1651</ele>
        <time>2015-02-15T09:22:18Z</time>
      </trkpt>
      <trkpt lat="45.38437" lon="5.81431">
        <ele>1651</ele>
        <time>2015-02-15T09:22:25Z</time>
      </trkpt>
      <trkpt lat="45.38437" lon="5.81432">
        <ele>1651</ele>
        <time>2015-02-15T09:22:26Z</time>
      </trkpt>
      <trkpt lat="45.3843" lon="5.81434">
        <ele>1651</ele>
        <time>2015-02-15T09:22:34Z</time>
      </trkpt>
      <trkpt lat="45.38424" lon="5.81435">
        <ele>1651</ele>
        <time>2015-02-15T09:22:43Z</time>
      </trkpt>
      <trkpt lat="45.38419" lon="5.81434">
        <ele>1651</ele>
        <time>2015-02-15T09:22:51Z</time>
      </trkpt>
      <trkpt lat="45.38419" lon="5.81435">
        <ele>1651</ele>
        <time>2015-02-15T09:22:56Z</time>
      </trkpt>
      <trkpt lat="45.38421" lon="5.81441">
        <ele>1651</ele>
        <time>2015-02-15T09:23:04Z</time>
      </trkpt>
      <trkpt lat="45.38421" lon="5.8145">
        <ele>1651</ele>
        <time>2015-02-15T09:23:12Z</time>
      </trkpt>
      <trkpt lat="45.38423" lon="5.81455">
        <ele>1651</ele>
        <time>2015-02-15T09:23:19Z</time>
      </trkpt>
      <trkpt lat="45.38421" lon="5.81458">
        <ele>1651</ele>
        <time>2015-02-15T09:23:25Z</time>
      </trkpt>
      <trkpt lat="45.38417" lon="5.8146">
        <ele>1678</ele>
        <time>2015-02-15T09:23:31Z</time>
      </trkpt>
      <trkpt lat="45.3841" lon="5.8146">
        <ele>1678</ele>
        <time>2015-02-15T09:23:40Z</time>
      </trkpt>
      <trkpt lat="45.38406" lon="5.81462">
        <ele>1678</ele>
        <time>2015-02-15T09:23:48Z</time>
      </trkpt>
      <trkpt lat="45.38402" lon="5.81465">
        <ele>1678</ele>
        <time>2015-02-15T09:23:55Z</time>
      </trkpt>
      <trkpt lat="45.38401" lon="5.81467">
        <ele>1678</ele>
        <time>2015-02-15T09:24:03Z</time>
      </trkpt>
      <trkpt lat="45.38396" lon="5.81472">
        <ele>1678</ele>
        <time>2015-02-15T09:24:13Z</time>
      </trkpt>
      <trkpt lat="45.38398" lon="5.8147">
        <ele>1678</ele>
        <time>2015-02-15T09:24:25Z</time>
      </trkpt>
      <trkpt lat="45.38397" lon="5.81474">
        <ele>1678</ele>
        <time>2015-02-15T09:24:33Z</time>
      </trkpt>
      <trkpt lat="45.38397" lon="5.81475">
        <ele>1678</ele>
        <time>2015-02-15T09:24:34Z</time>
      </trkpt>
      <trkpt lat="45.38393" lon="5.81482">
        <ele>1678</ele>
        <time>2015-02-15T09:24:43Z</time>
      </trkpt>
      <trkpt lat="45.38389" lon="5.81489">
        <ele>1678</ele>
        <time>2015-02-15T09:24:52Z</time>
      </trkpt>
      <trkpt lat="45.38386" lon="5.81494">
        <ele>1681</ele>
        <time>2015-02-15T09:24:59Z</time>
      </trkpt>
      <trkpt lat="45.38384" lon="5.81501">
        <ele>1678</ele>
        <time>2015-02-15T09:25:07Z</time>
      </trkpt>
      <trkpt lat="45.38382" lon="5.81505">
        <ele>1678</ele>
        <time>2015-02-15T09:25:13Z</time>
      </trkpt>
      <trkpt lat="45.38377" lon="5.81505">
        <ele>1678</ele>
        <time>2015-02-15T09:25:21Z</time>
      </trkpt>
      <trkpt lat="45.38377" lon="5.81505">
        <ele>1678</ele>
        <time>2015-02-15T09:25:29Z</time>
      </trkpt>
      <trkpt lat="45.38372" lon="5.81505">
        <ele>1703</ele>
        <time>2015-02-15T09:25:38Z</time>
      </trkpt>
      <trkpt lat="45.38369" lon="5.81507">
        <ele>1703</ele>
        <time>2015-02-15T09:25:45Z</time>
      </trkpt>
      <trkpt lat="45.38366" lon="5.81513">
        <ele>1703</ele>
        <time>2015-02-15T09:25:54Z</time>
      </trkpt>
      <trkpt lat="45.38364" lon="5.8152">
        <ele>1703</ele>
        <time>2015-02-15T09:26:03Z</time>
      </trkpt>
      <trkpt lat="45.38365" lon="5.81528">
        <ele>1703</ele>
        <time>2015-02-15T09:26:12Z</time>
      </trkpt>
      <trkpt lat="45.38368" lon="5.81535">
        <ele>1703</ele>
        <time>2015-02-15T09:26:20Z</time>
      </trkpt>
      <trkpt lat="45.38368" lon="5.81536">
        <ele>1703</ele>
        <time>2015-02-15T09:26:28Z</time>
      </trkpt>
      <trkpt lat="45.38367" lon="5.81537">
        <ele>1703</ele>
        <time>2015-02-15T09:26:39Z</time>
      </trkpt>
      <trkpt lat="45.38367" lon="5.81535">
        <ele>1703</ele>
        <time>2015-02-15T09:26:47Z</time>
      </trkpt>
      <trkpt lat="45.38367" lon="5.81536">
        <ele>1703</ele>
        <time>2015-02-15T09:26:55Z</time>
      </trkpt>
      <trkpt lat="45.38368" lon="5.81535">
        <ele>1703</ele>
        <time>2015-02-15T09:27:04Z</time>
      </trkpt>
      <trkpt lat="45.38368" lon="5.81535">
        <ele>1703</ele>
        <time>2015-02-15T09:27:14Z</time>
      </trkpt>
      <trkpt lat="45.38367" lon="5.81536">
        <ele>1703</ele>
        <time>2015-02-15T09:27:22Z</time>
      </trkpt>
      <trkpt lat="45.3837" lon="5.8154">
        <ele>1703</ele>
        <time>2015-02-15T09:27:28Z</time>
      </trkpt>
      <trkpt lat="45.38373" lon="5.81544">
        <ele>1721</ele>
        <time>2015-02-15T09:27:35Z</time>
      </trkpt>
      <trkpt lat="45.38376" lon="5.81549">
        <ele>1697</ele>
        <time>2015-02-15T09:27:43Z</time>
      </trkpt>
      <trkpt lat="45.38381" lon="5.81555">
        <ele>1697</ele>
        <time>2015-02-15T09:27:52Z</time>
      </trkpt>
      <trkpt lat="45.38385" lon="5.81559">
        <ele>1697</ele>
        <time>2015-02-15T09:28:00Z</time>
      </trkpt>
      <trkpt lat="45.38385" lon="5.8156">
        <ele>1697</ele>
        <time>2015-02-15T09:28:06Z</time>
      </trkpt>
      <trkpt lat="45.38381" lon="5.81562">
        <ele>1697</ele>
        <time>2015-02-15T09:28:13Z</time>
      </trkpt>
      <trkpt lat="45.38378" lon="5.81562">
        <ele>1706</ele>
        <time>2015-02-15T09:28:22Z</time>
      </trkpt>
      <trkpt lat="45.38378" lon="5.81563">
        <ele>1697</ele>
        <time>2015-02-15T09:28:28Z</time>
      </trkpt>
      <trkpt lat="45.38379" lon="5.81564">
        <ele>1697</ele>
        <time>2015-02-15T09:28:30Z</time>
      </trkpt>
      <trkpt lat="45.38382" lon="5.81568">
        <ele>1697</ele>
        <time>2015-02-15T09:28:38Z</time>
      </trkpt>
      <trkpt lat="45.38382" lon="5.81568">
        <ele>1697</ele>
        <time>2015-02-15T09:28:41Z</time>
      </trkpt>
      <trkpt lat="45.38381" lon="5.8157">
        <ele>1697</ele>
        <time>2015-02-15T09:28:47Z</time>
      </trkpt>
      <trkpt lat="45.3838" lon="5.8157">
        <ele>1697</ele>
        <time>2015-02-15T09:28:52Z</time>
      </trkpt>
      <trkpt lat="45.3838" lon="5.81572">
        <ele>1697</ele>
        <time>2015-02-15T09:28:58Z</time>
      </trkpt>
      <trkpt lat="45.38384" lon="5.81574">
        <ele>1697</ele>
        <time>2015-02-15T09:29:07Z</time>
      </trkpt>
      <trkpt lat="45.38388" lon="5.81576">
        <ele>1697</ele>
        <time>2015-02-15T09:29:15Z</time>
      </trkpt>
      <trkpt lat="45.3839" lon="5.81576">
        <ele>1697</ele>
        <time>2015-02-15T09:29:22Z</time>
      </trkpt>
      <trkpt lat="45.38392" lon="5.81576">
        <ele>1697</ele>
        <time>2015-02-15T09:29:29Z</time>
      </trkpt>
      <trkpt lat="45.3839" lon="5.81577">
        <ele>1697</ele>
        <time>2015-02-15T09:29:35Z</time>
      </trkpt>
      <trkpt lat="45.38386" lon="5.81583">
        <ele>1697</ele>
        <time>2015-02-15T09:29:44Z</time>
      </trkpt>
      <trkpt lat="45.38385" lon="5.81585">
        <ele>1697</ele>
        <time>2015-02-15T09:29:51Z</time>
      </trkpt>
      <trkpt lat="45.38387" lon="5.81592">
        <ele>1697</ele>
        <time>2015-02-15T09:29:59Z</time>
      </trkpt>
      <trkpt lat="45.38389" lon="5.81598">
        <ele>1697</ele>
        <time>2015-02-15T09:30:10Z</time>
      </trkpt>
      <trkpt lat="45.38389" lon="5.81604">
        <ele>1697</ele>
        <time>2015-02-15T09:30:20Z</time>
      </trkpt>
      <trkpt lat="45.38383" lon="5.81604">
        <ele>1697</ele>
        <time>2015-02-15T09:30:29Z</time>
      </trkpt>
      <trkpt lat="45.38383" lon="5.81606">
        <ele>1697</ele>
        <time>2015-02-15T09:30:34Z</time>
      </trkpt>
      <trkpt lat="45.38382" lon="5.81613">
        <ele>1697</ele>
        <time>2015-02-15T09:30:42Z</time>
      </trkpt>
      <trkpt lat="45.3838" lon="5.81615">
        <ele>1697</ele>
        <time>2015-02-15T09:30:48Z</time>
      </trkpt>
      <trkpt lat="45.38375" lon="5.81613">
        <ele>1697</ele>
        <time>2015-02-15T09:30:56Z</time>
      </trkpt>
      <trkpt lat="45.38371" lon="5.81613">
        <ele>1721</ele>
        <time>2015-02-15T09:31:02Z</time>
      </trkpt>
      <trkpt lat="45.3837" lon="5.8162">
        <ele>1721</ele>
        <time>2015-02-15T09:31:10Z</time>
      </trkpt>
      <trkpt lat="45.38369" lon="5.81624">
        <ele>1721</ele>
        <time>2015-02-15T09:31:16Z</time>
      </trkpt>
      <trkpt lat="45.38367" lon="5.81624">
        <ele>1721</ele>
        <time>2015-02-15T09:31:21Z</time>
      </trkpt>
      <trkpt lat="45.38363" lon="5.81619">
        <ele>1721</ele>
        <time>2015-02-15T09:31:29Z</time>
      </trkpt>
      <trkpt lat="45.3836" lon="5.81613">
        <ele>1721</ele>
        <time>2015-02-15T09:31:39Z</time>
      </trkpt>
      <trkpt lat="45.38357" lon="5.81615">
        <ele>1721</ele>
        <time>2015-02-15T09:31:47Z</time>
      </trkpt>
      <trkpt lat="45.38355" lon="5.81618">
        <ele>1721</ele>
        <time>2015-02-15T09:31:54Z</time>
      </trkpt>
      <trkpt lat="45.3835" lon="5.81618">
        <ele>1721</ele>
        <time>2015-02-15T09:32:02Z</time>
      </trkpt>
      <trkpt lat="45.38349" lon="5.81619">
        <ele>1721</ele>
        <time>2015-02-15T09:32:10Z</time>
      </trkpt>
      <trkpt lat="45.3835" lon="5.81625">
        <ele>1759</ele>
        <time>2015-02-15T09:32:18Z</time>
      </trkpt>
      <trkpt lat="45.3835" lon="5.81632">
        <ele>1759</ele>
        <time>2015-02-15T09:32:26Z</time>
      </trkpt>
      <trkpt lat="45.38352" lon="5.81638">
        <ele>1759</ele>
        <time>2015-02-15T09:32:35Z</time>
      </trkpt>
      <trkpt lat="45.38352" lon="5.81644">
        <ele>1759</ele>
        <time>2015-02-15T09:32:43Z</time>
      </trkpt>
      <trkpt lat="45.38351" lon="5.81646">
        <ele>1759</ele>
        <time>2015-02-15T09:32:49Z</time>
      </trkpt>
      <trkpt lat="45.38348" lon="5.81645">
        <ele>1759</ele>
        <time>2015-02-15T09:32:55Z</time>
      </trkpt>
      <trkpt lat="45.38347" lon="5.81644">
        <ele>1759</ele>
        <time>2015-02-15T09:32:57Z</time>
      </trkpt>
      <trkpt lat="45.38343" lon="5.81639">
        <ele>1759</ele>
        <time>2015-02-15T09:33:06Z</time>
      </trkpt>
      <trkpt lat="45.38338" lon="5.81635">
        <ele>1759</ele>
        <time>2015-02-15T09:33:17Z</time>
      </trkpt>
      <trkpt lat="45.38332" lon="5.81631">
        <ele>1759</ele>
        <time>2015-02-15T09:33:26Z</time>
      </trkpt>
      <trkpt lat="45.3833" lon="5.8163">
        <ele>1759</ele>
        <time>2015-02-15T09:33:35Z</time>
      </trkpt>
      <trkpt lat="45.38331" lon="5.81635">
        <ele>1759</ele>
        <time>2015-02-15T09:33:44Z</time>
      </trkpt>
      <trkpt lat="45.38331" lon="5.81637">
        <ele>1759</ele>
        <time>2015-02-15T09:33:47Z</time>
      </trkpt>
      <trkpt lat="45.38329" lon="5.81636">
        <ele>1759</ele>
        <time>2015-02-15T09:33:52Z</time>
      </trkpt>
      <trkpt lat="45.38326" lon="5.81633">
        <ele>1759</ele>
        <time>2015-02-15T09:34:00Z</time>
      </trkpt>
      <trkpt lat="45.38321" lon="5.81627">
        <ele>1759</ele>
        <time>2015-02-15T09:34:12Z</time>
      </trkpt>
      <trkpt lat="45.38317" lon="5.81625">
        <ele>1721</ele>
        <time>2015-02-15T09:34:20Z</time>
      </trkpt>
      <trkpt lat="45.38312" lon="5.81622">
        <ele>1768</ele>
        <time>2015-02-15T09:34:29Z</time>
      </trkpt>
      <trkpt lat="45.38307" lon="5.81618">
        <ele>1721</ele>
        <time>2015-02-15T09:34:39Z</time>
      </trkpt>
      <trkpt lat="45.38302" lon="5.81612">
        <ele>1721</ele>
        <time>2015-02-15T09:34:46Z</time>
      </trkpt>
      <trkpt lat="45.38301" lon="5.81607">
        <ele>1721</ele>
        <time>2015-02-15T09:34:55Z</time>
      </trkpt>
      <trkpt lat="45.38297" lon="5.81602">
        <ele>1721</ele>
        <time>2015-02-15T09:35:05Z</time>
      </trkpt>
      <trkpt lat="45.38294" lon="5.81598">
        <ele>1721</ele>
        <time>2015-02-15T09:35:12Z</time>
      </trkpt>
      <trkpt lat="45.3829" lon="5.81595">
        <ele>1769</ele>
        <time>2015-02-15T09:35:19Z</time>
      </trkpt>
      <trkpt lat="45.38286" lon="5.81593">
        <ele>1769</ele>
        <time>2015-02-15T09:35:28Z</time>
      </trkpt>
      <trkpt lat="45.3828" lon="5.81588">
        <ele>1769</ele>
        <time>2015-02-15T09:35:39Z</time>
      </trkpt>
      <trkpt lat="45.38276" lon="5.81586">
        <ele>1769</ele>
        <time>2015-02-15T09:35:48Z</time>
      </trkpt>
      <trkpt lat="45.38271" lon="5.81583">
        <ele>1769</ele>
        <time>2015-02-15T09:35:58Z</time>
      </trkpt>
      <trkpt lat="45.38264" lon="5.8158">
        <ele>1769</ele>
        <time>2015-02-15T09:36:08Z</time>
      </trkpt>
      <trkpt lat="45.38258" lon="5.81576">
        <ele>1769</ele>
        <time>2015-02-15T09:36:16Z</time>
      </trkpt>
      <trkpt lat="45.38254" lon="5.81571">
        <ele>1769</ele>
        <time>2015-02-15T09:36:25Z</time>
      </trkpt>
      <trkpt lat="45.38249" lon="5.81567">
        <ele>1769</ele>
        <time>2015-02-15T09:36:34Z</time>
      </trkpt>
      <trkpt lat="45.38244" lon="5.81567">
        <ele>1793</ele>
        <time>2015-02-15T09:36:43Z</time>
      </trkpt>
      <trkpt lat="45.38244" lon="5.81568">
        <ele>1769</ele>
        <time>2015-02-15T09:36:49Z</time>
      </trkpt>
      <trkpt lat="45.38244" lon="5.81575">
        <ele>1769</ele>
        <time>2015-02-15T09:36:58Z</time>
      </trkpt>
      <trkpt lat="45.38243" lon="5.81583">
        <ele>1769</ele>
        <time>2015-02-15T09:37:07Z</time>
      </trkpt>
      <trkpt lat="45.38243" lon="5.8159">
        <ele>1769</ele>
        <time>2015-02-15T09:37:14Z</time>
      </trkpt>
      <trkpt lat="45.38242" lon="5.81594">
        <ele>1769</ele>
        <time>2015-02-15T09:37:21Z</time>
      </trkpt>
      <trkpt lat="45.38238" lon="5.81594">
        <ele>1769</ele>
        <time>2015-02-15T09:37:29Z</time>
      </trkpt>
      <trkpt lat="45.38232" lon="5.81592">
        <ele>1769</ele>
        <time>2015-02-15T09:37:38Z</time>
      </trkpt>
      <trkpt lat="45.38227" lon="5.8159">
        <ele>1769</ele>
        <time>2015-02-15T09:37:49Z</time>
      </trkpt>
      <trkpt lat="45.38219" lon="5.81587">
        <ele>1769</ele>
        <time>2015-02-15T09:38:00Z</time>
      </trkpt>
      <trkpt lat="45.38217" lon="5.81585">
        <ele>1769</ele>
        <time>2015-02-15T09:38:08Z</time>
      </trkpt>
      <trkpt lat="45.38209" lon="5.81583">
        <ele>1769</ele>
        <time>2015-02-15T09:38:20Z</time>
      </trkpt>
      <trkpt lat="45.38206" lon="5.81582">
        <ele>1812.22</ele>
        <time>2015-02-15T09:38:27Z</time>
      </trkpt>
      <trkpt lat="45.38201" lon="5.81579">
        <ele>1815.11</ele>
        <time>2015-02-15T09:38:35Z</time>
      </trkpt>
      <trkpt lat="45.38196" lon="5.81577">
        <ele>1815.59</ele>
        <time>2015-02-15T09:38:44Z</time>
      </trkpt>
      <trkpt lat="45.3819" lon="5.81574">
        <ele>1817.99</ele>
        <time>2015-02-15T09:38:54Z</time>
      </trkpt>
      <trkpt lat="45.38186" lon="5.81571">
        <ele>1819.91</ele>
        <time>2015-02-15T09:39:03Z</time>
      </trkpt>
      <trkpt lat="45.38178" lon="5.81567">
        <ele>1822.32</ele>
        <time>2015-02-15T09:39:17Z</time>
      </trkpt>
      <trkpt lat="45.38173" lon="5.81563">
        <ele>1824.24</ele>
        <time>2015-02-15T09:39:27Z</time>
      </trkpt>
      <trkpt lat="45.38172" lon="5.81564">
        <ele>1825.2</ele>
        <time>2015-02-15T09:39:36Z</time>
      </trkpt>
      <trkpt lat="45.38173" lon="5.81574">
        <ele>1828.08</ele>
        <time>2015-02-15T09:39:47Z</time>
      </trkpt>
      <trkpt lat="45.38174" lon="5.81579">
        <ele>1830.01</ele>
        <time>2015-02-15T09:39:55Z</time>
      </trkpt>
      <trkpt lat="45.38172" lon="5.81579">
        <ele>1830.49</ele>
        <time>2015-02-15T09:40:02Z</time>
      </trkpt>
      <trkpt lat="45.38169" lon="5.81576">
        <ele>1830.49</ele>
        <time>2015-02-15T09:40:09Z</time>
      </trkpt>
      <trkpt lat="45.38164" lon="5.81572">
        <ele>1831.45</ele>
        <time>2015-02-15T09:40:18Z</time>
      </trkpt>
      <trkpt lat="45.38159" lon="5.81568">
        <ele>1834.33</ele>
        <time>2015-02-15T09:40:26Z</time>
      </trkpt>
      <trkpt lat="45.38153" lon="5.81564">
        <ele>1835.29</ele>
        <time>2015-02-15T09:40:35Z</time>
      </trkpt>
      <trkpt lat="45.3815" lon="5.8156">
        <ele>1836.26</ele>
        <time>2015-02-15T09:40:43Z</time>
      </trkpt>
      <trkpt lat="45.38147" lon="5.81559">
        <ele>1837.7</ele>
        <time>2015-02-15T09:40:55Z</time>
      </trkpt>
      <trkpt lat="45.38143" lon="5.81557">
        <ele>1838.18</ele>
        <time>2015-02-15T09:41:00Z</time>
      </trkpt>
      <trkpt lat="45.38137" lon="5.81555">
        <ele>1840.1</ele>
        <time>2015-02-15T09:41:08Z</time>
      </trkpt>
      <trkpt lat="45.38132" lon="5.81555">
        <ele>1842.02</ele>
        <time>2015-02-15T09:41:15Z</time>
      </trkpt>
      <trkpt lat="45.38127" lon="5.81556">
        <ele>1843.95</ele>
        <time>2015-02-15T09:41:23Z</time>
      </trkpt>
      <trkpt lat="45.38121" lon="5.81558">
        <ele>1845.39</ele>
        <time>2015-02-15T09:41:31Z</time>
      </trkpt>
      <trkpt lat="45.38115" lon="5.8156">
        <ele>1846.83</ele>
        <time>2015-02-15T09:41:39Z</time>
      </trkpt>
      <trkpt lat="45.38113" lon="5.8156">
        <ele>1847.79</ele>
        <time>2015-02-15T09:41:46Z</time>
      </trkpt>
      <trkpt lat="45.38111" lon="5.81562">
        <ele>1847.79</ele>
        <time>2015-02-15T09:41:51Z</time>
      </trkpt>
      <trkpt lat="45.38108" lon="5.81565">
        <ele>1849.23</ele>
        <time>2015-02-15T09:41:58Z</time>
      </trkpt>
      <trkpt lat="45.38103" lon="5.81568">
        <ele>1850.68</ele>
        <time>2015-02-15T09:42:05Z</time>
      </trkpt>
      <trkpt lat="45.38098" lon="5.81567">
        <ele>1851.16</ele>
        <time>2015-02-15T09:42:11Z</time>
      </trkpt>
      <trkpt lat="45.38093" lon="5.81565">
        <ele>1852.6</ele>
        <time>2015-02-15T09:42:19Z</time>
      </trkpt>
      <trkpt lat="45.38091" lon="5.81565">
        <ele>1853.08</ele>
        <time>2015-02-15T09:42:21Z</time>
      </trkpt>
      <trkpt lat="45.38085" lon="5.81565">
        <ele>1854.52</ele>
        <time>2015-02-15T09:42:29Z</time>
      </trkpt>
      <trkpt lat="45.38084" lon="5.81565">
        <ele>1854.04</ele>
        <time>2015-02-15T09:42:39Z</time>
      </trkpt>
      <trkpt lat="45.38075" lon="5.81562">
        <ele>1855.48</ele>
        <time>2015-02-15T09:42:49Z</time>
      </trkpt>
      <trkpt lat="45.38068" lon="5.81559">
        <ele>1856.44</ele>
        <time>2015-02-15T09:42:57Z</time>
      </trkpt>
      <trkpt lat="45.3806" lon="5.81556">
        <ele>1857.89</ele>
        <time>2015-02-15T09:43:05Z</time>
      </trkpt>
      <trkpt lat="45.38054" lon="5.81554">
        <ele>1859.81</ele>
        <time>2015-02-15T09:43:14Z</time>
      </trkpt>
      <trkpt lat="45.38051" lon="5.81553">
        <ele>1860.29</ele>
        <time>2015-02-15T09:43:18Z</time>
      </trkpt>
      <trkpt lat="45.38042" lon="5.8155">
        <ele>1862.69</ele>
        <time>2015-02-15T09:43:28Z</time>
      </trkpt>
      <trkpt lat="45.38035" lon="5.81547">
        <ele>1864.13</ele>
        <time>2015-02-15T09:43:36Z</time>
      </trkpt>
      <trkpt lat="45.38028" lon="5.81544">
        <ele>1864.61</ele>
        <time>2015-02-15T09:43:44Z</time>
      </trkpt>
      <trkpt lat="45.38021" lon="5.81538">
        <ele>1865.09</ele>
        <time>2015-02-15T09:43:51Z</time>
      </trkpt>
      <trkpt lat="45.38016" lon="5.81535">
        <ele>1866.54</ele>
        <time>2015-02-15T09:43:58Z</time>
      </trkpt>
      <trkpt lat="45.3801" lon="5.81532">
        <ele>1867.5</ele>
        <time>2015-02-15T09:44:04Z</time>
      </trkpt>
      <trkpt lat="45.38007" lon="5.8153">
        <ele>1867.98</ele>
        <time>2015-02-15T09:44:08Z</time>
      </trkpt>
      <trkpt lat="45.38" lon="5.81527">
        <ele>1867.5</ele>
        <time>2015-02-15T09:44:16Z</time>
      </trkpt>
      <trkpt lat="45.37996" lon="5.81525">
        <ele>1867.98</ele>
        <time>2015-02-15T09:44:23Z</time>
      </trkpt>
      <trkpt lat="45.37995" lon="5.81525">
        <ele>1867.98</ele>
        <time>2015-02-15T09:44:24Z</time>
      </trkpt>
      <trkpt lat="45.3799" lon="5.81522">
        <ele>1866.54</ele>
        <time>2015-02-15T09:44:28Z</time>
      </trkpt>
      <trkpt lat="45.37985" lon="5.81519">
        <ele>1868.46</ele>
        <time>2015-02-15T09:44:36Z</time>
      </trkpt>
      <trkpt lat="45.37983" lon="5.81517">
        <ele>1868.46</ele>
        <time>2015-02-15T09:44:41Z</time>
      </trkpt>
      <trkpt lat="45.37981" lon="5.81515">
        <ele>1868.46</ele>
        <time>2015-02-15T09:44:47Z</time>
      </trkpt>
      <trkpt lat="45.37981" lon="5.81515">
        <ele>1867.02</ele>
        <time>2015-02-15T09:44:49Z</time>
      </trkpt>
      <trkpt lat="45.37981" lon="5.81514">
        <ele>1866.54</ele>
        <time>2015-02-15T09:44:54Z</time>
      </trkpt>
      <trkpt lat="45.37981" lon="5.81514">
        <ele>1866.54</ele>
        <time>2015-02-15T09:44:55Z</time>
      </trkpt>
      <trkpt lat="45.3798" lon="5.81512">
        <ele>1865.58</ele>
        <time>2015-02-15T09:45:00Z</time>
      </trkpt>
      <trkpt lat="45.37977" lon="5.81512">
        <ele>1865.09</ele>
        <time>2015-02-15T09:45:06Z</time>
      </trkpt>
      <trkpt lat="45.37971" lon="5.81513">
        <ele>1865.09</ele>
        <time>2015-02-15T09:45:13Z</time>
      </trkpt>
      <trkpt lat="45.37967" lon="5.81511">
        <ele>1867.5</ele>
        <time>2015-02-15T09:45:20Z</time>
      </trkpt>
      <trkpt lat="45.37961" lon="5.81508">
        <ele>1868.46</ele>
        <time>2015-02-15T09:45:27Z</time>
      </trkpt>
      <trkpt lat="45.37953" lon="5.81503">
        <ele>1868.94</ele>
        <time>2015-02-15T09:45:34Z</time>
      </trkpt>
      <trkpt lat="45.37947" lon="5.81499">
        <ele>1870.38</ele>
        <time>2015-02-15T09:45:41Z</time>
      </trkpt>
      <trkpt lat="45.37941" lon="5.81494">
        <ele>1871.82</ele>
        <time>2015-02-15T09:45:49Z</time>
      </trkpt>
      <trkpt lat="45.37933" lon="5.81491">
        <ele>1872.3</ele>
        <time>2015-02-15T09:45:57Z</time>
      </trkpt>
      <trkpt lat="45.37927" lon="5.81487">
        <ele>1873.27</ele>
        <time>2015-02-15T09:46:04Z</time>
      </trkpt>
      <trkpt lat="45.37921" lon="5.81484">
        <ele>1874.23</ele>
        <time>2015-02-15T09:46:12Z</time>
      </trkpt>
      <trkpt lat="45.37912" lon="5.81479">
        <ele>1872.3</ele>
        <time>2015-02-15T09:46:17Z</time>
      </trkpt>
      <trkpt lat="45.37905" lon="5.81476">
        <ele>1871.82</ele>
        <time>2015-02-15T09:46:23Z</time>
      </trkpt>
      <trkpt lat="45.37898" lon="5.81473">
        <ele>1871.82</ele>
        <time>2015-02-15T09:46:30Z</time>
      </trkpt>
      <trkpt lat="45.37895" lon="5.81473">
        <ele>1871.82</ele>
        <time>2015-02-15T09:46:33Z</time>
      </trkpt>
      <trkpt lat="45.37892" lon="5.81472">
        <ele>1871.82</ele>
        <time>2015-02-15T09:46:36Z</time>
      </trkpt>
      <trkpt lat="45.37883" lon="5.81469">
        <ele>1871.82</ele>
        <time>2015-02-15T09:46:44Z</time>
      </trkpt>
      <trkpt lat="45.37876" lon="5.81468">
        <ele>1872.79</ele>
        <time>2015-02-15T09:46:52Z</time>
      </trkpt>
      <trkpt lat="45.3787" lon="5.81466">
        <ele>1874.23</ele>
        <time>2015-02-15T09:46:59Z</time>
      </trkpt>
      <trkpt lat="45.37862" lon="5.81461">
        <ele>1874.23</ele>
        <time>2015-02-15T09:47:07Z</time>
      </trkpt>
      <trkpt lat="45.37858" lon="5.81459">
        <ele>1875.19</ele>
        <time>2015-02-15T09:47:13Z</time>
      </trkpt>
      <trkpt lat="45.37853" lon="5.81459">
        <ele>1876.63</ele>
        <time>2015-02-15T09:47:21Z</time>
      </trkpt>
      <trkpt lat="45.37846" lon="5.81458">
        <ele>1878.55</ele>
        <time>2015-02-15T09:47:32Z</time>
      </trkpt>
      <trkpt lat="45.37841" lon="5.81458">
        <ele>1880</ele>
        <time>2015-02-15T09:47:41Z</time>
      </trkpt>
      <trkpt lat="45.37836" lon="5.81458">
        <ele>1881.44</ele>
        <time>2015-02-15T09:47:49Z</time>
      </trkpt>
      <trkpt lat="45.37829" lon="5.81458">
        <ele>1883.36</ele>
        <time>2015-02-15T09:47:58Z</time>
      </trkpt>
      <trkpt lat="45.37825" lon="5.81457">
        <ele>1884.8</ele>
        <time>2015-02-15T09:48:08Z</time>
      </trkpt>
      <trkpt lat="45.3782" lon="5.81457">
        <ele>1886.24</ele>
        <time>2015-02-15T09:48:17Z</time>
      </trkpt>
      <trkpt lat="45.37817" lon="5.81456">
        <ele>1887.21</ele>
        <time>2015-02-15T09:48:25Z</time>
      </trkpt>
      <trkpt lat="45.37814" lon="5.81457">
        <ele>1888.17</ele>
        <time>2015-02-15T09:48:33Z</time>
      </trkpt>
      <trkpt lat="45.37809" lon="5.81457">
        <ele>1889.61</ele>
        <time>2015-02-15T09:48:41Z</time>
      </trkpt>
      <trkpt lat="45.37802" lon="5.81456">
        <ele>1891.05</ele>
        <time>2015-02-15T09:48:51Z</time>
      </trkpt>
      <trkpt lat="45.37799" lon="5.81455">
        <ele>1892.01</ele>
        <time>2015-02-15T09:48:57Z</time>
      </trkpt>
      <trkpt lat="45.37796" lon="5.81456">
        <ele>1892.49</ele>
        <time>2015-02-15T09:49:00Z</time>
      </trkpt>
      <trkpt lat="45.37789" lon="5.81456">
        <ele>1893.93</ele>
        <time>2015-02-15T09:49:09Z</time>
      </trkpt>
      <trkpt lat="45.37784" lon="5.81456">
        <ele>1894.42</ele>
        <time>2015-02-15T09:49:17Z</time>
      </trkpt>
      <trkpt lat="45.3778" lon="5.81456">
        <ele>1894.9</ele>
        <time>2015-02-15T09:49:22Z</time>
      </trkpt>
      <trkpt lat="45.37772" lon="5.81456">
        <ele>1895.38</ele>
        <time>2015-02-15T09:49:32Z</time>
      </trkpt>
      <trkpt lat="45.37767" lon="5.81457">
        <ele>1896.34</ele>
        <time>2015-02-15T09:49:39Z</time>
      </trkpt>
      <trkpt lat="45.3776" lon="5.81459">
        <ele>1897.78</ele>
        <time>2015-02-15T09:49:49Z</time>
      </trkpt>
      <trkpt lat="45.37753" lon="5.81461">
        <ele>1898.26</ele>
        <time>2015-02-15T09:49:57Z</time>
      </trkpt>
      <trkpt lat="45.37748" lon="5.81462">
        <ele>1899.22</ele>
        <time>2015-02-15T09:50:04Z</time>
      </trkpt>
      <trkpt lat="45.37744" lon="5.81461">
        <ele>1899.7</ele>
        <time>2015-02-15T09:50:11Z</time>
      </trkpt>
      <trkpt lat="45.3774" lon="5.8146">
        <ele>1901.63</ele>
        <time>2015-02-15T09:50:18Z</time>
      </trkpt>
      <trkpt lat="45.37734" lon="5.81459">
        <ele>1903.07</ele>
        <time>2015-02-15T09:50:27Z</time>
      </trkpt>
      <trkpt lat="45.37728" lon="5.81456">
        <ele>1905.47</ele>
        <time>2015-02-15T09:50:37Z</time>
      </trkpt>
      <trkpt lat="45.37724" lon="5.81457">
        <ele>1906.43</ele>
        <time>2015-02-15T09:50:45Z</time>
      </trkpt>
      <trkpt lat="45.37719" lon="5.81456">
        <ele>1908.35</ele>
        <time>2015-02-15T09:50:53Z</time>
      </trkpt>
      <trkpt lat="45.37718" lon="5.81454">
        <ele>1908.83</ele>
        <time>2015-02-15T09:51:01Z</time>
      </trkpt>
      <trkpt lat="45.37716" lon="5.81453">
        <ele>1909.8</ele>
        <time>2015-02-15T09:51:10Z</time>
      </trkpt>
      <trkpt lat="45.37711" lon="5.81451">
        <ele>1910.76</ele>
        <time>2015-02-15T09:51:17Z</time>
      </trkpt>
      <trkpt lat="45.37706" lon="5.81448">
        <ele>1911.24</ele>
        <time>2015-02-15T09:51:23Z</time>
      </trkpt>
      <trkpt lat="45.377" lon="5.81441">
        <ele>1909.8</ele>
        <time>2015-02-15T09:51:32Z</time>
      </trkpt>
      <trkpt lat="45.377" lon="5.8144">
        <ele>1909.8</ele>
        <time>2015-02-15T09:51:33Z</time>
      </trkpt>
      <trkpt lat="45.37695" lon="5.81435">
        <ele>1909.8</ele>
        <time>2015-02-15T09:51:40Z</time>
      </trkpt>
      <trkpt lat="45.3769" lon="5.81431">
        <ele>1911.24</ele>
        <time>2015-02-15T09:51:48Z</time>
      </trkpt>
      <trkpt lat="45.37685" lon="5.81428">
        <ele>1911.24</ele>
        <time>2015-02-15T09:51:55Z</time>
      </trkpt>
      <trkpt lat="45.3768" lon="5.81425">
        <ele>1911.24</ele>
        <time>2015-02-15T09:52:02Z</time>
      </trkpt>
      <trkpt lat="45.37674" lon="5.81419">
        <ele>1912.2</ele>
        <time>2015-02-15T09:52:10Z</time>
      </trkpt>
      <trkpt lat="45.3767" lon="5.81415">
        <ele>1913.16</ele>
        <time>2015-02-15T09:52:17Z</time>
      </trkpt>
      <trkpt lat="45.37664" lon="5.81411">
        <ele>1914.12</ele>
        <time>2015-02-15T09:52:26Z</time>
      </trkpt>
      <trkpt lat="45.3766" lon="5.81409">
        <ele>1915.56</ele>
        <time>2015-02-15T09:52:35Z</time>
      </trkpt>
      <trkpt lat="45.37655" lon="5.81406">
        <ele>1917.01</ele>
        <time>2015-02-15T09:52:43Z</time>
      </trkpt>
      <trkpt lat="45.3765" lon="5.81402">
        <ele>1917.97</ele>
        <time>2015-02-15T09:52:50Z</time>
      </trkpt>
      <trkpt lat="45.37646" lon="5.81402">
        <ele>1918.93</ele>
        <time>2015-02-15T09:52:57Z</time>
      </trkpt>
      <trkpt lat="45.37642" lon="5.81398">
        <ele>1920.37</ele>
        <time>2015-02-15T09:53:05Z</time>
      </trkpt>
      <trkpt lat="45.37639" lon="5.81395">
        <ele>1922.29</ele>
        <time>2015-02-15T09:53:13Z</time>
      </trkpt>
      <trkpt lat="45.37637" lon="5.81397">
        <ele>1922.77</ele>
        <time>2015-02-15T09:53:18Z</time>
      </trkpt>
      <trkpt lat="45.37636" lon="5.81398">
        <ele>1922.77</ele>
        <time>2015-02-15T09:53:23Z</time>
      </trkpt>
      <trkpt lat="45.37637" lon="5.81399">
        <ele>1923.25</ele>
        <time>2015-02-15T09:53:31Z</time>
      </trkpt>
      <trkpt lat="45.37639" lon="5.81398">
        <ele>1924.22</ele>
        <time>2015-02-15T09:53:37Z</time>
      </trkpt>
      <trkpt lat="45.37641" lon="5.81397">
        <ele>1925.66</ele>
        <time>2015-02-15T09:53:44Z</time>
      </trkpt>
      <trkpt lat="45.3764" lon="5.81397">
        <ele>1925.66</ele>
        <time>2015-02-15T09:53:46Z</time>
      </trkpt>
      <trkpt lat="45.3764" lon="5.81395">
        <ele>1925.66</ele>
        <time>2015-02-15T09:53:52Z</time>
      </trkpt>
      <trkpt lat="45.37638" lon="5.81392">
        <ele>1926.62</ele>
        <time>2015-02-15T09:54:00Z</time>
      </trkpt>
      <trkpt lat="45.37635" lon="5.81387">
        <ele>1928.06</ele>
        <time>2015-02-15T09:54:08Z</time>
      </trkpt>
      <trkpt lat="45.37628" lon="5.81384">
        <ele>1929.98</ele>
        <time>2015-02-15T09:54:18Z</time>
      </trkpt>
      <trkpt lat="45.37624" lon="5.81382">
        <ele>1931.43</ele>
        <time>2015-02-15T09:54:26Z</time>
      </trkpt>
      <trkpt lat="45.37621" lon="5.8138">
        <ele>1933.35</ele>
        <time>2015-02-15T09:54:35Z</time>
      </trkpt>
      <trkpt lat="45.37617" lon="5.81376">
        <ele>1934.31</ele>
        <time>2015-02-15T09:54:44Z</time>
      </trkpt>
      <trkpt lat="45.37612" lon="5.81373">
        <ele>1936.23</ele>
        <time>2015-02-15T09:54:53Z</time>
      </trkpt>
      <trkpt lat="45.37605" lon="5.8137">
        <ele>1937.19</ele>
        <time>2015-02-15T09:55:01Z</time>
      </trkpt>
      <trkpt lat="45.376" lon="5.81367">
        <ele>1938.64</ele>
        <time>2015-02-15T09:55:11Z</time>
      </trkpt>
      <trkpt lat="45.37594" lon="5.81365">
        <ele>1940.56</ele>
        <time>2015-02-15T09:55:19Z</time>
      </trkpt>
      <trkpt lat="45.3759" lon="5.81362">
        <ele>1941.04</ele>
        <time>2015-02-15T09:55:25Z</time>
      </trkpt>
      <trkpt lat="45.37586" lon="5.8136">
        <ele>1942</ele>
        <time>2015-02-15T09:55:33Z</time>
      </trkpt>
      <trkpt lat="45.3758" lon="5.81357">
        <ele>1943.92</ele>
        <time>2015-02-15T09:55:41Z</time>
      </trkpt>
      <trkpt lat="45.37576" lon="5.81355">
        <ele>1944.88</ele>
        <time>2015-02-15T09:55:49Z</time>
      </trkpt>
      <trkpt lat="45.37572" lon="5.81354">
        <ele>1946.33</ele>
        <time>2015-02-15T09:55:57Z</time>
      </trkpt>
      <trkpt lat="45.37568" lon="5.81354">
        <ele>1947.29</ele>
        <time>2015-02-15T09:56:03Z</time>
      </trkpt>
      <trkpt lat="45.37563" lon="5.81352">
        <ele>1948.73</ele>
        <time>2015-02-15T09:56:11Z</time>
      </trkpt>
      <trkpt lat="45.3756" lon="5.81351">
        <ele>1950.65</ele>
        <time>2015-02-15T09:56:18Z</time>
      </trkpt>
      <trkpt lat="45.37555" lon="5.81349">
        <ele>1951.61</ele>
        <time>2015-02-15T09:56:27Z</time>
      </trkpt>
      <trkpt lat="45.37552" lon="5.81348">
        <ele>1953.06</ele>
        <time>2015-02-15T09:56:34Z</time>
      </trkpt>
      <trkpt lat="45.37546" lon="5.81346">
        <ele>1954.02</ele>
        <time>2015-02-15T09:56:41Z</time>
      </trkpt>
      <trkpt lat="45.37546" lon="5.81346">
        <ele>1954.5</ele>
        <time>2015-02-15T09:56:49Z</time>
      </trkpt>
      <trkpt lat="45.37541" lon="5.81344">
        <ele>1955.94</ele>
        <time>2015-02-15T09:56:56Z</time>
      </trkpt>
      <trkpt lat="45.3754" lon="5.81344">
        <ele>1955.94</ele>
        <time>2015-02-15T09:57:03Z</time>
      </trkpt>
      <trkpt lat="45.3754" lon="5.81345">
        <ele>1955.94</ele>
        <time>2015-02-15T09:57:12Z</time>
      </trkpt>
      <trkpt lat="45.3754" lon="5.81346">
        <ele>1955.94</ele>
        <time>2015-02-15T09:57:20Z</time>
      </trkpt>
      <trkpt lat="45.3754" lon="5.81346">
        <ele>1955.94</ele>
        <time>2015-02-15T09:57:29Z</time>
      </trkpt>
      <trkpt lat="45.3754" lon="5.81346">
        <ele>1955.94</ele>
        <time>2015-02-15T09:57:37Z</time>
      </trkpt>
      <trkpt lat="45.37538" lon="5.81345">
        <ele>1955.94</ele>
        <time>2015-02-15T09:57:42Z</time>
      </trkpt>
      <trkpt lat="45.37533" lon="5.81343">
        <ele>1956.9</ele>
        <time>2015-02-15T09:57:47Z</time>
      </trkpt>
      <trkpt lat="45.37528" lon="5.81342">
        <ele>1956.9</ele>
        <time>2015-02-15T09:57:51Z</time>
      </trkpt>
      <trkpt lat="45.37518" lon="5.81337">
        <ele>1956.9</ele>
        <time>2015-02-15T09:57:58Z</time>
      </trkpt>
      <trkpt lat="45.37514" lon="5.81334">
        <ele>1957.38</ele>
        <time>2015-02-15T09:58:03Z</time>
      </trkpt>
      <trkpt lat="45.37504" lon="5.81328">
        <ele>1959.3</ele>
        <time>2015-02-15T09:58:13Z</time>
      </trkpt>
      <trkpt lat="45.37494" lon="5.81324">
        <ele>1960.75</ele>
        <time>2015-02-15T09:58:22Z</time>
      </trkpt>
      <trkpt lat="45.37482" lon="5.81321">
        <ele>1962.19</ele>
        <time>2015-02-15T09:58:33Z</time>
      </trkpt>
      <trkpt lat="45.37472" lon="5.8132">
        <ele>1963.15</ele>
        <time>2015-02-15T09:58:41Z</time>
      </trkpt>
      <trkpt lat="45.37462" lon="5.81319">
        <ele>1964.11</ele>
        <time>2015-02-15T09:58:48Z</time>
      </trkpt>
      <trkpt lat="45.37455" lon="5.81319">
        <ele>1964.11</ele>
        <time>2015-02-15T09:58:54Z</time>
      </trkpt>
      <trkpt lat="45.37443" lon="5.81317">
        <ele>1964.59</ele>
        <time>2015-02-15T09:59:03Z</time>
      </trkpt>
      <trkpt lat="45.37434" lon="5.81314">
        <ele>1964.59</ele>
        <time>2015-02-15T09:59:10Z</time>
      </trkpt>
      <trkpt lat="45.37424" lon="5.81311">
        <ele>1964.59</ele>
        <time>2015-02-15T09:59:17Z</time>
      </trkpt>
      <trkpt lat="45.3741" lon="5.81308">
        <ele>1964.59</ele>
        <time>2015-02-15T09:59:27Z</time>
      </trkpt>
      <trkpt lat="45.37399" lon="5.81306">
        <ele>1964.59</ele>
        <time>2015-02-15T09:59:35Z</time>
      </trkpt>
      <trkpt lat="45.37388" lon="5.81304">
        <ele>1964.59</ele>
        <time>2015-02-15T09:59:43Z</time>
      </trkpt>
      <trkpt lat="45.37378" lon="5.81301">
        <ele>1965.55</ele>
        <time>2015-02-15T09:59:51Z</time>
      </trkpt>
      <trkpt lat="45.37368" lon="5.81298">
        <ele>1966.03</ele>
        <time>2015-02-15T09:59:59Z</time>
      </trkpt>
      <trkpt lat="45.37358" lon="5.81296">
        <ele>1966.51</ele>
        <time>2015-02-15T10:00:06Z</time>
      </trkpt>
      <trkpt lat="45.37354" lon="5.81296">
        <ele>1966.51</ele>
        <time>2015-02-15T10:00:09Z</time>
      </trkpt>
      <trkpt lat="45.37346" lon="5.81292">
        <ele>1967.96</ele>
        <time>2015-02-15T10:00:17Z</time>
      </trkpt>
      <trkpt lat="45.3734" lon="5.81288">
        <ele>1969.88</ele>
        <time>2015-02-15T10:00:24Z</time>
      </trkpt>
      <trkpt lat="45.37331" lon="5.81284">
        <ele>1970.84</ele>
        <time>2015-02-15T10:00:32Z</time>
      </trkpt>
      <trkpt lat="45.37326" lon="5.81283">
        <ele>1972.28</ele>
        <time>2015-02-15T10:00:39Z</time>
      </trkpt>
      <trkpt lat="45.37325" lon="5.81283">
        <ele>1973.24</ele>
        <time>2015-02-15T10:00:41Z</time>
      </trkpt>
      <trkpt lat="45.3732" lon="5.81282">
        <ele>1974.2</ele>
        <time>2015-02-15T10:00:47Z</time>
      </trkpt>
      <trkpt lat="45.37311" lon="5.81278">
        <ele>1975.65</ele>
        <time>2015-02-15T10:00:56Z</time>
      </trkpt>
      <trkpt lat="45.37306" lon="5.81277">
        <ele>1975.17</ele>
        <time>2015-02-15T10:00:59Z</time>
      </trkpt>
      <trkpt lat="45.37299" lon="5.81274">
        <ele>1976.13</ele>
        <time>2015-02-15T10:01:08Z</time>
      </trkpt>
      <trkpt lat="45.37294" lon="5.8127">
        <ele>1978.05</ele>
        <time>2015-02-15T10:01:16Z</time>
      </trkpt>
      <trkpt lat="45.37289" lon="5.81266">
        <ele>1980.45</ele>
        <time>2015-02-15T10:01:26Z</time>
      </trkpt>
      <trkpt lat="45.37284" lon="5.81263">
        <ele>1981.9</ele>
        <time>2015-02-15T10:01:33Z</time>
      </trkpt>
      <trkpt lat="45.3728" lon="5.81257">
        <ele>1982.86</ele>
        <time>2015-02-15T10:01:41Z</time>
      </trkpt>
      <trkpt lat="45.37274" lon="5.81251">
        <ele>1984.3</ele>
        <time>2015-02-15T10:01:48Z</time>
      </trkpt>
      <trkpt lat="45.3727" lon="5.81246">
        <ele>1986.22</ele>
        <time>2015-02-15T10:01:56Z</time>
      </trkpt>
      <trkpt lat="45.37265" lon="5.81243">
        <ele>1988.14</ele>
        <time>2015-02-15T10:02:06Z</time>
      </trkpt>
      <trkpt lat="45.37261" lon="5.81243">
        <ele>1989.59</ele>
        <time>2015-02-15T10:02:14Z</time>
      </trkpt>
      <trkpt lat="45.37258" lon="5.81248">
        <ele>1991.51</ele>
        <time>2015-02-15T10:02:22Z</time>
      </trkpt>
      <trkpt lat="45.37257" lon="5.81249">
        <ele>1991.99</ele>
        <time>2015-02-15T10:02:26Z</time>
      </trkpt>
      <trkpt lat="45.37252" lon="5.81252">
        <ele>1994.39</ele>
        <time>2015-02-15T10:02:35Z</time>
      </trkpt>
      <trkpt lat="45.37246" lon="5.81253">
        <ele>1995.83</ele>
        <time>2015-02-15T10:02:42Z</time>
      </trkpt>
      <trkpt lat="45.37243" lon="5.81253">
        <ele>1997.76</ele>
        <time>2015-02-15T10:02:48Z</time>
      </trkpt>
      <trkpt lat="45.37237" lon="5.81248">
        <ele>1998.72</ele>
        <time>2015-02-15T10:02:57Z</time>
      </trkpt>
      <trkpt lat="45.37231" lon="5.81245">
        <ele>2000.16</ele>
        <time>2015-02-15T10:03:04Z</time>
      </trkpt>
      <trkpt lat="45.37225" lon="5.81245">
        <ele>2001.6</ele>
        <time>2015-02-15T10:03:12Z</time>
      </trkpt>
      <trkpt lat="45.37222" lon="5.81246">
        <ele>2002.56</ele>
        <time>2015-02-15T10:03:18Z</time>
      </trkpt>
      <trkpt lat="45.3722" lon="5.81247">
        <ele>2003.52</ele>
        <time>2015-02-15T10:03:22Z</time>
      </trkpt>
      <trkpt lat="45.37216" lon="5.81244">
        <ele>2005.45</ele>
        <time>2015-02-15T10:03:28Z</time>
      </trkpt>
      <trkpt lat="45.37211" lon="5.81239">
        <ele>2006.41</ele>
        <time>2015-02-15T10:03:35Z</time>
      </trkpt>
      <trkpt lat="45.37206" lon="5.81234">
        <ele>2008.33</ele>
        <time>2015-02-15T10:03:43Z</time>
      </trkpt>
      <trkpt lat="45.37203" lon="5.81232">
        <ele>2009.77</ele>
        <time>2015-02-15T10:03:49Z</time>
      </trkpt>
      <trkpt lat="45.37198" lon="5.81231">
        <ele>2010.25</ele>
        <time>2015-02-15T10:03:56Z</time>
      </trkpt>
      <trkpt lat="45.37194" lon="5.81231">
        <ele>2012.18</ele>
        <time>2015-02-15T10:04:02Z</time>
      </trkpt>
      <trkpt lat="45.37187" lon="5.8123">
        <ele>2013.62</ele>
        <time>2015-02-15T10:04:09Z</time>
      </trkpt>
      <trkpt lat="45.37184" lon="5.81229">
        <ele>2014.58</ele>
        <time>2015-02-15T10:04:13Z</time>
      </trkpt>
      <trkpt lat="45.37176" lon="5.81228">
        <ele>2016.5</ele>
        <time>2015-02-15T10:04:22Z</time>
      </trkpt>
      <trkpt lat="45.37174" lon="5.81227">
        <ele>2017.46</ele>
        <time>2015-02-15T10:04:24Z</time>
      </trkpt>
      <trkpt lat="45.37166" lon="5.81226">
        <ele>2018.43</ele>
        <time>2015-02-15T10:04:32Z</time>
      </trkpt>
      <trkpt lat="45.37159" lon="5.81225">
        <ele>2019.87</ele>
        <time>2015-02-15T10:04:40Z</time>
      </trkpt>
      <trkpt lat="45.37151" lon="5.81224">
        <ele>2021.79</ele>
        <time>2015-02-15T10:04:48Z</time>
      </trkpt>
      <trkpt lat="45.37143" lon="5.81222">
        <ele>2023.23</ele>
        <time>2015-02-15T10:04:56Z</time>
      </trkpt>
      <trkpt lat="45.37136" lon="5.81219">
        <ele>2024.19</ele>
        <time>2015-02-15T10:05:03Z</time>
      </trkpt>
      <trkpt lat="45.37129" lon="5.81214">
        <ele>2024.67</ele>
        <time>2015-02-15T10:05:10Z</time>
      </trkpt>
      <trkpt lat="45.37121" lon="5.81209">
        <ele>2025.64</ele>
        <time>2015-02-15T10:05:17Z</time>
      </trkpt>
      <trkpt lat="45.37114" lon="5.81206">
        <ele>2026.6</ele>
        <time>2015-02-15T10:05:24Z</time>
      </trkpt>
      <trkpt lat="45.37106" lon="5.81205">
        <ele>2026.6</ele>
        <time>2015-02-15T10:05:31Z</time>
      </trkpt>
      <trkpt lat="45.37101" lon="5.81204">
        <ele>2027.08</ele>
        <time>2015-02-15T10:05:37Z</time>
      </trkpt>
      <trkpt lat="45.37094" lon="5.81203">
        <ele>2028.04</ele>
        <time>2015-02-15T10:05:44Z</time>
      </trkpt>
      <trkpt lat="45.37089" lon="5.81202">
        <ele>2029.48</ele>
        <time>2015-02-15T10:05:50Z</time>
      </trkpt>
      <trkpt lat="45.37087" lon="5.81202">
        <ele>2029.96</ele>
        <time>2015-02-15T10:05:53Z</time>
      </trkpt>
      <trkpt lat="45.37081" lon="5.81201">
        <ele>2031.4</ele>
        <time>2015-02-15T10:06:00Z</time>
      </trkpt>
      <trkpt lat="45.37079" lon="5.81201">
        <ele>2031.88</ele>
        <time>2015-02-15T10:06:08Z</time>
      </trkpt>
      <trkpt lat="45.37079" lon="5.81201">
        <ele>2031.4</ele>
        <time>2015-02-15T10:06:11Z</time>
      </trkpt>
      <trkpt lat="45.37073" lon="5.81204">
        <ele>2031.4</ele>
        <time>2015-02-15T10:06:17Z</time>
      </trkpt>
      <trkpt lat="45.37066" lon="5.81205">
        <ele>2031.4</ele>
        <time>2015-02-15T10:06:22Z</time>
      </trkpt>
      <trkpt lat="45.37057" lon="5.81206">
        <ele>2031.88</ele>
        <time>2015-02-15T10:06:30Z</time>
      </trkpt>
      <trkpt lat="45.37052" lon="5.81206">
        <ele>2034.29</ele>
        <time>2015-02-15T10:06:38Z</time>
      </trkpt>
      <trkpt lat="45.37049" lon="5.81205">
        <ele>2035.73</ele>
        <time>2015-02-15T10:06:46Z</time>
      </trkpt>
      <trkpt lat="45.37047" lon="5.81204">
        <ele>2036.21</ele>
        <time>2015-02-15T10:06:57Z</time>
      </trkpt>
      <trkpt lat="45.37045" lon="5.81205">
        <ele>2036.21</ele>
        <time>2015-02-15T10:07:03Z</time>
      </trkpt>
      <trkpt lat="45.37044" lon="5.81205">
        <ele>2036.21</ele>
        <time>2015-02-15T10:07:13Z</time>
      </trkpt>
      <trkpt lat="45.37043" lon="5.81207">
        <ele>2036.21</ele>
        <time>2015-02-15T10:07:21Z</time>
      </trkpt>
      <trkpt lat="45.37043" lon="5.81206">
        <ele>2036.21</ele>
        <time>2015-02-15T10:07:22Z</time>
      </trkpt>
      <trkpt lat="45.37038" lon="5.81206">
        <ele>2036.69</ele>
        <time>2015-02-15T10:07:30Z</time>
      </trkpt>
      <trkpt lat="45.37039" lon="5.81205">
        <ele>2036.69</ele>
        <time>2015-02-15T10:07:35Z</time>
      </trkpt>
      <trkpt lat="45.37044" lon="5.81207">
        <ele>2036.69</ele>
        <time>2015-02-15T10:07:43Z</time>
      </trkpt>
      <trkpt lat="45.37045" lon="5.81207">
        <ele>2036.69</ele>
        <time>2015-02-15T10:07:55Z</time>
      </trkpt>
      <trkpt lat="45.37045" lon="5.81207">
        <ele>2034.77</ele>
        <time>2015-02-15T10:08:01Z</time>
      </trkpt>
      <trkpt lat="45.37046" lon="5.81206">
        <ele>2031.88</ele>
        <time>2015-02-15T10:08:20Z</time>
      </trkpt>
      <trkpt lat="45.37045" lon="5.81204">
        <ele>2033.33</ele>
        <time>2015-02-15T10:08:35Z</time>
      </trkpt>
      <trkpt lat="45.37045" lon="5.81205">
        <ele>2034.77</ele>
        <time>2015-02-15T10:08:37Z</time>
      </trkpt>
      <trkpt lat="45.37045" lon="5.81206">
        <ele>2034.77</ele>
        <time>2015-02-15T10:08:54Z</time>
      </trkpt>
      <trkpt lat="45.37046" lon="5.81205">
        <ele>2034.77</ele>
        <time>2015-02-15T10:09:19Z</time>
      </trkpt>
      <trkpt lat="45.37046" lon="5.81205">
        <ele>2034.77</ele>
        <time>2015-02-15T10:09:44Z</time>
      </trkpt>
      <trkpt lat="45.37046" lon="5.81206">
        <ele>2032.84</ele>
        <time>2015-02-15T10:10:06Z</time>
      </trkpt>
      <trkpt lat="45.37045" lon="5.81206">
        <ele>2032.84</ele>
        <time>2015-02-15T10:10:21Z</time>
      </trkpt>
      <trkpt lat="45.37045" lon="5.81206">
        <ele>2034.29</ele>
        <time>2015-02-15T10:10:26Z</time>
      </trkpt>
      <trkpt lat="45.37046" lon="5.81205">
        <ele>2036.21</ele>
        <time>2015-02-15T10:10:45Z</time>
      </trkpt>
      <trkpt lat="45.37045" lon="5.81205">
        <ele>2031.4</ele>
        <time>2015-02-15T10:10:49Z</time>
      </trkpt>
      <trkpt lat="45.37045" lon="5.81205">
        <ele>2033.81</ele>
        <time>2015-02-15T10:10:50Z</time>
      </trkpt>
      <trkpt lat="45.37045" lon="5.81205">
        <ele>2033.33</ele>
        <time>2015-02-15T10:10:57Z</time>
      </trkpt>
      <trkpt lat="45.37045" lon="5.81205">
        <ele>2034.77</ele>
        <time>2015-02-15T10:11:01Z</time>
      </trkpt>
      <trkpt lat="45.37045" lon="5.81205">
        <ele>2034.29</ele>
        <time>2015-02-15T10:11:29Z</time>
      </trkpt>
      <trkpt lat="45.37045" lon="5.81205">
        <ele>2034.29</ele>
        <time>2015-02-15T10:11:47Z</time>
      </trkpt>
      <trkpt lat="45.37045" lon="5.81205">
        <ele>2034.29</ele>
        <time>2015-02-15T10:12:08Z</time>
      </trkpt>
      <trkpt lat="45.37045" lon="5.81204">
        <ele>2034.29</ele>
        <time>2015-02-15T10:12:37Z</time>
      </trkpt>
      <trkpt lat="45.37044" lon="5.81204">
        <ele>2034.29</ele>
        <time>2015-02-15T10:13:00Z</time>
      </trkpt>
      <trkpt lat="45.37045" lon="5.81204">
        <ele>2034.29</ele>
        <time>2015-02-15T10:13:15Z</time>
      </trkpt>
      <trkpt lat="45.37045" lon="5.81203">
        <ele>2034.29</ele>
        <time>2015-02-15T10:13:36Z</time>
      </trkpt>
      <trkpt lat="45.37045" lon="5.81202">
        <ele>2034.29</ele>
        <time>2015-02-15T10:14:00Z</time>
      </trkpt>
      <trkpt lat="45.37045" lon="5.81203">
        <ele>2032.84</ele>
        <time>2015-02-15T10:14:07Z</time>
      </trkpt>
      <trkpt lat="45.37045" lon="5.81203">
        <ele>2034.77</ele>
        <time>2015-02-15T10:14:10Z</time>
      </trkpt>
      <trkpt lat="45.37045" lon="5.81204">
        <ele>2034.77</ele>
        <time>2015-02-15T10:14:19Z</time>
      </trkpt>
      <trkpt lat="45.37045" lon="5.81204">
        <ele>2034.29</ele>
        <time>2015-02-15T10:14:34Z</time>
      </trkpt>
      <trkpt lat="45.37045" lon="5.81203">
        <ele>2034.29</ele>
        <time>2015-02-15T10:14:45Z</time>
      </trkpt>
      <trkpt lat="45.37044" lon="5.81203">
        <ele>2034.29</ele>
        <time>2015-02-15T10:15:04Z</time>
      </trkpt>
      <trkpt lat="45.37045" lon="5.81203">
        <ele>2034.29</ele>
        <time>2015-02-15T10:15:14Z</time>
      </trkpt>
      <trkpt lat="45.37045" lon="5.81204">
        <ele>2034.29</ele>
        <time>2015-02-15T10:15:24Z</time>
      </trkpt>
      <trkpt lat="45.37045" lon="5.81206">
        <ele>2034.29</ele>
        <time>2015-02-15T10:15:32Z</time>
      </trkpt>
      <trkpt lat="45.37045" lon="5.81206">
        <ele>2034.29</ele>
        <time>2015-02-15T10:15:39Z</time>
      </trkpt>
      <trkpt lat="45.37047" lon="5.81205">
        <ele>2034.29</ele>
        <time>2015-02-15T10:15:42Z</time>
      </trkpt>
      <trkpt lat="45.37058" lon="5.81207">
        <ele>2031.88</ele>
        <time>2015-02-15T10:15:46Z</time>
      </trkpt>
      <trkpt lat="45.3707" lon="5.81206">
        <ele>2029.48</ele>
        <time>2015-02-15T10:15:48Z</time>
      </trkpt>
      <trkpt lat="45.3708" lon="5.81203">
        <ele>2029.48</ele>
        <time>2015-02-15T10:15:50Z</time>
      </trkpt>
      <trkpt lat="45.3709" lon="5.81202">
        <ele>2028.52</ele>
        <time>2015-02-15T10:15:52Z</time>
      </trkpt>
      <trkpt lat="45.37115" lon="5.81205">
        <ele>2024.67</ele>
        <time>2015-02-15T10:15:56Z</time>
      </trkpt>
      <trkpt lat="45.37121" lon="5.81206">
        <ele>2023.71</ele>
        <time>2015-02-15T10:15:57Z</time>
      </trkpt>
      <trkpt lat="45.37133" lon="5.81222">
        <ele>2022.27</ele>
        <time>2015-02-15T10:16:00Z</time>
      </trkpt>
      <trkpt lat="45.37144" lon="5.8124">
        <ele>2019.39</ele>
        <time>2015-02-15T10:16:03Z</time>
      </trkpt>
      <trkpt lat="45.37149" lon="5.81243">
        <ele>2019.39</ele>
        <time>2015-02-15T10:16:04Z</time>
      </trkpt>
      <trkpt lat="45.37155" lon="5.8125">
        <ele>2018.43</ele>
        <time>2015-02-15T10:16:07Z</time>
      </trkpt>
      <trkpt lat="45.37163" lon="5.81245">
        <ele>2017.94</ele>
        <time>2015-02-15T10:16:10Z</time>
      </trkpt>
      <trkpt lat="45.37173" lon="5.81232">
        <ele>2015.54</ele>
        <time>2015-02-15T10:16:13Z</time>
      </trkpt>
      <trkpt lat="45.3718" lon="5.81227">
        <ele>2014.58</ele>
        <time>2015-02-15T10:16:15Z</time>
      </trkpt>
      <trkpt lat="45.37196" lon="5.81225">
        <ele>2010.73</ele>
        <time>2015-02-15T10:16:19Z</time>
      </trkpt>
      <trkpt lat="45.37203" lon="5.81229">
        <ele>2007.37</ele>
        <time>2015-02-15T10:16:22Z</time>
      </trkpt>
      <trkpt lat="45.3721" lon="5.81227">
        <ele>2005.45</ele>
        <time>2015-02-15T10:16:24Z</time>
      </trkpt>
      <trkpt lat="45.37222" lon="5.81238">
        <ele>2000.64</ele>
        <time>2015-02-15T10:16:27Z</time>
      </trkpt>
      <trkpt lat="45.37231" lon="5.8125">
        <ele>1997.28</ele>
        <time>2015-02-15T10:16:30Z</time>
      </trkpt>
      <trkpt lat="45.37233" lon="5.81269">
        <ele>1996.32</ele>
        <time>2015-02-15T10:16:33Z</time>
      </trkpt>
      <trkpt lat="45.37239" lon="5.81289">
        <ele>1993.43</ele>
        <time>2015-02-15T10:16:37Z</time>
      </trkpt>
      <trkpt lat="45.37248" lon="5.81301">
        <ele>1989.59</ele>
        <time>2015-02-15T10:16:40Z</time>
      </trkpt>
      <trkpt lat="45.3725" lon="5.81313">
        <ele>1988.62</ele>
        <time>2015-02-15T10:16:42Z</time>
      </trkpt>
      <trkpt lat="45.3726" lon="5.81316">
        <ele>1984.78</ele>
        <time>2015-02-15T10:16:45Z</time>
      </trkpt>
      <trkpt lat="45.37269" lon="5.81328">
        <ele>1979.97</ele>
        <time>2015-02-15T10:16:48Z</time>
      </trkpt>
      <trkpt lat="45.37284" lon="5.81334">
        <ele>1975.65</ele>
        <time>2015-02-15T10:16:51Z</time>
      </trkpt>
      <trkpt lat="45.37298" lon="5.81334">
        <ele>1972.28</ele>
        <time>2015-02-15T10:16:53Z</time>
      </trkpt>
      <trkpt lat="45.37306" lon="5.81334">
        <ele>1971.8</ele>
        <time>2015-02-15T10:16:54Z</time>
      </trkpt>
      <trkpt lat="45.3732" lon="5.81338">
        <ele>1968.44</ele>
        <time>2015-02-15T10:16:56Z</time>
      </trkpt>
      <trkpt lat="45.37327" lon="5.81339">
        <ele>1967.96</ele>
        <time>2015-02-15T10:16:57Z</time>
      </trkpt>
      <trkpt lat="45.37366" lon="5.8133">
        <ele>1967.48</ele>
        <time>2015-02-15T10:17:06Z</time>
      </trkpt>
      <trkpt lat="45.37391" lon="5.81325">
        <ele>1965.55</ele>
        <time>2015-02-15T10:17:12Z</time>
      </trkpt>
      <trkpt lat="45.37429" lon="5.81321">
        <ele>1962.67</ele>
        <time>2015-02-15T10:17:21Z</time>
      </trkpt>
      <trkpt lat="45.37451" lon="5.81318">
        <ele>1961.23</ele>
        <time>2015-02-15T10:17:28Z</time>
      </trkpt>
      <trkpt lat="45.37469" lon="5.81317">
        <ele>1960.27</ele>
        <time>2015-02-15T10:17:35Z</time>
      </trkpt>
      <trkpt lat="45.37491" lon="5.81321">
        <ele>1958.34</ele>
        <time>2015-02-15T10:17:42Z</time>
      </trkpt>
      <trkpt lat="45.37508" lon="5.81334">
        <ele>1955.46</ele>
        <time>2015-02-15T10:17:48Z</time>
      </trkpt>
      <trkpt lat="45.37509" lon="5.81339">
        <ele>1955.46</ele>
        <time>2015-02-15T10:17:49Z</time>
      </trkpt>
      <trkpt lat="45.37518" lon="5.81347">
        <ele>1954.02</ele>
        <time>2015-02-15T10:17:52Z</time>
      </trkpt>
      <trkpt lat="45.37527" lon="5.81349">
        <ele>1951.61</ele>
        <time>2015-02-15T10:17:54Z</time>
      </trkpt>
      <trkpt lat="45.37543" lon="5.81348">
        <ele>1949.69</ele>
        <time>2015-02-15T10:17:58Z</time>
      </trkpt>
      <trkpt lat="45.37551" lon="5.81347">
        <ele>1948.73</ele>
        <time>2015-02-15T10:18:00Z</time>
      </trkpt>
      <trkpt lat="45.37569" lon="5.81342">
        <ele>1946.33</ele>
        <time>2015-02-15T10:18:04Z</time>
      </trkpt>
      <trkpt lat="45.37582" lon="5.81339">
        <ele>1943.92</ele>
        <time>2015-02-15T10:18:08Z</time>
      </trkpt>
      <trkpt lat="45.37583" lon="5.81342">
        <ele>1943.44</ele>
        <time>2015-02-15T10:18:16Z</time>
      </trkpt>
      <trkpt lat="45.37584" lon="5.81347">
        <ele>1943.44</ele>
        <time>2015-02-15T10:18:23Z</time>
      </trkpt>
      <trkpt lat="45.37592" lon="5.81349">
        <ele>1942.48</ele>
        <time>2015-02-15T10:18:26Z</time>
      </trkpt>
      <trkpt lat="45.37611" lon="5.81358">
        <ele>1938.64</ele>
        <time>2015-02-15T10:18:30Z</time>
      </trkpt>
      <trkpt lat="45.37621" lon="5.81361">
        <ele>1936.23</ele>
        <time>2015-02-15T10:18:32Z</time>
      </trkpt>
      <trkpt lat="45.37624" lon="5.8137">
        <ele>1933.83</ele>
        <time>2015-02-15T10:18:35Z</time>
      </trkpt>
      <trkpt lat="45.37626" lon="5.81373">
        <ele>1932.39</ele>
        <time>2015-02-15T10:18:36Z</time>
      </trkpt>
      <trkpt lat="45.37634" lon="5.81377">
        <ele>1928.54</ele>
        <time>2015-02-15T10:18:39Z</time>
      </trkpt>
      <trkpt lat="45.37633" lon="5.81384">
        <ele>1926.14</ele>
        <time>2015-02-15T10:18:42Z</time>
      </trkpt>
      <trkpt lat="45.37636" lon="5.8139">
        <ele>1922.77</ele>
        <time>2015-02-15T10:18:44Z</time>
      </trkpt>
      <trkpt lat="45.3764" lon="5.81393">
        <ele>1920.37</ele>
        <time>2015-02-15T10:18:47Z</time>
      </trkpt>
      <trkpt lat="45.37649" lon="5.81401">
        <ele>1914.6</ele>
        <time>2015-02-15T10:18:51Z</time>
      </trkpt>
      <trkpt lat="45.37661" lon="5.81407">
        <ele>1910.76</ele>
        <time>2015-02-15T10:18:55Z</time>
      </trkpt>
      <trkpt lat="45.37681" lon="5.81419">
        <ele>1907.39</ele>
        <time>2015-02-15T10:19:00Z</time>
      </trkpt>
      <trkpt lat="45.37689" lon="5.81424">
        <ele>1906.91</ele>
        <time>2015-02-15T10:19:02Z</time>
      </trkpt>
      <trkpt lat="45.37706" lon="5.81438">
        <ele>1904.99</ele>
        <time>2015-02-15T10:19:07Z</time>
      </trkpt>
      <trkpt lat="45.37714" lon="5.81443">
        <ele>1905.47</ele>
        <time>2015-02-15T10:19:11Z</time>
      </trkpt>
      <trkpt lat="45.3772" lon="5.81444">
        <ele>1903.55</ele>
        <time>2015-02-15T10:19:13Z</time>
      </trkpt>
      <trkpt lat="45.37744" lon="5.81444">
        <ele>1902.11</ele>
        <time>2015-02-15T10:19:21Z</time>
      </trkpt>
      <trkpt lat="45.37763" lon="5.81441">
        <ele>1898.74</ele>
        <time>2015-02-15T10:19:28Z</time>
      </trkpt>
      <trkpt lat="45.37768" lon="5.81441">
        <ele>1897.78</ele>
        <time>2015-02-15T10:19:30Z</time>
      </trkpt>
      <trkpt lat="45.3777" lon="5.81442">
        <ele>1896.82</ele>
        <time>2015-02-15T10:19:31Z</time>
      </trkpt>
      <trkpt lat="45.37771" lon="5.81447">
        <ele>1895.86</ele>
        <time>2015-02-15T10:19:33Z</time>
      </trkpt>
      <trkpt lat="45.37771" lon="5.81456">
        <ele>1891.53</ele>
        <time>2015-02-15T10:19:36Z</time>
      </trkpt>
      <trkpt lat="45.37775" lon="5.81457">
        <ele>1889.61</ele>
        <time>2015-02-15T10:19:37Z</time>
      </trkpt>
      <trkpt lat="45.37792" lon="5.81457">
        <ele>1885.28</ele>
        <time>2015-02-15T10:19:42Z</time>
      </trkpt>
      <trkpt lat="45.37808" lon="5.81457">
        <ele>1881.92</ele>
        <time>2015-02-15T10:19:47Z</time>
      </trkpt>
      <trkpt lat="45.37825" lon="5.81456">
        <ele>1878.07</ele>
        <time>2015-02-15T10:19:52Z</time>
      </trkpt>
      <trkpt lat="45.37839" lon="5.81455">
        <ele>1874.71</ele>
        <time>2015-02-15T10:19:56Z</time>
      </trkpt>
      <trkpt lat="45.3785" lon="5.81456">
        <ele>1871.34</ele>
        <time>2015-02-15T10:20:00Z</time>
      </trkpt>
      <trkpt lat="45.37865" lon="5.81461">
        <ele>1868.46</ele>
        <time>2015-02-15T10:20:03Z</time>
      </trkpt>
      <trkpt lat="45.37881" lon="5.81464">
        <ele>1867.5</ele>
        <time>2015-02-15T10:20:06Z</time>
      </trkpt>
      <trkpt lat="45.37893" lon="5.81469">
        <ele>1866.54</ele>
        <time>2015-02-15T10:20:09Z</time>
      </trkpt>
      <trkpt lat="45.37905" lon="5.81474">
        <ele>1865.58</ele>
        <time>2015-02-15T10:20:14Z</time>
      </trkpt>
      <trkpt lat="45.37915" lon="5.81485">
        <ele>1865.09</ele>
        <time>2015-02-15T10:20:19Z</time>
      </trkpt>
      <trkpt lat="45.37921" lon="5.81491">
        <ele>1864.61</ele>
        <time>2015-02-15T10:20:25Z</time>
      </trkpt>
      <trkpt lat="45.37931" lon="5.81494">
        <ele>1863.65</ele>
        <time>2015-02-15T10:20:30Z</time>
      </trkpt>
      <trkpt lat="45.37944" lon="5.81501">
        <ele>1862.69</ele>
        <time>2015-02-15T10:20:36Z</time>
      </trkpt>
      <trkpt lat="45.37961" lon="5.81505">
        <ele>1860.77</ele>
        <time>2015-02-15T10:20:42Z</time>
      </trkpt>
      <trkpt lat="45.37963" lon="5.81506">
        <ele>1860.77</ele>
        <time>2015-02-15T10:20:44Z</time>
      </trkpt>
      <trkpt lat="45.37969" lon="5.81509">
        <ele>1860.29</ele>
        <time>2015-02-15T10:20:48Z</time>
      </trkpt>
      <trkpt lat="45.37978" lon="5.81508">
        <ele>1858.37</ele>
        <time>2015-02-15T10:20:52Z</time>
      </trkpt>
      <trkpt lat="45.37979" lon="5.81507">
        <ele>1858.37</ele>
        <time>2015-02-15T10:20:53Z</time>
      </trkpt>
      <trkpt lat="45.38" lon="5.81506">
        <ele>1853.56</ele>
        <time>2015-02-15T10:20:57Z</time>
      </trkpt>
      <trkpt lat="45.38013" lon="5.81512">
        <ele>1851.64</ele>
        <time>2015-02-15T10:20:59Z</time>
      </trkpt>
      <trkpt lat="45.38033" lon="5.81524">
        <ele>1848.75</ele>
        <time>2015-02-15T10:21:03Z</time>
      </trkpt>
      <trkpt lat="45.38052" lon="5.81536">
        <ele>1845.39</ele>
        <time>2015-02-15T10:21:07Z</time>
      </trkpt>
      <trkpt lat="45.3808" lon="5.81548">
        <ele>1840.58</ele>
        <time>2015-02-15T10:21:12Z</time>
      </trkpt>
      <trkpt lat="45.38111" lon="5.81556">
        <ele>1838.66</ele>
        <time>2015-02-15T10:21:18Z</time>
      </trkpt>
      <trkpt lat="45.38128" lon="5.81561">
        <ele>1836.26</ele>
        <time>2015-02-15T10:21:23Z</time>
      </trkpt>
      <trkpt lat="45.3813" lon="5.81563">
        <ele>1836.26</ele>
        <time>2015-02-15T10:21:30Z</time>
      </trkpt>
      <trkpt lat="45.38131" lon="5.81563">
        <ele>1836.26</ele>
        <time>2015-02-15T10:21:31Z</time>
      </trkpt>
      <trkpt lat="45.38139" lon="5.81566">
        <ele>1834.81</ele>
        <time>2015-02-15T10:21:35Z</time>
      </trkpt>
      <trkpt lat="45.38144" lon="5.81558">
        <ele>1831.45</ele>
        <time>2015-02-15T10:21:39Z</time>
      </trkpt>
      <trkpt lat="45.38151" lon="5.81562">
        <ele>1828.08</ele>
        <time>2015-02-15T10:21:41Z</time>
      </trkpt>
      <trkpt lat="45.38164" lon="5.81569">
        <ele>1822.8</ele>
        <time>2015-02-15T10:21:45Z</time>
      </trkpt>
      <trkpt lat="45.38165" lon="5.81566">
        <ele>1821.84</ele>
        <time>2015-02-15T10:21:46Z</time>
      </trkpt>
      <trkpt lat="45.38174" lon="5.81563">
        <ele>1816.55</ele>
        <time>2015-02-15T10:21:49Z</time>
      </trkpt>
      <trkpt lat="45.38181" lon="5.81571">
        <ele>1813.66</ele>
        <time>2015-02-15T10:21:51Z</time>
      </trkpt>
      <trkpt lat="45.38199" lon="5.81582">
        <ele>1806.94</ele>
        <time>2015-02-15T10:21:56Z</time>
      </trkpt>
      <trkpt lat="45.38203" lon="5.81583">
        <ele>1805.49</ele>
        <time>2015-02-15T10:21:57Z</time>
      </trkpt>
      <trkpt lat="45.38217" lon="5.81593">
        <ele>1769</ele>
        <time>2015-02-15T10:22:01Z</time>
      </trkpt>
      <trkpt lat="45.3822" lon="5.81596">
        <ele>1769</ele>
        <time>2015-02-15T10:22:02Z</time>
      </trkpt>
      <trkpt lat="45.38229" lon="5.81598">
        <ele>1769</ele>
        <time>2015-02-15T10:22:05Z</time>
      </trkpt>
      <trkpt lat="45.38238" lon="5.81598">
        <ele>1769</ele>
        <time>2015-02-15T10:22:08Z</time>
      </trkpt>
      <trkpt lat="45.38241" lon="5.81601">
        <ele>1769</ele>
        <time>2015-02-15T10:22:09Z</time>
      </trkpt>
      <trkpt lat="45.38247" lon="5.81608">
        <ele>1769</ele>
        <time>2015-02-15T10:22:11Z</time>
      </trkpt>
      <trkpt lat="45.38252" lon="5.81612">
        <ele>1769</ele>
        <time>2015-02-15T10:22:17Z</time>
      </trkpt>
      <trkpt lat="45.38252" lon="5.81611">
        <ele>1769</ele>
        <time>2015-02-15T10:22:22Z</time>
      </trkpt>
      <trkpt lat="45.38259" lon="5.81609">
        <ele>1769</ele>
        <time>2015-02-15T10:22:26Z</time>
      </trkpt>
      <trkpt lat="45.38262" lon="5.81601">
        <ele>1769</ele>
        <time>2015-02-15T10:22:29Z</time>
      </trkpt>
      <trkpt lat="45.38269" lon="5.81608">
        <ele>1769</ele>
        <time>2015-02-15T10:22:31Z</time>
      </trkpt>
      <trkpt lat="45.38277" lon="5.81608">
        <ele>1769</ele>
        <time>2015-02-15T10:22:34Z</time>
      </trkpt>
      <trkpt lat="45.38281" lon="5.8161">
        <ele>1769</ele>
        <time>2015-02-15T10:22:37Z</time>
      </trkpt>
      <trkpt lat="45.38286" lon="5.81602">
        <ele>1769</ele>
        <time>2015-02-15T10:22:40Z</time>
      </trkpt>
      <trkpt lat="45.38287" lon="5.81597">
        <ele>1769</ele>
        <time>2015-02-15T10:22:42Z</time>
      </trkpt>
      <trkpt lat="45.3829" lon="5.81595">
        <ele>1769</ele>
        <time>2015-02-15T10:22:45Z</time>
      </trkpt>
      <trkpt lat="45.38298" lon="5.81613">
        <ele>1721</ele>
        <time>2015-02-15T10:22:51Z</time>
      </trkpt>
      <trkpt lat="45.38299" lon="5.81617">
        <ele>1721</ele>
        <time>2015-02-15T10:22:52Z</time>
      </trkpt>
      <trkpt lat="45.38298" lon="5.81624">
        <ele>1721</ele>
        <time>2015-02-15T10:22:58Z</time>
      </trkpt>
      <trkpt lat="45.38298" lon="5.81625">
        <ele>1721</ele>
        <time>2015-02-15T10:23:01Z</time>
      </trkpt>
      <trkpt lat="45.38302" lon="5.81624">
        <ele>1721</ele>
        <time>2015-02-15T10:23:05Z</time>
      </trkpt>
      <trkpt lat="45.38308" lon="5.8162">
        <ele>1721</ele>
        <time>2015-02-15T10:23:08Z</time>
      </trkpt>
      <trkpt lat="45.38314" lon="5.81623">
        <ele>1721</ele>
        <time>2015-02-15T10:23:11Z</time>
      </trkpt>
      <trkpt lat="45.38316" lon="5.8162">
        <ele>1721</ele>
        <time>2015-02-15T10:23:12Z</time>
      </trkpt>
      <trkpt lat="45.38321" lon="5.8162">
        <ele>1721</ele>
        <time>2015-02-15T10:23:14Z</time>
      </trkpt>
      <trkpt lat="45.38325" lon="5.81619">
        <ele>1721</ele>
        <time>2015-02-15T10:23:16Z</time>
      </trkpt>
      <trkpt lat="45.38331" lon="5.81616">
        <ele>1721</ele>
        <time>2015-02-15T10:23:20Z</time>
      </trkpt>
      <trkpt lat="45.38337" lon="5.81599">
        <ele>1721</ele>
        <time>2015-02-15T10:23:24Z</time>
      </trkpt>
      <trkpt lat="45.38342" lon="5.81583">
        <ele>1721</ele>
        <time>2015-02-15T10:23:27Z</time>
      </trkpt>
      <trkpt lat="45.38343" lon="5.81582">
        <ele>1721</ele>
        <time>2015-02-15T10:23:28Z</time>
      </trkpt>
      <trkpt lat="45.38341" lon="5.8158">
        <ele>1721</ele>
        <time>2015-02-15T10:23:33Z</time>
      </trkpt>
      <trkpt lat="45.38339" lon="5.81579">
        <ele>1721</ele>
        <time>2015-02-15T10:23:35Z</time>
      </trkpt>
      <trkpt lat="45.38344" lon="5.81581">
        <ele>1721</ele>
        <time>2015-02-15T10:23:39Z</time>
      </trkpt>
      <trkpt lat="45.38346" lon="5.81585">
        <ele>1721</ele>
        <time>2015-02-15T10:23:43Z</time>
      </trkpt>
      <trkpt lat="45.38354" lon="5.81593">
        <ele>1721</ele>
        <time>2015-02-15T10:23:49Z</time>
      </trkpt>
      <trkpt lat="45.38355" lon="5.81594">
        <ele>1721</ele>
        <time>2015-02-15T10:23:50Z</time>
      </trkpt>
      <trkpt lat="45.3836" lon="5.81592">
        <ele>1721</ele>
        <time>2015-02-15T10:23:53Z</time>
      </trkpt>
      <trkpt lat="45.38365" lon="5.81593">
        <ele>1721</ele>
        <time>2015-02-15T10:23:55Z</time>
      </trkpt>
      <trkpt lat="45.38369" lon="5.81588">
        <ele>1721</ele>
        <time>2015-02-15T10:23:59Z</time>
      </trkpt>
      <trkpt lat="45.38371" lon="5.81586">
        <ele>1721</ele>
        <time>2015-02-15T10:24:01Z</time>
      </trkpt>
      <trkpt lat="45.38368" lon="5.81585">
        <ele>1721</ele>
        <time>2015-02-15T10:24:03Z</time>
      </trkpt>
      <trkpt lat="45.38371" lon="5.81591">
        <ele>1721</ele>
        <time>2015-02-15T10:24:05Z</time>
      </trkpt>
      <trkpt lat="45.38375" lon="5.81593">
        <ele>1721</ele>
        <time>2015-02-15T10:24:10Z</time>
      </trkpt>
      <trkpt lat="45.38375" lon="5.81591">
        <ele>1697</ele>
        <time>2015-02-15T10:24:14Z</time>
      </trkpt>
      <trkpt lat="45.38373" lon="5.81579">
        <ele>1721</ele>
        <time>2015-02-15T10:24:18Z</time>
      </trkpt>
      <trkpt lat="45.38371" lon="5.81574">
        <ele>1721</ele>
        <time>2015-02-15T10:24:25Z</time>
      </trkpt>
      <trkpt lat="45.38372" lon="5.81571">
        <ele>1721</ele>
        <time>2015-02-15T10:24:29Z</time>
      </trkpt>
      <trkpt lat="45.38372" lon="5.81564">
        <ele>1721</ele>
        <time>2015-02-15T10:24:32Z</time>
      </trkpt>
      <trkpt lat="45.38373" lon="5.81561">
        <ele>1721</ele>
        <time>2015-02-15T10:24:34Z</time>
      </trkpt>
      <trkpt lat="45.38372" lon="5.81561">
        <ele>1721</ele>
        <time>2015-02-15T10:24:36Z</time>
      </trkpt>
      <trkpt lat="45.38375" lon="5.81555">
        <ele>1697</ele>
        <time>2015-02-15T10:24:39Z</time>
      </trkpt>
      <trkpt lat="45.38377" lon="5.8155">
        <ele>1697</ele>
        <time>2015-02-15T10:24:41Z</time>
      </trkpt>
      <trkpt lat="45.3838" lon="5.81548">
        <ele>1697</ele>
        <time>2015-02-15T10:24:43Z</time>
      </trkpt>
      <trkpt lat="45.38384" lon="5.81549">
        <ele>1697</ele>
        <time>2015-02-15T10:24:45Z</time>
      </trkpt>
      <trkpt lat="45.38389" lon="5.81542">
        <ele>1697</ele>
        <time>2015-02-15T10:24:47Z</time>
      </trkpt>
      <trkpt lat="45.38394" lon="5.81543">
        <ele>1697</ele>
        <time>2015-02-15T10:24:49Z</time>
      </trkpt>
      <trkpt lat="45.38388" lon="5.81549">
        <ele>1697</ele>
        <time>2015-02-15T10:24:51Z</time>
      </trkpt>
      <trkpt lat="45.38393" lon="5.81541">
        <ele>1678</ele>
        <time>2015-02-15T10:24:53Z</time>
      </trkpt>
      <trkpt lat="45.38396" lon="5.81506">
        <ele>1678</ele>
        <time>2015-02-15T10:24:57Z</time>
      </trkpt>
      <trkpt lat="45.38399" lon="5.81488">
        <ele>1678</ele>
        <time>2015-02-15T10:25:06Z</time>
      </trkpt>
      <trkpt lat="45.38401" lon="5.81481">
        <ele>1678</ele>
        <time>2015-02-15T10:25:18Z</time>
      </trkpt>
      <trkpt lat="45.38403" lon="5.81474">
        <ele>1678</ele>
        <time>2015-02-15T10:25:30Z</time>
      </trkpt>
      <trkpt lat="45.38405" lon="5.8147">
        <ele>1678</ele>
        <time>2015-02-15T10:25:42Z</time>
      </trkpt>
      <trkpt lat="45.38405" lon="5.81468">
        <ele>1678</ele>
        <time>2015-02-15T10:25:49Z</time>
      </trkpt>
      <trkpt lat="45.38408" lon="5.81464">
        <ele>1678</ele>
        <time>2015-02-15T10:26:02Z</time>
      </trkpt>
      <trkpt lat="45.38408" lon="5.81463">
        <ele>1678</ele>
        <time>2015-02-15T10:26:03Z</time>
      </trkpt>
      <trkpt lat="45.38412" lon="5.81458">
        <ele>1651</ele>
        <time>2015-02-15T10:26:16Z</time>
      </trkpt>
      <trkpt lat="45.38412" lon="5.81454">
        <ele>1651</ele>
        <time>2015-02-15T10:26:28Z</time>
      </trkpt>
      <trkpt lat="45.38412" lon="5.81453">
        <ele>1651</ele>
        <time>2015-02-15T10:26:35Z</time>
      </trkpt>
      <trkpt lat="45.38417" lon="5.81452">
        <ele>1651</ele>
        <time>2015-02-15T10:26:38Z</time>
      </trkpt>
      <trkpt lat="45.38415" lon="5.81433">
        <ele>1651</ele>
        <time>2015-02-15T10:26:42Z</time>
      </trkpt>
      <trkpt lat="45.38407" lon="5.8142">
        <ele>1651</ele>
        <time>2015-02-15T10:26:45Z</time>
      </trkpt>
      <trkpt lat="45.38401" lon="5.81412">
        <ele>1651</ele>
        <time>2015-02-15T10:26:48Z</time>
      </trkpt>
      <trkpt lat="45.38393" lon="5.81401">
        <ele>1651</ele>
        <time>2015-02-15T10:26:53Z</time>
      </trkpt>
      <trkpt lat="45.38391" lon="5.81399">
        <ele>1651</ele>
        <time>2015-02-15T10:26:54Z</time>
      </trkpt>
      <trkpt lat="45.3837" lon="5.81382">
        <ele>1668</ele>
        <time>2015-02-15T10:27:00Z</time>
      </trkpt>
      <trkpt lat="45.38363" lon="5.81376">
        <ele>1668</ele>
        <time>2015-02-15T10:27:03Z</time>
      </trkpt>
      <trkpt lat="45.38353" lon="5.8137">
        <ele>1653</ele>
        <time>2015-02-15T10:27:09Z</time>
      </trkpt>
      <trkpt lat="45.38343" lon="5.81368">
        <ele>1653</ele>
        <time>2015-02-15T10:27:18Z</time>
      </trkpt>
      <trkpt lat="45.38342" lon="5.81368">
        <ele>1653</ele>
        <time>2015-02-15T10:27:19Z</time>
      </trkpt>
      <trkpt lat="45.38341" lon="5.81363">
        <ele>1653</ele>
        <time>2015-02-15T10:27:23Z</time>
      </trkpt>
      <trkpt lat="45.3833" lon="5.81348">
        <ele>1653</ele>
        <time>2015-02-15T10:27:31Z</time>
      </trkpt>
      <trkpt lat="45.38316" lon="5.81334">
        <ele>1653</ele>
        <time>2015-02-15T10:27:37Z</time>
      </trkpt>
      <trkpt lat="45.38293" lon="5.81317">
        <ele>1653</ele>
        <time>2015-02-15T10:27:44Z</time>
      </trkpt>
      <trkpt lat="45.38273" lon="5.81303">
        <ele>1665</ele>
        <time>2015-02-15T10:27:51Z</time>
      </trkpt>
      <trkpt lat="45.38258" lon="5.81292">
        <ele>1665</ele>
        <time>2015-02-15T10:27:57Z</time>
      </trkpt>
      <trkpt lat="45.38247" lon="5.81282">
        <ele>1661</ele>
        <time>2015-02-15T10:28:03Z</time>
      </trkpt>
      <trkpt lat="45.38238" lon="5.81272">
        <ele>1661</ele>
        <time>2015-02-15T10:28:09Z</time>
      </trkpt>
      <trkpt lat="45.38236" lon="5.81268">
        <ele>1661</ele>
        <time>2015-02-15T10:28:15Z</time>
      </trkpt>
      <trkpt lat="45.38236" lon="5.81269">
        <ele>1661</ele>
        <time>2015-02-15T10:28:23Z</time>
      </trkpt>
      <trkpt lat="45.38233" lon="5.81265">
        <ele>1661</ele>
        <time>2015-02-15T10:28:30Z</time>
      </trkpt>
      <trkpt lat="45.3823" lon="5.81259">
        <ele>1661</ele>
        <time>2015-02-15T10:28:32Z</time>
      </trkpt>
      <trkpt lat="45.38221" lon="5.81248">
        <ele>1661</ele>
        <time>2015-02-15T10:28:35Z</time>
      </trkpt>
      <trkpt lat="45.38212" lon="5.81237">
        <ele>1661</ele>
        <time>2015-02-15T10:28:38Z</time>
      </trkpt>
      <trkpt lat="45.38204" lon="5.81207">
        <ele>1619</ele>
        <time>2015-02-15T10:28:41Z</time>
      </trkpt>
      <trkpt lat="45.38201" lon="5.81196">
        <ele>1622</ele>
        <time>2015-02-15T10:28:42Z</time>
      </trkpt>
      <trkpt lat="45.38189" lon="5.81166">
        <ele>1622</ele>
        <time>2015-02-15T10:28:45Z</time>
      </trkpt>
      <trkpt lat="45.38173" lon="5.81163">
        <ele>1622</ele>
        <time>2015-02-15T10:28:49Z</time>
      </trkpt>
      <trkpt lat="45.38173" lon="5.81166">
        <ele>1622</ele>
        <time>2015-02-15T10:28:51Z</time>
      </trkpt>
      <trkpt lat="45.3818" lon="5.8117">
        <ele>1622</ele>
        <time>2015-02-15T10:28:59Z</time>
      </trkpt>
      <trkpt lat="45.38179" lon="5.81172">
        <ele>1622</ele>
        <time>2015-02-15T10:29:13Z</time>
      </trkpt>
      <trkpt lat="45.38181" lon="5.81169">
        <ele>1622</ele>
        <time>2015-02-15T10:29:20Z</time>
      </trkpt>
      <trkpt lat="45.38191" lon="5.81164">
        <ele>1622</ele>
        <time>2015-02-15T10:29:25Z</time>
      </trkpt>
      <trkpt lat="45.38192" lon="5.81153">
        <ele>1622</ele>
        <time>2015-02-15T10:29:29Z</time>
      </trkpt>
      <trkpt lat="45.38195" lon="5.81149">
        <ele>1622</ele>
        <time>2015-02-15T10:29:31Z</time>
      </trkpt>
      <trkpt lat="45.38193" lon="5.81145">
        <ele>1594</ele>
        <time>2015-02-15T10:29:33Z</time>
      </trkpt>
      <trkpt lat="45.38192" lon="5.81143">
        <ele>1622</ele>
        <time>2015-02-15T10:29:34Z</time>
      </trkpt>
      <trkpt lat="45.38193" lon="5.8114">
        <ele>1622</ele>
        <time>2015-02-15T10:29:35Z</time>
      </trkpt>
      <trkpt lat="45.38193" lon="5.81132">
        <ele>1622</ele>
        <time>2015-02-15T10:29:38Z</time>
      </trkpt>
      <trkpt lat="45.38199" lon="5.81122">
        <ele>1590</ele>
        <time>2015-02-15T10:29:43Z</time>
      </trkpt>
      <trkpt lat="45.38203" lon="5.8112">
        <ele>1590</ele>
        <time>2015-02-15T10:29:54Z</time>
      </trkpt>
      <trkpt lat="45.38199" lon="5.81113">
        <ele>1590</ele>
        <time>2015-02-15T10:29:58Z</time>
      </trkpt>
      <trkpt lat="45.38192" lon="5.8111">
        <ele>1590</ele>
        <time>2015-02-15T10:30:01Z</time>
      </trkpt>
      <trkpt lat="45.3819" lon="5.81111">
        <ele>1590</ele>
        <time>2015-02-15T10:30:02Z</time>
      </trkpt>
      <trkpt lat="45.38186" lon="5.81114">
        <ele>1590</ele>
        <time>2015-02-15T10:30:04Z</time>
      </trkpt>
      <trkpt lat="45.3818" lon="5.81112">
        <ele>1590</ele>
        <time>2015-02-15T10:30:08Z</time>
      </trkpt>
      <trkpt lat="45.38178" lon="5.81113">
        <ele>1590</ele>
        <time>2015-02-15T10:30:09Z</time>
      </trkpt>
      <trkpt lat="45.38171" lon="5.81116">
        <ele>1590</ele>
        <time>2015-02-15T10:30:11Z</time>
      </trkpt>
      <trkpt lat="45.38158" lon="5.81119">
        <ele>1590</ele>
        <time>2015-02-15T10:30:15Z</time>
      </trkpt>
      <trkpt lat="45.38145" lon="5.81115">
        <ele>1590</ele>
        <time>2015-02-15T10:30:21Z</time>
      </trkpt>
      <trkpt lat="45.38137" lon="5.811">
        <ele>1590</ele>
        <time>2015-02-15T10:30:25Z</time>
      </trkpt>
      <trkpt lat="45.3814" lon="5.81094">
        <ele>1590</ele>
        <time>2015-02-15T10:30:28Z</time>
      </trkpt>
      <trkpt lat="45.38143" lon="5.8109">
        <ele>1590</ele>
        <time>2015-02-15T10:30:30Z</time>
      </trkpt>
      <trkpt lat="45.38145" lon="5.81087">
        <ele>1590</ele>
        <time>2015-02-15T10:30:32Z</time>
      </trkpt>
      <trkpt lat="45.38144" lon="5.8108">
        <ele>1590</ele>
        <time>2015-02-15T10:30:33Z</time>
      </trkpt>
      <trkpt lat="45.38143" lon="5.81067">
        <ele>1590</ele>
        <time>2015-02-15T10:30:35Z</time>
      </trkpt>
      <trkpt lat="45.38145" lon="5.81054">
        <ele>1590</ele>
        <time>2015-02-15T10:30:38Z</time>
      </trkpt>
      <trkpt lat="45.38144" lon="5.81052">
        <ele>1590</ele>
        <time>2015-02-15T10:30:41Z</time>
      </trkpt>
      <trkpt lat="45.38146" lon="5.81043">
        <ele>1590</ele>
        <time>2015-02-15T10:30:45Z</time>
      </trkpt>
      <trkpt lat="45.38144" lon="5.81037">
        <ele>1544</ele>
        <time>2015-02-15T10:30:47Z</time>
      </trkpt>
      <trkpt lat="45.38145" lon="5.81033">
        <ele>1544</ele>
        <time>2015-02-15T10:30:49Z</time>
      </trkpt>
      <trkpt lat="45.38143" lon="5.8102">
        <ele>1544</ele>
        <time>2015-02-15T10:30:52Z</time>
      </trkpt>
      <trkpt lat="45.38137" lon="5.81009">
        <ele>1544</ele>
        <time>2015-02-15T10:30:55Z</time>
      </trkpt>
      <trkpt lat="45.38137" lon="5.81007">
        <ele>1544</ele>
        <time>2015-02-15T10:30:57Z</time>
      </trkpt>
      <trkpt lat="45.38137" lon="5.80998">
        <ele>1544</ele>
        <time>2015-02-15T10:30:59Z</time>
      </trkpt>
      <trkpt lat="45.38135" lon="5.80985">
        <ele>1544</ele>
        <time>2015-02-15T10:31:02Z</time>
      </trkpt>
      <trkpt lat="45.38136" lon="5.80972">
        <ele>1544</ele>
        <time>2015-02-15T10:31:04Z</time>
      </trkpt>
      <trkpt lat="45.38134" lon="5.80961">
        <ele>1544</ele>
        <time>2015-02-15T10:31:07Z</time>
      </trkpt>
      <trkpt lat="45.38127" lon="5.80957">
        <ele>1521</ele>
        <time>2015-02-15T10:31:12Z</time>
      </trkpt>
      <trkpt lat="45.38122" lon="5.80957">
        <ele>1582</ele>
        <time>2015-02-15T10:31:15Z</time>
      </trkpt>
      <trkpt lat="45.38112" lon="5.8094">
        <ele>1582</ele>
        <time>2015-02-15T10:31:21Z</time>
      </trkpt>
      <trkpt lat="45.38105" lon="5.80929">
        <ele>1582</ele>
        <time>2015-02-15T10:31:25Z</time>
      </trkpt>
      <trkpt lat="45.38108" lon="5.80917">
        <ele>1582</ele>
        <time>2015-02-15T10:31:29Z</time>
      </trkpt>
      <trkpt lat="45.38105" lon="5.80908">
        <ele>1582</ele>
        <time>2015-02-15T10:31:32Z</time>
      </trkpt>
      <trkpt lat="45.38102" lon="5.80903">
        <ele>1507</ele>
        <time>2015-02-15T10:31:36Z</time>
      </trkpt>
      <trkpt lat="45.38099" lon="5.80908">
        <ele>1582</ele>
        <time>2015-02-15T10:31:47Z</time>
      </trkpt>
      <trkpt lat="45.38093" lon="5.80891">
        <ele>1582</ele>
        <time>2015-02-15T10:31:52Z</time>
      </trkpt>
      <trkpt lat="45.38092" lon="5.80887">
        <ele>1582</ele>
        <time>2015-02-15T10:31:53Z</time>
      </trkpt>
      <trkpt lat="45.38088" lon="5.80875">
        <ele>1582</ele>
        <time>2015-02-15T10:31:58Z</time>
      </trkpt>
      <trkpt lat="45.38089" lon="5.80872">
        <ele>1484</ele>
        <time>2015-02-15T10:32:00Z</time>
      </trkpt>
      <trkpt lat="45.38091" lon="5.80867">
        <ele>1484</ele>
        <time>2015-02-15T10:32:02Z</time>
      </trkpt>
      <trkpt lat="45.38088" lon="5.80864">
        <ele>1484</ele>
        <time>2015-02-15T10:32:04Z</time>
      </trkpt>
      <trkpt lat="45.38087" lon="5.80864">
        <ele>1484</ele>
        <time>2015-02-15T10:32:05Z</time>
      </trkpt>
      <trkpt lat="45.38084" lon="5.80858">
        <ele>1484</ele>
        <time>2015-02-15T10:32:08Z</time>
      </trkpt>
      <trkpt lat="45.38086" lon="5.80851">
        <ele>1484</ele>
        <time>2015-02-15T10:32:11Z</time>
      </trkpt>
      <trkpt lat="45.38082" lon="5.80842">
        <ele>1484</ele>
        <time>2015-02-15T10:32:13Z</time>
      </trkpt>
      <trkpt lat="45.38076" lon="5.80837">
        <ele>1484</ele>
        <time>2015-02-15T10:32:15Z</time>
      </trkpt>
      <trkpt lat="45.38071" lon="5.80833">
        <ele>1484</ele>
        <time>2015-02-15T10:32:17Z</time>
      </trkpt>
      <trkpt lat="45.38063" lon="5.80823">
        <ele>1484</ele>
        <time>2015-02-15T10:32:20Z</time>
      </trkpt>
      <trkpt lat="45.38066" lon="5.80814">
        <ele>1484</ele>
        <time>2015-02-15T10:32:23Z</time>
      </trkpt>
      <trkpt lat="45.38068" lon="5.80808">
        <ele>1484</ele>
        <time>2015-02-15T10:32:25Z</time>
      </trkpt>
      <trkpt lat="45.38073" lon="5.80806">
        <ele>1484</ele>
        <time>2015-02-15T10:32:27Z</time>
      </trkpt>
      <trkpt lat="45.38076" lon="5.80796">
        <ele>1484</ele>
        <time>2015-02-15T10:32:30Z</time>
      </trkpt>
      <trkpt lat="45.38068" lon="5.80792">
        <ele>1484</ele>
        <time>2015-02-15T10:32:34Z</time>
      </trkpt>
      <trkpt lat="45.38066" lon="5.80792">
        <ele>1484</ele>
        <time>2015-02-15T10:32:41Z</time>
      </trkpt>
      <trkpt lat="45.38063" lon="5.80791">
        <ele>1463</ele>
        <time>2015-02-15T10:32:51Z</time>
      </trkpt>
      <trkpt lat="45.3806" lon="5.80791">
        <ele>1463</ele>
        <time>2015-02-15T10:33:00Z</time>
      </trkpt>
      <trkpt lat="45.38048" lon="5.80783">
        <ele>1463</ele>
        <time>2015-02-15T10:33:04Z</time>
      </trkpt>
      <trkpt lat="45.38043" lon="5.80778">
        <ele>1463</ele>
        <time>2015-02-15T10:33:06Z</time>
      </trkpt>
      <trkpt lat="45.3804" lon="5.80771">
        <ele>1476</ele>
        <time>2015-02-15T10:33:11Z</time>
      </trkpt>
      <trkpt lat="45.38047" lon="5.80765">
        <ele>1463</ele>
        <time>2015-02-15T10:33:14Z</time>
      </trkpt>
      <trkpt lat="45.38049" lon="5.80759">
        <ele>1463</ele>
        <time>2015-02-15T10:33:16Z</time>
      </trkpt>
      <trkpt lat="45.38053" lon="5.80754">
        <ele>1463</ele>
        <time>2015-02-15T10:33:18Z</time>
      </trkpt>
      <trkpt lat="45.38054" lon="5.8075">
        <ele>1463</ele>
        <time>2015-02-15T10:33:19Z</time>
      </trkpt>
      <trkpt lat="45.38058" lon="5.80745">
        <ele>1463</ele>
        <time>2015-02-15T10:33:21Z</time>
      </trkpt>
      <trkpt lat="45.38058" lon="5.80738">
        <ele>1463</ele>
        <time>2015-02-15T10:33:23Z</time>
      </trkpt>
      <trkpt lat="45.38062" lon="5.80734">
        <ele>1463</ele>
        <time>2015-02-15T10:33:25Z</time>
      </trkpt>
      <trkpt lat="45.38061" lon="5.80733">
        <ele>1463</ele>
        <time>2015-02-15T10:33:28Z</time>
      </trkpt>
      <trkpt lat="45.38062" lon="5.8073">
        <ele>1463</ele>
        <time>2015-02-15T10:33:39Z</time>
      </trkpt>
      <trkpt lat="45.38062" lon="5.80733">
        <ele>1463</ele>
        <time>2015-02-15T10:33:48Z</time>
      </trkpt>
      <trkpt lat="45.38061" lon="5.80734">
        <ele>1463</ele>
        <time>2015-02-15T10:33:50Z</time>
      </trkpt>
      <trkpt lat="45.38063" lon="5.80726">
        <ele>1463</ele>
        <time>2015-02-15T10:33:53Z</time>
      </trkpt>
      <trkpt lat="45.38066" lon="5.80714">
        <ele>1463</ele>
        <time>2015-02-15T10:33:57Z</time>
      </trkpt>
      <trkpt lat="45.38067" lon="5.80715">
        <ele>1463</ele>
        <time>2015-02-15T10:34:00Z</time>
      </trkpt>
      <trkpt lat="45.38072" lon="5.80708">
        <ele>1437</ele>
        <time>2015-02-15T10:34:06Z</time>
      </trkpt>
      <trkpt lat="45.3807" lon="5.8071">
        <ele>1463</ele>
        <time>2015-02-15T10:34:11Z</time>
      </trkpt>
      <trkpt lat="45.38065" lon="5.80711">
        <ele>1463</ele>
        <time>2015-02-15T10:34:16Z</time>
      </trkpt>
      <trkpt lat="45.38064" lon="5.8071">
        <ele>1463</ele>
        <time>2015-02-15T10:34:18Z</time>
      </trkpt>
      <trkpt lat="45.3807" lon="5.80698">
        <ele>1437</ele>
        <time>2015-02-15T10:34:22Z</time>
      </trkpt>
      <trkpt lat="45.38068" lon="5.80697">
        <ele>1437</ele>
        <time>2015-02-15T10:34:25Z</time>
      </trkpt>
      <trkpt lat="45.38063" lon="5.80694">
        <ele>1437</ele>
        <time>2015-02-15T10:34:33Z</time>
      </trkpt>
      <trkpt lat="45.38062" lon="5.80691">
        <ele>1437</ele>
        <time>2015-02-15T10:34:36Z</time>
      </trkpt>
      <trkpt lat="45.38057" lon="5.80684">
        <ele>1437</ele>
        <time>2015-02-15T10:34:41Z</time>
      </trkpt>
      <trkpt lat="45.38057" lon="5.80683">
        <ele>1437</ele>
        <time>2015-02-15T10:34:42Z</time>
      </trkpt>
      <trkpt lat="45.38062" lon="5.80677">
        <ele>1437</ele>
        <time>2015-02-15T10:34:45Z</time>
      </trkpt>
      <trkpt lat="45.38062" lon="5.80678">
        <ele>1437</ele>
        <time>2015-02-15T10:34:47Z</time>
      </trkpt>
      <trkpt lat="45.38063" lon="5.80676">
        <ele>1437</ele>
        <time>2015-02-15T10:34:48Z</time>
      </trkpt>
      <trkpt lat="45.38062" lon="5.80664">
        <ele>1437</ele>
        <time>2015-02-15T10:34:52Z</time>
      </trkpt>
      <trkpt lat="45.3806" lon="5.80652">
        <ele>1437</ele>
        <time>2015-02-15T10:34:55Z</time>
      </trkpt>
      <trkpt lat="45.3806" lon="5.8065">
        <ele>1437</ele>
        <time>2015-02-15T10:34:57Z</time>
      </trkpt>
      <trkpt lat="45.38059" lon="5.8065">
        <ele>1437</ele>
        <time>2015-02-15T10:34:58Z</time>
      </trkpt>
      <trkpt lat="45.38058" lon="5.80646">
        <ele>1437</ele>
        <time>2015-02-15T10:35:00Z</time>
      </trkpt>
      <trkpt lat="45.38055" lon="5.80638">
        <ele>1437</ele>
        <time>2015-02-15T10:35:03Z</time>
      </trkpt>
      <trkpt lat="45.38056" lon="5.80639">
        <ele>1437</ele>
        <time>2015-02-15T10:35:04Z</time>
      </trkpt>
      <trkpt lat="45.38055" lon="5.80632">
        <ele>1437</ele>
        <time>2015-02-15T10:35:08Z</time>
      </trkpt>
      <trkpt lat="45.38055" lon="5.80632">
        <ele>1437</ele>
        <time>2015-02-15T10:35:09Z</time>
      </trkpt>
      <trkpt lat="45.38055" lon="5.80631">
        <ele>1437</ele>
        <time>2015-02-15T10:35:13Z</time>
      </trkpt>
      <trkpt lat="45.38056" lon="5.80619">
        <ele>1417</ele>
        <time>2015-02-15T10:35:17Z</time>
      </trkpt>
      <trkpt lat="45.38058" lon="5.80609">
        <ele>1417</ele>
        <time>2015-02-15T10:35:19Z</time>
      </trkpt>
      <trkpt lat="45.38063" lon="5.80601">
        <ele>1417</ele>
        <time>2015-02-15T10:35:21Z</time>
      </trkpt>
      <trkpt lat="45.38064" lon="5.80601">
        <ele>1417</ele>
        <time>2015-02-15T10:35:25Z</time>
      </trkpt>
      <trkpt lat="45.38064" lon="5.806">
        <ele>1417</ele>
        <time>2015-02-15T10:35:37Z</time>
      </trkpt>
      <trkpt lat="45.38063" lon="5.80599">
        <ele>1417</ele>
        <time>2015-02-15T10:35:39Z</time>
      </trkpt>
      <trkpt lat="45.3806" lon="5.80584">
        <ele>1417</ele>
        <time>2015-02-15T10:35:42Z</time>
      </trkpt>
      <trkpt lat="45.38065" lon="5.80578">
        <ele>1417</ele>
        <time>2015-02-15T10:35:44Z</time>
      </trkpt>
      <trkpt lat="45.38068" lon="5.80571">
        <ele>1417</ele>
        <time>2015-02-15T10:35:47Z</time>
      </trkpt>
      <trkpt lat="45.38069" lon="5.80571">
        <ele>1417</ele>
        <time>2015-02-15T10:35:52Z</time>
      </trkpt>
      <trkpt lat="45.38072" lon="5.80566">
        <ele>1417</ele>
        <time>2015-02-15T10:35:54Z</time>
      </trkpt>
      <trkpt lat="45.38084" lon="5.80537">
        <ele>1388</ele>
        <time>2015-02-15T10:35:58Z</time>
      </trkpt>
      <trkpt lat="45.38087" lon="5.80528">
        <ele>1388</ele>
        <time>2015-02-15T10:35:59Z</time>
      </trkpt>
      <trkpt lat="45.38099" lon="5.80495">
        <ele>1388</ele>
        <time>2015-02-15T10:36:03Z</time>
      </trkpt>
      <trkpt lat="45.38102" lon="5.80488">
        <ele>1388</ele>
        <time>2015-02-15T10:36:04Z</time>
      </trkpt>
      <trkpt lat="45.38124" lon="5.80464">
        <ele>1388</ele>
        <time>2015-02-15T10:36:09Z</time>
      </trkpt>
      <trkpt lat="45.38139" lon="5.80459">
        <ele>1425</ele>
        <time>2015-02-15T10:36:12Z</time>
      </trkpt>
      <trkpt lat="45.38147" lon="5.80459">
        <ele>1425</ele>
        <time>2015-02-15T10:36:15Z</time>
      </trkpt>
      <trkpt lat="45.38151" lon="5.80457">
        <ele>1394</ele>
        <time>2015-02-15T10:36:17Z</time>
      </trkpt>
      <trkpt lat="45.38163" lon="5.80457">
        <ele>1394</ele>
        <time>2015-02-15T10:36:21Z</time>
      </trkpt>
      <trkpt lat="45.38161" lon="5.80455">
        <ele>1394</ele>
        <time>2015-02-15T10:36:27Z</time>
      </trkpt>
      <trkpt lat="45.38173" lon="5.80445">
        <ele>1394</ele>
        <time>2015-02-15T10:36:31Z</time>
      </trkpt>
      <trkpt lat="45.38177" lon="5.80441">
        <ele>1394</ele>
        <time>2015-02-15T10:36:35Z</time>
      </trkpt>
      <trkpt lat="45.38177" lon="5.80437">
        <ele>1394</ele>
        <time>2015-02-15T10:36:40Z</time>
      </trkpt>
      <trkpt lat="45.38179" lon="5.8044">
        <ele>1394</ele>
        <time>2015-02-15T10:36:49Z</time>
      </trkpt>
      <trkpt lat="45.38179" lon="5.8044">
        <ele>1394</ele>
        <time>2015-02-15T10:36:55Z</time>
      </trkpt>
      <trkpt lat="45.38186" lon="5.80422">
        <ele>1394</ele>
        <time>2015-02-15T10:37:00Z</time>
      </trkpt>
      <trkpt lat="45.38186" lon="5.80408">
        <ele>1358</ele>
        <time>2015-02-15T10:37:02Z</time>
      </trkpt>
      <trkpt lat="45.38194" lon="5.80388">
        <ele>1394</ele>
        <time>2015-02-15T10:37:05Z</time>
      </trkpt>
      <trkpt lat="45.38205" lon="5.80372">
        <ele>1359</ele>
        <time>2015-02-15T10:37:08Z</time>
      </trkpt>
      <trkpt lat="45.3821" lon="5.80361">
        <ele>1390</ele>
        <time>2015-02-15T10:37:11Z</time>
      </trkpt>
      <trkpt lat="45.38211" lon="5.80357">
        <ele>1390</ele>
        <time>2015-02-15T10:37:12Z</time>
      </trkpt>
      <trkpt lat="45.38212" lon="5.80324">
        <ele>1390</ele>
        <time>2015-02-15T10:37:17Z</time>
      </trkpt>
      <trkpt lat="45.3821" lon="5.80298">
        <ele>1390</ele>
        <time>2015-02-15T10:37:20Z</time>
      </trkpt>
      <trkpt lat="45.38211" lon="5.80278">
        <ele>1370</ele>
        <time>2015-02-15T10:37:22Z</time>
      </trkpt>
      <trkpt lat="45.38218" lon="5.80238">
        <ele>1370</ele>
        <time>2015-02-15T10:37:26Z</time>
      </trkpt>
      <trkpt lat="45.38213" lon="5.80222">
        <ele>1370</ele>
        <time>2015-02-15T10:37:29Z</time>
      </trkpt>
      <trkpt lat="45.38212" lon="5.80222">
        <ele>1370</ele>
        <time>2015-02-15T10:37:31Z</time>
      </trkpt>
      <trkpt lat="45.38214" lon="5.8022">
        <ele>1370</ele>
        <time>2015-02-15T10:37:38Z</time>
      </trkpt>
      <trkpt lat="45.38213" lon="5.80221">
        <ele>1370</ele>
        <time>2015-02-15T10:37:49Z</time>
      </trkpt>
      <trkpt lat="45.38211" lon="5.80218">
        <ele>1370</ele>
        <time>2015-02-15T10:38:01Z</time>
      </trkpt>
      <trkpt lat="45.38211" lon="5.80218">
        <ele>1370</ele>
        <time>2015-02-15T10:38:14Z</time>
      </trkpt>
      <trkpt lat="45.38211" lon="5.8022">
        <ele>1370</ele>
        <time>2015-02-15T10:38:26Z</time>
      </trkpt>
      <trkpt lat="45.38211" lon="5.8022">
        <ele>1370</ele>
        <time>2015-02-15T10:38:39Z</time>
      </trkpt>
      <trkpt lat="45.38211" lon="5.80221">
        <ele>1370</ele>
        <time>2015-02-15T10:38:53Z</time>
      </trkpt>
      <trkpt lat="45.3821" lon="5.80219">
        <ele>1370</ele>
        <time>2015-02-15T10:39:05Z</time>
      </trkpt>
      <trkpt lat="45.38209" lon="5.8022">
        <ele>1370</ele>
        <time>2015-02-15T10:39:14Z</time>
      </trkpt>
      <trkpt lat="45.38202" lon="5.80239">
        <ele>1328</ele>
        <time>2015-02-15T10:39:19Z</time>
      </trkpt>
      <trkpt lat="45.38198" lon="5.80248">
        <ele>1328</ele>
        <time>2015-02-15T10:39:21Z</time>
      </trkpt>
      <trkpt lat="45.38186" lon="5.80262">
        <ele>1328</ele>
        <time>2015-02-15T10:39:25Z</time>
      </trkpt>
      <trkpt lat="45.3817" lon="5.80279">
        <ele>1328</ele>
        <time>2015-02-15T10:39:29Z</time>
      </trkpt>
      <trkpt lat="45.3816" lon="5.8029">
        <ele>1328</ele>
        <time>2015-02-15T10:39:31Z</time>
      </trkpt>
      <trkpt lat="45.38141" lon="5.80308">
        <ele>1359</ele>
        <time>2015-02-15T10:39:35Z</time>
      </trkpt>
      <trkpt lat="45.38134" lon="5.80314">
        <ele>1359</ele>
        <time>2015-02-15T10:39:36Z</time>
      </trkpt>
      <trkpt lat="45.38119" lon="5.80311">
        <ele>1324</ele>
        <time>2015-02-15T10:39:39Z</time>
      </trkpt>
      <trkpt lat="45.38113" lon="5.80308">
        <ele>1324</ele>
        <time>2015-02-15T10:39:42Z</time>
      </trkpt>
      <trkpt lat="45.38113" lon="5.80305">
        <ele>1324</ele>
        <time>2015-02-15T10:39:43Z</time>
      </trkpt>
      <trkpt lat="45.38112" lon="5.80289">
        <ele>1308</ele>
        <time>2015-02-15T10:39:46Z</time>
      </trkpt>
      <trkpt lat="45.3811" lon="5.80273">
        <ele>1308</ele>
        <time>2015-02-15T10:39:49Z</time>
      </trkpt>
      <trkpt lat="45.38104" lon="5.80265">
        <ele>1308</ele>
        <time>2015-02-15T10:39:51Z</time>
      </trkpt>
      <trkpt lat="45.38101" lon="5.8026">
        <ele>1308</ele>
        <time>2015-02-15T10:39:53Z</time>
      </trkpt>
      <trkpt lat="45.38105" lon="5.80253">
        <ele>1308</ele>
        <time>2015-02-15T10:39:57Z</time>
      </trkpt>
      <trkpt lat="45.381" lon="5.80239">
        <ele>1308</ele>
        <time>2015-02-15T10:40:01Z</time>
      </trkpt>
      <trkpt lat="45.38101" lon="5.80236">
        <ele>1308</ele>
        <time>2015-02-15T10:40:02Z</time>
      </trkpt>
      <trkpt lat="45.38102" lon="5.80233">
        <ele>1308</ele>
        <time>2015-02-15T10:40:03Z</time>
      </trkpt>
      <trkpt lat="45.38109" lon="5.80226">
        <ele>1308</ele>
        <time>2015-02-15T10:40:06Z</time>
      </trkpt>
      <trkpt lat="45.38109" lon="5.8022">
        <ele>1308</ele>
        <time>2015-02-15T10:40:11Z</time>
      </trkpt>
      <trkpt lat="45.38109" lon="5.8022">
        <ele>1308</ele>
        <time>2015-02-15T10:40:12Z</time>
      </trkpt>
      <trkpt lat="45.38095" lon="5.80214">
        <ele>1308</ele>
        <time>2015-02-15T10:40:18Z</time>
      </trkpt>
      <trkpt lat="45.38081" lon="5.80204">
        <ele>1295</ele>
        <time>2015-02-15T10:40:22Z</time>
      </trkpt>
      <trkpt lat="45.3807" lon="5.80199">
        <ele>1295</ele>
        <time>2015-02-15T10:40:24Z</time>
      </trkpt>
      <trkpt lat="45.3804" lon="5.8018">
        <ele>1271</ele>
        <time>2015-02-15T10:40:28Z</time>
      </trkpt>
      <trkpt lat="45.38015" lon="5.80155">
        <ele>1289</ele>
        <time>2015-02-15T10:40:32Z</time>
      </trkpt>
      <trkpt lat="45.37993" lon="5.80129">
        <ele>1289</ele>
        <time>2015-02-15T10:40:36Z</time>
      </trkpt>
      <trkpt lat="45.37981" lon="5.80108">
        <ele>1278</ele>
        <time>2015-02-15T10:40:39Z</time>
      </trkpt>
      <trkpt lat="45.37977" lon="5.80104">
        <ele>1278</ele>
        <time>2015-02-15T10:40:40Z</time>
      </trkpt>
      <trkpt lat="45.3796" lon="5.80079">
        <ele>1278</ele>
        <time>2015-02-15T10:40:45Z</time>
      </trkpt>
      <trkpt lat="45.37953" lon="5.80062">
        <ele>1280</ele>
        <time>2015-02-15T10:40:49Z</time>
      </trkpt>
      <trkpt lat="45.37954" lon="5.80063">
        <ele>1280</ele>
        <time>2015-02-15T10:40:55Z</time>
      </trkpt>
      <trkpt lat="45.37946" lon="5.80053">
        <ele>1280</ele>
        <time>2015-02-15T10:40:59Z</time>
      </trkpt>
      <trkpt lat="45.37932" lon="5.80041">
        <ele>1258</ele>
        <time>2015-02-15T10:41:02Z</time>
      </trkpt>
      <trkpt lat="45.3792" lon="5.80028">
        <ele>1258</ele>
        <time>2015-02-15T10:41:05Z</time>
      </trkpt>
      <trkpt lat="45.37914" lon="5.80025">
        <ele>1258</ele>
        <time>2015-02-15T10:41:07Z</time>
      </trkpt>
      <trkpt lat="45.37908" lon="5.80018">
        <ele>1258</ele>
        <time>2015-02-15T10:41:09Z</time>
      </trkpt>
      <trkpt lat="45.37886" lon="5.80011">
        <ele>1258</ele>
        <time>2015-02-15T10:41:14Z</time>
      </trkpt>
      <trkpt lat="45.37872" lon="5.79995">
        <ele>1262</ele>
        <time>2015-02-15T10:41:17Z</time>
      </trkpt>
      <trkpt lat="45.37854" lon="5.79974">
        <ele>1262</ele>
        <time>2015-02-15T10:41:21Z</time>
      </trkpt>
      <trkpt lat="45.37841" lon="5.79966">
        <ele>1262</ele>
        <time>2015-02-15T10:41:24Z</time>
      </trkpt>
      <trkpt lat="45.37841" lon="5.79965">
        <ele>1262</ele>
        <time>2015-02-15T10:41:26Z</time>
      </trkpt>
      <trkpt lat="45.37841" lon="5.79965">
        <ele>1262</ele>
        <time>2015-02-15T10:41:30Z</time>
      </trkpt>
      <trkpt lat="45.37832" lon="5.79963">
        <ele>1262</ele>
        <time>2015-02-15T10:41:34Z</time>
      </trkpt>
      <trkpt lat="45.37826" lon="5.79961">
        <ele>1262</ele>
        <time>2015-02-15T10:41:38Z</time>
      </trkpt>
      <trkpt lat="45.37826" lon="5.79961">
        <ele>1262</ele>
        <time>2015-02-15T10:41:39Z</time>
      </trkpt>
      <trkpt lat="45.37813" lon="5.79955">
        <ele>1232</ele>
        <time>2015-02-15T10:41:43Z</time>
      </trkpt>
      <trkpt lat="45.37802" lon="5.79951">
        <ele>1232</ele>
        <time>2015-02-15T10:41:45Z</time>
      </trkpt>
      <trkpt lat="45.37776" lon="5.79937">
        <ele>1234</ele>
        <time>2015-02-15T10:41:49Z</time>
      </trkpt>
      <trkpt lat="45.37767" lon="5.79934">
        <ele>1234</ele>
        <time>2015-02-15T10:41:56Z</time>
      </trkpt>
      <trkpt lat="45.37758" lon="5.79929">
        <ele>1234</ele>
        <time>2015-02-15T10:42:00Z</time>
      </trkpt>
      <trkpt lat="45.37747" lon="5.79925">
        <ele>1234</ele>
        <time>2015-02-15T10:42:02Z</time>
      </trkpt>
      <trkpt lat="45.37719" lon="5.79906">
        <ele>1234</ele>
        <time>2015-02-15T10:42:07Z</time>
      </trkpt>
      <trkpt lat="45.37712" lon="5.79899">
        <ele>1234</ele>
        <time>2015-02-15T10:42:10Z</time>
      </trkpt>
      <trkpt lat="45.37694" lon="5.79884">
        <ele>1237</ele>
        <time>2015-02-15T10:42:16Z</time>
      </trkpt>
      <trkpt lat="45.37677" lon="5.79872">
        <ele>1214</ele>
        <time>2015-02-15T10:42:19Z</time>
      </trkpt>
      <trkpt lat="45.37672" lon="5.79868">
        <ele>1214</ele>
        <time>2015-02-15T10:42:20Z</time>
      </trkpt>
      <trkpt lat="45.37662" lon="5.79865">
        <ele>1214</ele>
        <time>2015-02-15T10:42:23Z</time>
      </trkpt>
      <trkpt lat="45.37663" lon="5.79864">
        <ele>1214</ele>
        <time>2015-02-15T10:42:28Z</time>
      </trkpt>
      <trkpt lat="45.37662" lon="5.79864">
        <ele>1214</ele>
        <time>2015-02-15T10:42:30Z</time>
      </trkpt>
      <trkpt lat="45.37658" lon="5.79862">
        <ele>1214</ele>
        <time>2015-02-15T10:42:32Z</time>
      </trkpt>
      <trkpt lat="45.37651" lon="5.79859">
        <ele>1214</ele>
        <time>2015-02-15T10:42:34Z</time>
      </trkpt>
      <trkpt lat="45.37632" lon="5.79836">
        <ele>1214</ele>
        <time>2015-02-15T10:42:39Z</time>
      </trkpt>
      <trkpt lat="45.37629" lon="5.79833">
        <ele>1214</ele>
        <time>2015-02-15T10:42:40Z</time>
      </trkpt>
      <trkpt lat="45.37624" lon="5.79821">
        <ele>1184</ele>
        <time>2015-02-15T10:42:42Z</time>
      </trkpt>
      <trkpt lat="45.37621" lon="5.79805">
        <ele>1227</ele>
        <time>2015-02-15T10:42:45Z</time>
      </trkpt>
      <trkpt lat="45.3762" lon="5.79806">
        <ele>1227</ele>
        <time>2015-02-15T10:42:50Z</time>
      </trkpt>
      <trkpt lat="45.37619" lon="5.79805">
        <ele>1227</ele>
        <time>2015-02-15T10:42:59Z</time>
      </trkpt>
      <trkpt lat="45.37615" lon="5.79799">
        <ele>1227</ele>
        <time>2015-02-15T10:43:02Z</time>
      </trkpt>
      <trkpt lat="45.37611" lon="5.79784">
        <ele>1200</ele>
        <time>2015-02-15T10:43:05Z</time>
      </trkpt>
      <trkpt lat="45.37609" lon="5.79766">
        <ele>1200</ele>
        <time>2015-02-15T10:43:08Z</time>
      </trkpt>
      <trkpt lat="45.37608" lon="5.79751">
        <ele>1200</ele>
        <time>2015-02-15T10:43:11Z</time>
      </trkpt>
      <trkpt lat="45.37603" lon="5.79742">
        <ele>1200</ele>
        <time>2015-02-15T10:43:14Z</time>
      </trkpt>
      <trkpt lat="45.37593" lon="5.79734">
        <ele>1200</ele>
        <time>2015-02-15T10:43:17Z</time>
      </trkpt>
      <trkpt lat="45.37592" lon="5.79731">
        <ele>1200</ele>
        <time>2015-02-15T10:43:19Z</time>
      </trkpt>
      <trkpt lat="45.37597" lon="5.79727">
        <ele>1200</ele>
        <time>2015-02-15T10:43:25Z</time>
      </trkpt>
      <trkpt lat="45.37598" lon="5.79724">
        <ele>1200</ele>
        <time>2015-02-15T10:43:32Z</time>
      </trkpt>
      <trkpt lat="45.37589" lon="5.79713">
        <ele>1200</ele>
        <time>2015-02-15T10:43:37Z</time>
      </trkpt>
      <trkpt lat="45.37573" lon="5.79703">
        <ele>1181</ele>
        <time>2015-02-15T10:43:42Z</time>
      </trkpt>
      <trkpt lat="45.37563" lon="5.79693">
        <ele>1181</ele>
        <time>2015-02-15T10:43:45Z</time>
      </trkpt>
      <trkpt lat="45.37562" lon="5.79691">
        <ele>1181</ele>
        <time>2015-02-15T10:43:46Z</time>
      </trkpt>
      <trkpt lat="45.37561" lon="5.79693">
        <ele>1181</ele>
        <time>2015-02-15T10:43:49Z</time>
      </trkpt>
      <trkpt lat="45.37545" lon="5.7968">
        <ele>1181</ele>
        <time>2015-02-15T10:43:54Z</time>
      </trkpt>
      <trkpt lat="45.3754" lon="5.79675">
        <ele>1175</ele>
        <time>2015-02-15T10:43:55Z</time>
      </trkpt>
      <trkpt lat="45.37531" lon="5.79664">
        <ele>1175</ele>
        <time>2015-02-15T10:43:57Z</time>
      </trkpt>
      <trkpt lat="45.37521" lon="5.79661">
        <ele>1175</ele>
        <time>2015-02-15T10:44:00Z</time>
      </trkpt>
      <trkpt lat="45.37523" lon="5.7966">
        <ele>1175</ele>
        <time>2015-02-15T10:44:10Z</time>
      </trkpt>
      <trkpt lat="45.37524" lon="5.79659">
        <ele>1175</ele>
        <time>2015-02-15T10:44:13Z</time>
      </trkpt>
      <trkpt lat="45.37511" lon="5.79645">
        <ele>1175</ele>
        <time>2015-02-15T10:44:17Z</time>
      </trkpt>
      <trkpt lat="45.37495" lon="5.79627">
        <ele>1175</ele>
        <time>2015-02-15T10:44:20Z</time>
      </trkpt>
      <trkpt lat="45.37472" lon="5.79614">
        <ele>1164</ele>
        <time>2015-02-15T10:44:24Z</time>
      </trkpt>
      <trkpt lat="45.3746" lon="5.79612">
        <ele>1164</ele>
        <time>2015-02-15T10:44:26Z</time>
      </trkpt>
      <trkpt lat="45.37455" lon="5.79611">
        <ele>1164</ele>
        <time>2015-02-15T10:44:27Z</time>
      </trkpt>
      <trkpt lat="45.37445" lon="5.79612">
        <ele>1164</ele>
        <time>2015-02-15T10:44:29Z</time>
      </trkpt>
      <trkpt lat="45.37435" lon="5.79612">
        <ele>1164</ele>
        <time>2015-02-15T10:44:31Z</time>
      </trkpt>
      <trkpt lat="45.37429" lon="5.79606">
        <ele>1164</ele>
        <time>2015-02-15T10:44:33Z</time>
      </trkpt>
      <trkpt lat="45.37434" lon="5.79592">
        <ele>1164</ele>
        <time>2015-02-15T10:44:37Z</time>
      </trkpt>
      <trkpt lat="45.37439" lon="5.79585">
        <ele>1164</ele>
        <time>2015-02-15T10:44:42Z</time>
      </trkpt>
      <trkpt lat="45.3745" lon="5.79578">
        <ele>1164</ele>
        <time>2015-02-15T10:44:49Z</time>
      </trkpt>
      <trkpt lat="45.37451" lon="5.79578">
        <ele>1164</ele>
        <time>2015-02-15T10:44:50Z</time>
      </trkpt>
      <trkpt lat="45.37464" lon="5.79574">
        <ele>1164</ele>
        <time>2015-02-15T10:44:56Z</time>
      </trkpt>
      <trkpt lat="45.37468" lon="5.79573">
        <ele>1164</ele>
        <time>2015-02-15T10:44:58Z</time>
      </trkpt>
      <trkpt lat="45.37482" lon="5.79571">
        <ele>1164</ele>
        <time>2015-02-15T10:45:06Z</time>
      </trkpt>
      <trkpt lat="45.37495" lon="5.79572">
        <ele>1164</ele>
        <time>2015-02-15T10:45:13Z</time>
      </trkpt>
      <trkpt lat="45.37512" lon="5.79565">
        <ele>1164</ele>
        <time>2015-02-15T10:45:18Z</time>
      </trkpt>
      <trkpt lat="45.37511" lon="5.79549">
        <ele>1164</ele>
        <time>2015-02-15T10:45:22Z</time>
      </trkpt>
      <trkpt lat="45.37489" lon="5.79541">
        <ele>1163</ele>
        <time>2015-02-15T10:45:27Z</time>
      </trkpt>
      <trkpt lat="45.37471" lon="5.79538">
        <ele>1163</ele>
        <time>2015-02-15T10:45:31Z</time>
      </trkpt>
      <trkpt lat="45.37467" lon="5.79536">
        <ele>1163</ele>
        <time>2015-02-15T10:45:32Z</time>
      </trkpt>
      <trkpt lat="45.37455" lon="5.7953">
        <ele>1153</ele>
        <time>2015-02-15T10:45:35Z</time>
      </trkpt>
      <trkpt lat="45.37451" lon="5.79527">
        <ele>1153</ele>
        <time>2015-02-15T10:45:36Z</time>
      </trkpt>
      <trkpt lat="45.37442" lon="5.79521">
        <ele>1153</ele>
        <time>2015-02-15T10:45:38Z</time>
      </trkpt>
      <trkpt lat="45.37438" lon="5.79517">
        <ele>1122</ele>
        <time>2015-02-15T10:45:39Z</time>
      </trkpt>
      <trkpt lat="45.3741" lon="5.79501">
        <ele>1153</ele>
        <time>2015-02-15T10:45:45Z</time>
      </trkpt>
      <trkpt lat="45.37395" lon="5.79498">
        <ele>1153</ele>
        <time>2015-02-15T10:45:48Z</time>
      </trkpt>
      <trkpt lat="45.37375" lon="5.79492">
        <ele>1153</ele>
        <time>2015-02-15T10:45:52Z</time>
      </trkpt>
      <trkpt lat="45.37355" lon="5.79484">
        <ele>1149</ele>
        <time>2015-02-15T10:45:56Z</time>
      </trkpt>
      <trkpt lat="45.37352" lon="5.79484">
        <ele>1149</ele>
        <time>2015-02-15T10:45:58Z</time>
      </trkpt>
      <trkpt lat="45.37353" lon="5.79482">
        <ele>1149</ele>
        <time>2015-02-15T10:46:06Z</time>
      </trkpt>
      <trkpt lat="45.37356" lon="5.79481">
        <ele>1149</ele>
        <time>2015-02-15T10:46:15Z</time>
      </trkpt>
      <trkpt lat="45.37356" lon="5.7948">
        <ele>1149</ele>
        <time>2015-02-15T10:46:18Z</time>
      </trkpt>
      <trkpt lat="45.37339" lon="5.79471">
        <ele>1149</ele>
        <time>2015-02-15T10:46:23Z</time>
      </trkpt>
      <trkpt lat="45.37316" lon="5.79453">
        <ele>1140</ele>
        <time>2015-02-15T10:46:28Z</time>
      </trkpt>
      <trkpt lat="45.37304" lon="5.79434">
        <ele>1140</ele>
        <time>2015-02-15T10:46:32Z</time>
      </trkpt>
      <trkpt lat="45.37291" lon="5.79412">
        <ele>1129</ele>
        <time>2015-02-15T10:46:36Z</time>
      </trkpt>
      <trkpt lat="45.37277" lon="5.79389">
        <ele>1129</ele>
        <time>2015-02-15T10:46:40Z</time>
      </trkpt>
      <trkpt lat="45.37269" lon="5.79378">
        <ele>1129</ele>
        <time>2015-02-15T10:46:42Z</time>
      </trkpt>
      <trkpt lat="45.37254" lon="5.79353">
        <ele>1114</ele>
        <time>2015-02-15T10:46:46Z</time>
      </trkpt>
      <trkpt lat="45.37234" lon="5.79336">
        <ele>1114</ele>
        <time>2015-02-15T10:46:50Z</time>
      </trkpt>
      <trkpt lat="45.37221" lon="5.79325">
        <ele>1114</ele>
        <time>2015-02-15T10:46:53Z</time>
      </trkpt>
      <trkpt lat="45.37209" lon="5.79318">
        <ele>1114</ele>
        <time>2015-02-15T10:46:55Z</time>
      </trkpt>
      <trkpt lat="45.37183" lon="5.79307">
        <ele>1105</ele>
        <time>2015-02-15T10:46:59Z</time>
      </trkpt>
      <trkpt lat="45.3716" lon="5.793">
        <ele>1105</ele>
        <time>2015-02-15T10:47:02Z</time>
      </trkpt>
      <trkpt lat="45.37136" lon="5.79293">
        <ele>1105</ele>
        <time>2015-02-15T10:47:05Z</time>
      </trkpt>
      <trkpt lat="45.37121" lon="5.79285">
        <ele>1084</ele>
        <time>2015-02-15T10:47:07Z</time>
      </trkpt>
      <trkpt lat="45.37115" lon="5.79283">
        <ele>1084</ele>
        <time>2015-02-15T10:47:09Z</time>
      </trkpt>
      <trkpt lat="45.37113" lon="5.79276">
        <ele>1084</ele>
        <time>2015-02-15T10:47:16Z</time>
      </trkpt>
      <trkpt lat="45.37113" lon="5.79274">
        <ele>1084</ele>
        <time>2015-02-15T10:47:26Z</time>
      </trkpt>
      <trkpt lat="45.37112" lon="5.79274">
        <ele>1084</ele>
        <time>2015-02-15T10:47:36Z</time>
      </trkpt>
      <trkpt lat="45.37113" lon="5.79275">
        <ele>1084</ele>
        <time>2015-02-15T10:47:45Z</time>
      </trkpt>
      <trkpt lat="45.37101" lon="5.79287">
        <ele>1084</ele>
        <time>2015-02-15T10:47:50Z</time>
      </trkpt>
      <trkpt lat="45.37086" lon="5.79287">
        <ele>1084</ele>
        <time>2015-02-15T10:47:53Z</time>
      </trkpt>
      <trkpt lat="45.37077" lon="5.79288">
        <ele>1084</ele>
        <time>2015-02-15T10:47:55Z</time>
      </trkpt>
      <trkpt lat="45.37065" lon="5.79294">
        <ele>1089</ele>
        <time>2015-02-15T10:47:58Z</time>
      </trkpt>
      <trkpt lat="45.37061" lon="5.79298">
        <ele>1089</ele>
        <time>2015-02-15T10:47:59Z</time>
      </trkpt>
      <trkpt lat="45.37055" lon="5.79308">
        <ele>1089</ele>
        <time>2015-02-15T10:48:01Z</time>
      </trkpt>
      <trkpt lat="45.37048" lon="5.79317">
        <ele>1089</ele>
        <time>2015-02-15T10:48:03Z</time>
      </trkpt>
      <trkpt lat="45.37038" lon="5.79325">
        <ele>1063</ele>
        <time>2015-02-15T10:48:05Z</time>
      </trkpt>
      <trkpt lat="45.37033" lon="5.79328">
        <ele>1063</ele>
        <time>2015-02-15T10:48:06Z</time>
      </trkpt>
      <trkpt lat="45.37013" lon="5.79332">
        <ele>1063</ele>
        <time>2015-02-15T10:48:10Z</time>
      </trkpt>
      <trkpt lat="45.36997" lon="5.7934">
        <ele>1063</ele>
        <time>2015-02-15T10:48:13Z</time>
      </trkpt>
      <trkpt lat="45.36984" lon="5.79355">
        <ele>1063</ele>
        <time>2015-02-15T10:48:16Z</time>
      </trkpt>
      <trkpt lat="45.3697" lon="5.79367">
        <ele>1063</ele>
        <time>2015-02-15T10:48:19Z</time>
      </trkpt>
      <trkpt lat="45.36965" lon="5.79367">
        <ele>1063</ele>
        <time>2015-02-15T10:48:21Z</time>
      </trkpt>
      <trkpt lat="45.36962" lon="5.79373">
        <ele>1063</ele>
        <time>2015-02-15T10:48:26Z</time>
      </trkpt>
      <trkpt lat="45.36964" lon="5.79377">
        <ele>1076</ele>
        <time>2015-02-15T10:48:33Z</time>
      </trkpt>
      <trkpt lat="45.36964" lon="5.7938">
        <ele>1076</ele>
        <time>2015-02-15T10:48:37Z</time>
      </trkpt>
      <trkpt lat="45.36958" lon="5.79378">
        <ele>1059</ele>
        <time>2015-02-15T10:48:41Z</time>
      </trkpt>
      <trkpt lat="45.36946" lon="5.79378">
        <ele>1059</ele>
        <time>2015-02-15T10:48:44Z</time>
      </trkpt>
      <trkpt lat="45.36937" lon="5.79378">
        <ele>1059</ele>
        <time>2015-02-15T10:48:46Z</time>
      </trkpt>
      <trkpt lat="45.36928" lon="5.79378">
        <ele>1059</ele>
        <time>2015-02-15T10:48:48Z</time>
      </trkpt>
      <trkpt lat="45.3691" lon="5.79378">
        <ele>1059</ele>
        <time>2015-02-15T10:48:52Z</time>
      </trkpt>
      <trkpt lat="45.36895" lon="5.79379">
        <ele>1059</ele>
        <time>2015-02-15T10:48:55Z</time>
      </trkpt>
      <trkpt lat="45.36878" lon="5.79381">
        <ele>1059</ele>
        <time>2015-02-15T10:48:58Z</time>
      </trkpt>
      <trkpt lat="45.36867" lon="5.79381">
        <ele>1049</ele>
        <time>2015-02-15T10:49:00Z</time>
      </trkpt>
      <trkpt lat="45.36857" lon="5.79378">
        <ele>1049</ele>
        <time>2015-02-15T10:49:02Z</time>
      </trkpt>
      <trkpt lat="45.36848" lon="5.79377">
        <ele>1049</ele>
        <time>2015-02-15T10:49:04Z</time>
      </trkpt>
      <trkpt lat="45.36839" lon="5.79373">
        <ele>1030</ele>
        <time>2015-02-15T10:49:06Z</time>
      </trkpt>
      <trkpt lat="45.36837" lon="5.7937">
        <ele>1030</ele>
        <time>2015-02-15T10:49:08Z</time>
      </trkpt>
      <trkpt lat="45.36835" lon="5.79372">
        <ele>1030</ele>
        <time>2015-02-15T10:49:14Z</time>
      </trkpt>
      <trkpt lat="45.36829" lon="5.7937">
        <ele>1030</ele>
        <time>2015-02-15T10:49:21Z</time>
      </trkpt>
      <trkpt lat="45.36826" lon="5.79367">
        <ele>1030</ele>
        <time>2015-02-15T10:49:22Z</time>
      </trkpt>
      <trkpt lat="45.36811" lon="5.79356">
        <ele>1030</ele>
        <time>2015-02-15T10:49:26Z</time>
      </trkpt>
      <trkpt lat="45.36802" lon="5.7935">
        <ele>1030</ele>
        <time>2015-02-15T10:49:28Z</time>
      </trkpt>
      <trkpt lat="45.36771" lon="5.79335">
        <ele>1026</ele>
        <time>2015-02-15T10:49:34Z</time>
      </trkpt>
      <trkpt lat="45.36765" lon="5.79332">
        <ele>1026</ele>
        <time>2015-02-15T10:49:35Z</time>
      </trkpt>
      <trkpt lat="45.36736" lon="5.79328">
        <ele>1026</ele>
        <time>2015-02-15T10:49:39Z</time>
      </trkpt>
      <trkpt lat="45.36713" lon="5.79328">
        <ele>1026</ele>
        <time>2015-02-15T10:49:42Z</time>
      </trkpt>
      <trkpt lat="45.36705" lon="5.79328">
        <ele>1006</ele>
        <time>2015-02-15T10:49:43Z</time>
      </trkpt>
      <trkpt lat="45.36691" lon="5.7933">
        <ele>1006</ele>
        <time>2015-02-15T10:49:45Z</time>
      </trkpt>
      <trkpt lat="45.36668" lon="5.79337">
        <ele>1006</ele>
        <time>2015-02-15T10:49:48Z</time>
      </trkpt>
      <trkpt lat="45.36661" lon="5.7934">
        <ele>1006</ele>
        <time>2015-02-15T10:49:49Z</time>
      </trkpt>
      <trkpt lat="45.36647" lon="5.79339">
        <ele>1006</ele>
        <time>2015-02-15T10:49:52Z</time>
      </trkpt>
      <trkpt lat="45.36647" lon="5.79339">
        <ele>1006</ele>
        <time>2015-02-15T10:49:56Z</time>
      </trkpt>
      <trkpt lat="45.36646" lon="5.7934">
        <ele>1006</ele>
        <time>2015-02-15T10:50:06Z</time>
      </trkpt>
      <trkpt lat="45.36646" lon="5.7934">
        <ele>1006</ele>
        <time>2015-02-15T10:50:17Z</time>
      </trkpt>
      <trkpt lat="45.36645" lon="5.79339">
        <ele>1006</ele>
        <time>2015-02-15T10:50:18Z</time>
      </trkpt>
      <trkpt lat="45.36637" lon="5.79334">
        <ele>1006</ele>
        <time>2015-02-15T10:50:24Z</time>
      </trkpt>
      <trkpt lat="45.36631" lon="5.79333">
        <ele>1006</ele>
        <time>2015-02-15T10:50:28Z</time>
      </trkpt>
      <trkpt lat="45.36625" lon="5.79334">
        <ele>1006</ele>
        <time>2015-02-15T10:50:31Z</time>
      </trkpt>
      <trkpt lat="45.36611" lon="5.79339">
        <ele>986</ele>
        <time>2015-02-15T10:50:38Z</time>
      </trkpt>
      <trkpt lat="45.36588" lon="5.79345">
        <ele>986</ele>
        <time>2015-02-15T10:50:45Z</time>
      </trkpt>
      <trkpt lat="45.36555" lon="5.79333">
        <ele>986</ele>
        <time>2015-02-15T10:50:52Z</time>
      </trkpt>
      <trkpt lat="45.36541" lon="5.79329">
        <ele>970</ele>
        <time>2015-02-15T10:50:55Z</time>
      </trkpt>
      <trkpt lat="45.3652" lon="5.79322">
        <ele>970</ele>
        <time>2015-02-15T10:50:59Z</time>
      </trkpt>
      <trkpt lat="45.36504" lon="5.79314">
        <ele>970</ele>
        <time>2015-02-15T10:51:03Z</time>
      </trkpt>
      <trkpt lat="45.36501" lon="5.79315">
        <ele>970</ele>
        <time>2015-02-15T10:51:04Z</time>
      </trkpt>
      <trkpt lat="45.36493" lon="5.79308">
        <ele>970</ele>
        <time>2015-02-15T10:51:07Z</time>
      </trkpt>
      <trkpt lat="45.36482" lon="5.79298">
        <ele>970</ele>
        <time>2015-02-15T10:51:11Z</time>
      </trkpt>
      <trkpt lat="45.36477" lon="5.79283">
        <ele>978</ele>
        <time>2015-02-15T10:51:14Z</time>
      </trkpt>
      <trkpt lat="45.36475" lon="5.79268">
        <ele>978</ele>
        <time>2015-02-15T10:51:18Z</time>
      </trkpt>
      <trkpt lat="45.36472" lon="5.79267">
        <ele>978</ele>
        <time>2015-02-15T10:51:19Z</time>
      </trkpt>
      <trkpt lat="45.36459" lon="5.7925">
        <ele>978</ele>
        <time>2015-02-15T10:51:25Z</time>
      </trkpt>
      <trkpt lat="45.36445" lon="5.79238">
        <ele>964</ele>
        <time>2015-02-15T10:51:29Z</time>
      </trkpt>
      <trkpt lat="45.36439" lon="5.79231">
        <ele>964</ele>
        <time>2015-02-15T10:51:31Z</time>
      </trkpt>
      <trkpt lat="45.36432" lon="5.79219">
        <ele>964</ele>
        <time>2015-02-15T10:51:38Z</time>
      </trkpt>
      <trkpt lat="45.36431" lon="5.79218">
        <ele>948</ele>
        <time>2015-02-15T10:51:51Z</time>
      </trkpt>
      <trkpt lat="45.36432" lon="5.7922">
        <ele>948</ele>
        <time>2015-02-15T10:51:58Z</time>
      </trkpt>
      <trkpt lat="45.36433" lon="5.7922">
        <ele>948</ele>
        <time>2015-02-15T10:52:01Z</time>
      </trkpt>
      <trkpt lat="45.36431" lon="5.79222">
        <ele>964</ele>
        <time>2015-02-15T10:52:07Z</time>
      </trkpt>
      <trkpt lat="45.36427" lon="5.7922">
        <ele>964</ele>
        <time>2015-02-15T10:52:10Z</time>
      </trkpt>
      <trkpt lat="45.36411" lon="5.7921">
        <ele>964</ele>
        <time>2015-02-15T10:52:14Z</time>
      </trkpt>
      <trkpt lat="45.36387" lon="5.79206">
        <ele>975</ele>
        <time>2015-02-15T10:52:18Z</time>
      </trkpt>
      <trkpt lat="45.36386" lon="5.79207">
        <ele>975</ele>
        <time>2015-02-15T10:52:20Z</time>
      </trkpt>
      <trkpt lat="45.36389" lon="5.79207">
        <ele>975</ele>
        <time>2015-02-15T10:52:29Z</time>
      </trkpt>
      <trkpt lat="45.36389" lon="5.79207">
        <ele>975</ele>
        <time>2015-02-15T10:52:33Z</time>
      </trkpt>
      <trkpt lat="45.36387" lon="5.79205">
        <ele>975</ele>
        <time>2015-02-15T10:52:36Z</time>
      </trkpt>
      <trkpt lat="45.3638" lon="5.792">
        <ele>975</ele>
        <time>2015-02-15T10:52:41Z</time>
      </trkpt>
      <trkpt lat="45.36374" lon="5.79197">
        <ele>948</ele>
        <time>2015-02-15T10:52:43Z</time>
      </trkpt>
      <trkpt lat="45.36369" lon="5.79193">
        <ele>948</ele>
        <time>2015-02-15T10:52:45Z</time>
      </trkpt>
      <trkpt lat="45.36363" lon="5.79172">
        <ele>948</ele>
        <time>2015-02-15T10:52:49Z</time>
      </trkpt>
      <trkpt lat="45.36348" lon="5.79166">
        <ele>948</ele>
        <time>2015-02-15T10:52:52Z</time>
      </trkpt>
      <trkpt lat="45.36336" lon="5.79158">
        <ele>948</ele>
        <time>2015-02-15T10:52:55Z</time>
      </trkpt>
      <trkpt lat="45.36319" lon="5.79155">
        <ele>948</ele>
        <time>2015-02-15T10:53:01Z</time>
      </trkpt>
      <trkpt lat="45.36322" lon="5.79156">
        <ele>948</ele>
        <time>2015-02-15T10:53:11Z</time>
      </trkpt>
      <trkpt lat="45.36311" lon="5.79159">
        <ele>948</ele>
        <time>2015-02-15T10:53:15Z</time>
      </trkpt>
      <trkpt lat="45.36304" lon="5.7916">
        <ele>948</ele>
        <time>2015-02-15T10:53:17Z</time>
      </trkpt>
      <trkpt lat="45.36291" lon="5.79157">
        <ele>932</ele>
        <time>2015-02-15T10:53:21Z</time>
      </trkpt>
      <trkpt lat="45.36278" lon="5.79144">
        <ele>932</ele>
        <time>2015-02-15T10:53:25Z</time>
      </trkpt>
      <trkpt lat="45.3626" lon="5.79126">
        <ele>932</ele>
        <time>2015-02-15T10:53:30Z</time>
      </trkpt>
      <trkpt lat="45.36242" lon="5.79117">
        <ele>950</ele>
        <time>2015-02-15T10:53:34Z</time>
      </trkpt>
      <trkpt lat="45.36229" lon="5.79105">
        <ele>950</ele>
        <time>2015-02-15T10:53:36Z</time>
      </trkpt>
      <trkpt lat="45.36196" lon="5.79096">
        <ele>928</ele>
        <time>2015-02-15T10:53:41Z</time>
      </trkpt>
      <trkpt lat="45.36183" lon="5.79092">
        <ele>928</ele>
        <time>2015-02-15T10:53:43Z</time>
      </trkpt>
      <trkpt lat="45.36159" lon="5.79089">
        <ele>928</ele>
        <time>2015-02-15T10:53:47Z</time>
      </trkpt>
      <trkpt lat="45.36148" lon="5.79083">
        <ele>928</ele>
        <time>2015-02-15T10:53:49Z</time>
      </trkpt>
      <trkpt lat="45.36143" lon="5.79079">
        <ele>928</ele>
        <time>2015-02-15T10:53:50Z</time>
      </trkpt>
      <trkpt lat="45.36117" lon="5.79073">
        <ele>914</ele>
        <time>2015-02-15T10:53:54Z</time>
      </trkpt>
      <trkpt lat="45.36099" lon="5.79063">
        <ele>914</ele>
        <time>2015-02-15T10:53:58Z</time>
      </trkpt>
      <trkpt lat="45.36098" lon="5.79059">
        <ele>914</ele>
        <time>2015-02-15T10:54:06Z</time>
      </trkpt>
      <trkpt lat="45.36091" lon="5.79054">
        <ele>914</ele>
        <time>2015-02-15T10:54:10Z</time>
      </trkpt>
      <trkpt lat="45.36073" lon="5.79045">
        <ele>914</ele>
        <time>2015-02-15T10:54:14Z</time>
      </trkpt>
      <trkpt lat="45.36051" lon="5.79029">
        <ele>927</ele>
        <time>2015-02-15T10:54:18Z</time>
      </trkpt>
      <trkpt lat="45.36032" lon="5.79015">
        <ele>906</ele>
        <time>2015-02-15T10:54:21Z</time>
      </trkpt>
      <trkpt lat="45.36026" lon="5.79011">
        <ele>906</ele>
        <time>2015-02-15T10:54:22Z</time>
      </trkpt>
      <trkpt lat="45.36001" lon="5.79002">
        <ele>906</ele>
        <time>2015-02-15T10:54:26Z</time>
      </trkpt>
      <trkpt lat="45.35989" lon="5.78996">
        <ele>906</ele>
        <time>2015-02-15T10:54:28Z</time>
      </trkpt>
      <trkpt lat="45.35967" lon="5.78978">
        <ele>906</ele>
        <time>2015-02-15T10:54:32Z</time>
      </trkpt>
      <trkpt lat="45.35949" lon="5.78961">
        <ele>892</ele>
        <time>2015-02-15T10:54:35Z</time>
      </trkpt>
      <trkpt lat="45.35936" lon="5.7895">
        <ele>895</ele>
        <time>2015-02-15T10:54:37Z</time>
      </trkpt>
      <trkpt lat="45.35922" lon="5.7894">
        <ele>895</ele>
        <time>2015-02-15T10:54:39Z</time>
      </trkpt>
      <trkpt lat="45.35899" lon="5.78927">
        <ele>895</ele>
        <time>2015-02-15T10:54:42Z</time>
      </trkpt>
      <trkpt lat="45.35863" lon="5.78917">
        <ele>877</ele>
        <time>2015-02-15T10:54:46Z</time>
      </trkpt>
      <trkpt lat="45.35829" lon="5.78904">
        <ele>877</ele>
        <time>2015-02-15T10:54:50Z</time>
      </trkpt>
      <trkpt lat="45.35799" lon="5.78893">
        <ele>877</ele>
        <time>2015-02-15T10:54:54Z</time>
      </trkpt>
      <trkpt lat="45.35767" lon="5.78881">
        <ele>865</ele>
        <time>2015-02-15T10:54:58Z</time>
      </trkpt>
      <trkpt lat="45.35734" lon="5.78864">
        <ele>871</ele>
        <time>2015-02-15T10:55:02Z</time>
      </trkpt>
      <trkpt lat="45.35725" lon="5.7886">
        <ele>871</ele>
        <time>2015-02-15T10:55:03Z</time>
      </trkpt>
      <trkpt lat="45.35693" lon="5.78836">
        <ele>836</ele>
        <time>2015-02-15T10:55:07Z</time>
      </trkpt>
      <trkpt lat="45.35654" lon="5.7881">
        <ele>853</ele>
        <time>2015-02-15T10:55:12Z</time>
      </trkpt>
      <trkpt lat="45.3563" lon="5.78799">
        <ele>853</ele>
        <time>2015-02-15T10:55:15Z</time>
      </trkpt>
      <trkpt lat="45.35615" lon="5.78796">
        <ele>842</ele>
        <time>2015-02-15T10:55:17Z</time>
      </trkpt>
      <trkpt lat="45.35595" lon="5.78791">
        <ele>857</ele>
        <time>2015-02-15T10:55:20Z</time>
      </trkpt>
      <trkpt lat="45.35567" lon="5.78788">
        <ele>857</ele>
        <time>2015-02-15T10:55:25Z</time>
      </trkpt>
      <trkpt lat="45.35562" lon="5.78787">
        <ele>857</ele>
        <time>2015-02-15T10:55:26Z</time>
      </trkpt>
    </trkseg>
  </trk>
  <trk>
    <name><![CDATA[20190217121639-wP9Xg]]></name>
    <trkseg>
      <trkpt lat="45.38442" lon="5.81429">
        <ele>1651</ele>
      </trkpt>
      <trkpt lat="45.38448" lon="5.81379">
        <ele>1651</ele>
      </trkpt>
      <trkpt lat="45.38421" lon="5.81248">
        <ele>1678</ele>
      </trkpt>
      <trkpt lat="45.38507" lon="5.81211">
        <ele>1691</ele>
      </trkpt>
      <trkpt lat="45.38567" lon="5.81168">
        <ele>1712</ele>
      </trkpt>
      <trkpt lat="45.38607" lon="5.81089">
        <ele>1732</ele>
      </trkpt>
      <trkpt lat="45.38652" lon="5.81014">
        <ele>1720</ele>
      </trkpt>
      <trkpt lat="45.38688" lon="5.80943">
        <ele>1697</ele>
      </trkpt>
      <trkpt lat="45.38709" lon="5.80876">
        <ele>1698</ele>
      </trkpt>
      <trkpt lat="45.38738" lon="5.80814">
        <ele>1704</ele>
      </trkpt>
      <trkpt lat="45.38732" lon="5.80711">
        <ele>1713</ele>
      </trkpt>
      <trkpt lat="45.38732" lon="5.8066">
        <ele>1733</ele>
      </trkpt>
      <trkpt lat="45.38753" lon="5.80582">
        <ele>1750</ele>
      </trkpt>
      <trkpt lat="45.38792" lon="5.80527">
        <ele>1766</ele>
      </trkpt>
      <trkpt lat="45.38792" lon="5.80531">
        <ele>1766</ele>
      </trkpt>
    </trkseg>
  </trk>
</gpx>